<?xml version='1.0' encoding='UTF-8'?>
<gpx version="1.1" creator="https://www.komoot.de" xmlns="http://www.topografix.com/GPX/1/1" xmlns:xsi="http://www.w3.org/2001/XMLSchema-instance" xsi:schemaLocation="http://www.topografix.com/GPX/1/1 http://www.topografix.com/GPX/1/1/gpx.xsd">
  <metadata>
    <name>77_840Rotberg</name>
    <author>
      <link href="https://www.komoot.de">
        <text>komoot</text>
        <type>text/html</type>
      </link>
    </author>
  </metadata>
  <trk>
    <name>77_840Rotberg</name>
    <trkseg>
      <trkpt lat="47.541392" lon="7.870806">
        <ele>341.090891</ele>
        <time>2021-11-21T12:18:29.926Z</time>
      </trkpt>
      <trkpt lat="47.541410" lon="7.870791">
        <ele>341.090891</ele>
        <time>2021-11-21T12:18:30.210Z</time>
      </trkpt>
      <trkpt lat="47.541576" lon="7.870664">
        <ele>341.090891</ele>
        <time>2021-11-21T12:18:34.353Z</time>
      </trkpt>
      <trkpt lat="47.541796" lon="7.871042">
        <ele>341.090891</ele>
        <time>2021-11-21T12:18:41.455Z</time>
      </trkpt>
      <trkpt lat="47.541953" lon="7.871286">
        <ele>341.090891</ele>
        <time>2021-11-21T12:18:46.277Z</time>
      </trkpt>
      <trkpt lat="47.542039" lon="7.871556">
        <ele>341.375904</ele>
        <time>2021-11-21T12:18:50.661Z</time>
      </trkpt>
      <trkpt lat="47.542067" lon="7.871664">
        <ele>341.676039</ele>
        <time>2021-11-21T12:18:52.351Z</time>
      </trkpt>
      <trkpt lat="47.542091" lon="7.871721">
        <ele>341.850319</ele>
        <time>2021-11-21T12:18:52.941Z</time>
      </trkpt>
      <trkpt lat="47.542218" lon="7.871866">
        <ele>342.466533</ele>
        <time>2021-11-21T12:18:58.044Z</time>
      </trkpt>
      <trkpt lat="47.542394" lon="7.872341">
        <ele>343.872235</ele>
        <time>2021-11-21T12:19:08.096Z</time>
      </trkpt>
      <trkpt lat="47.542436" lon="7.872494">
        <ele>344.300721</ele>
        <time>2021-11-21T12:19:11.487Z</time>
      </trkpt>
      <trkpt lat="47.542537" lon="7.872430">
        <ele>344.722893</ele>
        <time>2021-11-21T12:19:13.599Z</time>
      </trkpt>
      <trkpt lat="47.542714" lon="7.872334">
        <ele>345.447278</ele>
        <time>2021-11-21T12:19:20.556Z</time>
      </trkpt>
      <trkpt lat="47.542814" lon="7.872280">
        <ele>345.856324</ele>
        <time>2021-11-21T12:19:23.569Z</time>
      </trkpt>
      <trkpt lat="47.542919" lon="7.872226">
        <ele>346.283474</ele>
        <time>2021-11-21T12:19:27.408Z</time>
      </trkpt>
      <trkpt lat="47.543013" lon="7.872182">
        <ele>346.662330</ele>
        <time>2021-11-21T12:19:30.914Z</time>
      </trkpt>
      <trkpt lat="47.543233" lon="7.872082">
        <ele>347.546716</ele>
        <time>2021-11-21T12:19:38.153Z</time>
      </trkpt>
      <trkpt lat="47.543251" lon="7.872152">
        <ele>347.741040</ele>
        <time>2021-11-21T12:19:41.527Z</time>
      </trkpt>
      <trkpt lat="47.543332" lon="7.872237">
        <ele>348.202641</ele>
        <time>2021-11-21T12:19:44.832Z</time>
      </trkpt>
      <trkpt lat="47.544390" lon="7.872423">
        <ele>355.047728</ele>
        <time>2021-11-21T12:20:26.551Z</time>
      </trkpt>
      <trkpt lat="47.544883" lon="7.872555">
        <ele>358.266447</ele>
        <time>2021-11-21T12:20:48.960Z</time>
      </trkpt>
      <trkpt lat="47.545131" lon="7.872664">
        <ele>359.935323</ele>
        <time>2021-11-21T12:20:59.964Z</time>
      </trkpt>
      <trkpt lat="47.545375" lon="7.872836">
        <ele>361.703783</ele>
        <time>2021-11-21T12:21:10.905Z</time>
      </trkpt>
      <trkpt lat="47.545478" lon="7.872968">
        <ele>362.595108</ele>
        <time>2021-11-21T12:21:17.713Z</time>
      </trkpt>
      <trkpt lat="47.545515" lon="7.873015">
        <ele>362.914088</ele>
        <time>2021-11-21T12:21:19.669Z</time>
      </trkpt>
      <trkpt lat="47.545746" lon="7.873302">
        <ele>364.887181</ele>
        <time>2021-11-21T12:21:32.869Z</time>
      </trkpt>
      <trkpt lat="47.545934" lon="7.873549">
        <ele>366.531721</ele>
        <time>2021-11-21T12:21:42.969Z</time>
      </trkpt>
      <trkpt lat="47.546077" lon="7.873763">
        <ele>367.861992</ele>
        <time>2021-11-21T12:21:52.165Z</time>
      </trkpt>
      <trkpt lat="47.546135" lon="7.873859">
        <ele>368.431153</ele>
        <time>2021-11-21T12:21:55.404Z</time>
      </trkpt>
      <trkpt lat="47.546309" lon="7.874154">
        <ele>370.161797</ele>
        <time>2021-11-21T12:22:06.519Z</time>
      </trkpt>
      <trkpt lat="47.547126" lon="7.875801">
        <ele>375.850813</ele>
        <time>2021-11-21T12:22:52.280Z</time>
      </trkpt>
      <trkpt lat="47.547574" lon="7.876801">
        <ele>377.915859</ele>
        <time>2021-11-21T12:23:11.276Z</time>
      </trkpt>
      <trkpt lat="47.547992" lon="7.877974">
        <ele>377.140378</ele>
        <time>2021-11-21T12:23:24.077Z</time>
      </trkpt>
      <trkpt lat="47.548234" lon="7.878638">
        <ele>376.699208</ele>
        <time>2021-11-21T12:23:29.389Z</time>
      </trkpt>
      <trkpt lat="47.548422" lon="7.878959">
        <ele>376.102546</ele>
        <time>2021-11-21T12:23:32.231Z</time>
      </trkpt>
      <trkpt lat="47.548718" lon="7.879258">
        <ele>374.608637</ele>
        <time>2021-11-21T12:23:35.770Z</time>
      </trkpt>
      <trkpt lat="47.549140" lon="7.879391">
        <ele>372.809529</ele>
        <time>2021-11-21T12:23:39.957Z</time>
      </trkpt>
      <trkpt lat="47.549318" lon="7.879398">
        <ele>372.067010</ele>
        <time>2021-11-21T12:23:41.584Z</time>
      </trkpt>
      <trkpt lat="47.549327" lon="7.879547">
        <ele>371.645966</ele>
        <time>2021-11-21T12:23:42.570Z</time>
      </trkpt>
      <trkpt lat="47.549726" lon="7.880786">
        <ele>367.954760</ele>
        <time>2021-11-21T12:23:51.504Z</time>
      </trkpt>
      <trkpt lat="47.549927" lon="7.881490">
        <ele>366.098161</ele>
        <time>2021-11-21T12:23:56.536Z</time>
      </trkpt>
      <trkpt lat="47.550234" lon="7.883221">
        <ele>361.590681</ele>
        <time>2021-11-21T12:24:08.937Z</time>
      </trkpt>
      <trkpt lat="47.550332" lon="7.884727">
        <ele>357.195187</ele>
        <time>2021-11-21T12:24:18.781Z</time>
      </trkpt>
      <trkpt lat="47.550391" lon="7.885109">
        <ele>356.056723</ele>
        <time>2021-11-21T12:24:21.314Z</time>
      </trkpt>
      <trkpt lat="47.550548" lon="7.885799">
        <ele>353.659626</ele>
        <time>2021-11-21T12:24:25.918Z</time>
      </trkpt>
      <trkpt lat="47.550677" lon="7.886476">
        <ele>350.966148</ele>
        <time>2021-11-21T12:24:30.349Z</time>
      </trkpt>
      <trkpt lat="47.550758" lon="7.887295">
        <ele>347.796808</ele>
        <time>2021-11-21T12:24:35.491Z</time>
      </trkpt>
      <trkpt lat="47.550789" lon="7.887816">
        <ele>345.794227</ele>
        <time>2021-11-21T12:24:38.723Z</time>
      </trkpt>
      <trkpt lat="47.550831" lon="7.888611">
        <ele>342.546054</ele>
        <time>2021-11-21T12:24:43.679Z</time>
      </trkpt>
      <trkpt lat="47.550833" lon="7.889069">
        <ele>340.610842</ele>
        <time>2021-11-21T12:24:46.488Z</time>
      </trkpt>
      <trkpt lat="47.550915" lon="7.890600">
        <ele>334.121626</ele>
        <time>2021-11-21T12:24:55.881Z</time>
      </trkpt>
      <trkpt lat="47.550904" lon="7.891725">
        <ele>330.722726</ele>
        <time>2021-11-21T12:25:02.885Z</time>
      </trkpt>
      <trkpt lat="47.550892" lon="7.893176">
        <ele>326.670523</ele>
        <time>2021-11-21T12:25:12.498Z</time>
      </trkpt>
      <trkpt lat="47.550908" lon="7.894308">
        <ele>325.181377</ele>
        <time>2021-11-21T12:25:21.703Z</time>
      </trkpt>
      <trkpt lat="47.550878" lon="7.895158">
        <ele>324.451978</ele>
        <time>2021-11-21T12:25:28.888Z</time>
      </trkpt>
      <trkpt lat="47.550838" lon="7.895509">
        <ele>324.146933</ele>
        <time>2021-11-21T12:25:32.052Z</time>
      </trkpt>
      <trkpt lat="47.550660" lon="7.896255">
        <ele>323.279653</ele>
        <time>2021-11-21T12:25:38.540Z</time>
      </trkpt>
      <trkpt lat="47.550639" lon="7.896345">
        <ele>323.106876</ele>
        <time>2021-11-21T12:25:39.727Z</time>
      </trkpt>
      <trkpt lat="47.550648" lon="7.896481">
        <ele>322.858936</ele>
        <time>2021-11-21T12:25:40.682Z</time>
      </trkpt>
      <trkpt lat="47.550819" lon="7.898109">
        <ele>319.869565</ele>
        <time>2021-11-21T12:25:52.430Z</time>
      </trkpt>
      <trkpt lat="47.550801" lon="7.900244">
        <ele>314.355197</ele>
        <time>2021-11-21T12:26:06.268Z</time>
      </trkpt>
      <trkpt lat="47.550769" lon="7.901362">
        <ele>311.139234</ele>
        <time>2021-11-21T12:26:13.539Z</time>
      </trkpt>
      <trkpt lat="47.550757" lon="7.901591">
        <ele>310.571675</ele>
        <time>2021-11-21T12:26:15.675Z</time>
      </trkpt>
      <trkpt lat="47.550688" lon="7.902451">
        <ele>308.431663</ele>
        <time>2021-11-21T12:26:24.110Z</time>
      </trkpt>
      <trkpt lat="47.550498" lon="7.903445">
        <ele>305.878894</ele>
        <time>2021-11-21T12:26:34.360Z</time>
      </trkpt>
      <trkpt lat="47.550302" lon="7.904164">
        <ele>303.958417</ele>
        <time>2021-11-21T12:26:41.619Z</time>
      </trkpt>
      <trkpt lat="47.550025" lon="7.904774">
        <ele>302.128309</ele>
        <time>2021-11-21T12:26:48.544Z</time>
      </trkpt>
      <trkpt lat="47.549868" lon="7.905010">
        <ele>301.303456</ele>
        <time>2021-11-21T12:26:51.676Z</time>
      </trkpt>
      <trkpt lat="47.549867" lon="7.905155">
        <ele>300.942495</ele>
        <time>2021-11-21T12:26:53.073Z</time>
      </trkpt>
      <trkpt lat="47.550067" lon="7.905245">
        <ele>300.171611</ele>
        <time>2021-11-21T12:26:55.998Z</time>
      </trkpt>
      <trkpt lat="47.550283" lon="7.905413">
        <ele>299.271895</ele>
        <time>2021-11-21T12:26:59.448Z</time>
      </trkpt>
      <trkpt lat="47.550497" lon="7.905558">
        <ele>298.404033</ele>
        <time>2021-11-21T12:27:02.807Z</time>
      </trkpt>
      <trkpt lat="47.549539" lon="7.908625">
        <ele>293.134440</ele>
        <time>2021-11-21T12:27:27.247Z</time>
      </trkpt>
      <trkpt lat="47.549520" lon="7.908678">
        <ele>293.077476</ele>
        <time>2021-11-21T12:27:27.746Z</time>
      </trkpt>
      <trkpt lat="47.549379" lon="7.909144">
        <ele>292.592726</ele>
        <time>2021-11-21T12:27:31.920Z</time>
      </trkpt>
      <trkpt lat="47.549302" lon="7.909402">
        <ele>292.324953</ele>
        <time>2021-11-21T12:27:34.205Z</time>
      </trkpt>
      <trkpt lat="47.549270" lon="7.909506">
        <ele>292.216460</ele>
        <time>2021-11-21T12:27:35.158Z</time>
      </trkpt>
      <trkpt lat="47.549195" lon="7.909756">
        <ele>291.956769</ele>
        <time>2021-11-21T12:27:37.386Z</time>
      </trkpt>
      <trkpt lat="47.549102" lon="7.910058">
        <ele>291.641677</ele>
        <time>2021-11-21T12:27:40.092Z</time>
      </trkpt>
      <trkpt lat="47.549012" lon="7.910340">
        <ele>291.345579</ele>
        <time>2021-11-21T12:27:42.605Z</time>
      </trkpt>
      <trkpt lat="47.548412" lon="7.912168">
        <ele>289.798062</ele>
        <time>2021-11-21T12:27:58.940Z</time>
      </trkpt>
      <trkpt lat="47.548027" lon="7.913334">
        <ele>289.052128</ele>
        <time>2021-11-21T12:28:09.701Z</time>
      </trkpt>
      <trkpt lat="47.547994" lon="7.913433">
        <ele>289.027102</ele>
        <time>2021-11-21T12:28:10.622Z</time>
      </trkpt>
      <trkpt lat="47.547423" lon="7.915080">
        <ele>288.607433</ele>
        <time>2021-11-21T12:28:28.098Z</time>
      </trkpt>
      <trkpt lat="47.547113" lon="7.915971">
        <ele>288.744991</ele>
        <time>2021-11-21T12:28:38.545Z</time>
      </trkpt>
      <trkpt lat="47.547091" lon="7.916039">
        <ele>288.766792</ele>
        <time>2021-11-21T12:28:39.570Z</time>
      </trkpt>
      <trkpt lat="47.547032" lon="7.916218">
        <ele>288.824382</ele>
        <time>2021-11-21T12:28:41.773Z</time>
      </trkpt>
      <trkpt lat="47.546821" lon="7.916867">
        <ele>289.032642</ele>
        <time>2021-11-21T12:28:49.881Z</time>
      </trkpt>
      <trkpt lat="47.546262" lon="7.919081">
        <ele>289.679209</ele>
        <time>2021-11-21T12:29:17.393Z</time>
      </trkpt>
      <trkpt lat="47.546128" lon="7.919617">
        <ele>289.829435</ele>
        <time>2021-11-21T12:29:22.861Z</time>
      </trkpt>
      <trkpt lat="47.545973" lon="7.920313">
        <ele>290.045809</ele>
        <time>2021-11-21T12:29:31.325Z</time>
      </trkpt>
      <trkpt lat="47.545913" lon="7.920765">
        <ele>290.432974</ele>
        <time>2021-11-21T12:29:35.498Z</time>
      </trkpt>
      <trkpt lat="47.545881" lon="7.921096">
        <ele>290.714006</ele>
        <time>2021-11-21T12:29:39.515Z</time>
      </trkpt>
      <trkpt lat="47.545810" lon="7.921755">
        <ele>291.274882</ele>
        <time>2021-11-21T12:29:48.423Z</time>
      </trkpt>
      <trkpt lat="47.545778" lon="7.921947">
        <ele>291.441098</ele>
        <time>2021-11-21T12:29:52.032Z</time>
      </trkpt>
      <trkpt lat="47.545714" lon="7.922249">
        <ele>291.707133</ele>
        <time>2021-11-21T12:29:55.231Z</time>
      </trkpt>
      <trkpt lat="47.545699" lon="7.922325">
        <ele>291.773683</ele>
        <time>2021-11-21T12:29:56.428Z</time>
      </trkpt>
      <trkpt lat="47.545690" lon="7.922369">
        <ele>291.812324</ele>
        <time>2021-11-21T12:29:58.526Z</time>
      </trkpt>
      <trkpt lat="47.545641" lon="7.922610">
        <ele>292.023866</ele>
        <time>2021-11-21T12:30:00.880Z</time>
      </trkpt>
      <trkpt lat="47.545587" lon="7.922895">
        <ele>292.312695</ele>
        <time>2021-11-21T12:30:06.676Z</time>
      </trkpt>
      <trkpt lat="47.545553" lon="7.923142">
        <ele>292.912710</ele>
        <time>2021-11-21T12:30:09.323Z</time>
      </trkpt>
      <trkpt lat="47.545536" lon="7.923407">
        <ele>293.546311</ele>
        <time>2021-11-21T12:30:15.213Z</time>
      </trkpt>
      <trkpt lat="47.545521" lon="7.923709">
        <ele>294.267082</ele>
        <time>2021-11-21T12:30:19.366Z</time>
      </trkpt>
      <trkpt lat="47.545481" lon="7.924396">
        <ele>295.908369</ele>
        <time>2021-11-21T12:30:33.970Z</time>
      </trkpt>
      <trkpt lat="47.545466" lon="7.924880">
        <ele>297.061612</ele>
        <time>2021-11-21T12:30:45.276Z</time>
      </trkpt>
      <trkpt lat="47.545446" lon="7.925350">
        <ele>298.182540</ele>
        <time>2021-11-21T12:30:55.651Z</time>
      </trkpt>
      <trkpt lat="47.545417" lon="7.925848">
        <ele>299.113650</ele>
        <time>2021-11-21T12:31:06.130Z</time>
      </trkpt>
      <trkpt lat="47.545409" lon="7.926773">
        <ele>300.584513</ele>
        <time>2021-11-21T12:31:23.331Z</time>
      </trkpt>
      <trkpt lat="47.545407" lon="7.927001">
        <ele>300.947061</ele>
        <time>2021-11-21T12:31:27.140Z</time>
      </trkpt>
      <trkpt lat="47.545406" lon="7.927306">
        <ele>301.432014</ele>
        <time>2021-11-21T12:31:31.744Z</time>
      </trkpt>
      <trkpt lat="47.545421" lon="7.927686">
        <ele>302.037243</ele>
        <time>2021-11-21T12:31:37.280Z</time>
      </trkpt>
      <trkpt lat="47.545475" lon="7.928419">
        <ele>302.613326</ele>
        <time>2021-11-21T12:31:46.598Z</time>
      </trkpt>
      <trkpt lat="47.545563" lon="7.929641">
        <ele>301.498168</ele>
        <time>2021-11-21T12:31:56.477Z</time>
      </trkpt>
      <trkpt lat="47.545661" lon="7.930955">
        <ele>300.303895</ele>
        <time>2021-11-21T12:32:05.873Z</time>
      </trkpt>
      <trkpt lat="47.545696" lon="7.931497">
        <ele>299.833031</ele>
        <time>2021-11-21T12:32:09.842Z</time>
      </trkpt>
      <trkpt lat="47.545721" lon="7.931992">
        <ele>299.403757</ele>
        <time>2021-11-21T12:32:13.634Z</time>
      </trkpt>
      <trkpt lat="47.545724" lon="7.932758">
        <ele>298.741306</ele>
        <time>2021-11-21T12:32:19.844Z</time>
      </trkpt>
      <trkpt lat="47.545702" lon="7.933290">
        <ele>298.280367</ele>
        <time>2021-11-21T12:32:24.487Z</time>
      </trkpt>
      <trkpt lat="47.545674" lon="7.933625">
        <ele>298.190673</ele>
        <time>2021-11-21T12:32:27.687Z</time>
      </trkpt>
      <trkpt lat="47.545457" lon="7.935110">
        <ele>299.105904</ele>
        <time>2021-11-21T12:32:45.822Z</time>
      </trkpt>
      <trkpt lat="47.545074" lon="7.936484">
        <ele>300.277075</ele>
        <time>2021-11-21T12:33:07.349Z</time>
      </trkpt>
      <trkpt lat="47.544903" lon="7.936917">
        <ele>300.867946</ele>
        <time>2021-11-21T12:33:14.666Z</time>
      </trkpt>
      <trkpt lat="47.544705" lon="7.937395">
        <ele>301.528502</ele>
        <time>2021-11-21T12:33:22.850Z</time>
      </trkpt>
      <trkpt lat="47.544472" lon="7.937932">
        <ele>302.280397</ele>
        <time>2021-11-21T12:33:32.257Z</time>
      </trkpt>
      <trkpt lat="47.543826" lon="7.939433">
        <ele>304.337714</ele>
        <time>2021-11-21T12:33:59.138Z</time>
      </trkpt>
      <trkpt lat="47.543435" lon="7.940670">
        <ele>305.905008</ele>
        <time>2021-11-21T12:34:19.099Z</time>
      </trkpt>
      <trkpt lat="47.543161" lon="7.942213">
        <ele>306.528576</ele>
        <time>2021-11-21T12:34:39.948Z</time>
      </trkpt>
      <trkpt lat="47.543007" lon="7.943867">
        <ele>306.256423</ele>
        <time>2021-11-21T12:34:55.492Z</time>
      </trkpt>
      <trkpt lat="47.542913" lon="7.945267">
        <ele>304.632683</ele>
        <time>2021-11-21T12:35:06.252Z</time>
      </trkpt>
      <trkpt lat="47.542872" lon="7.945781">
        <ele>304.035338</ele>
        <time>2021-11-21T12:35:09.848Z</time>
      </trkpt>
      <trkpt lat="47.542875" lon="7.946089">
        <ele>303.603824</ele>
        <time>2021-11-21T12:35:11.939Z</time>
      </trkpt>
      <trkpt lat="47.542902" lon="7.946514">
        <ele>302.915121</ele>
        <time>2021-11-21T12:35:14.818Z</time>
      </trkpt>
      <trkpt lat="47.542943" lon="7.946806">
        <ele>302.433940</ele>
        <time>2021-11-21T12:35:16.865Z</time>
      </trkpt>
      <trkpt lat="47.542974" lon="7.946965">
        <ele>302.166933</ele>
        <time>2021-11-21T12:35:18.076Z</time>
      </trkpt>
      <trkpt lat="47.542979" lon="7.946989">
        <ele>302.126410</ele>
        <time>2021-11-21T12:35:18.231Z</time>
      </trkpt>
      <trkpt lat="47.543007" lon="7.947104">
        <ele>301.929176</ele>
        <time>2021-11-21T12:35:19.080Z</time>
      </trkpt>
      <trkpt lat="47.543087" lon="7.947317">
        <ele>301.535923</ele>
        <time>2021-11-21T12:35:20.822Z</time>
      </trkpt>
      <trkpt lat="47.543191" lon="7.947615">
        <ele>300.994694</ele>
        <time>2021-11-21T12:35:23.264Z</time>
      </trkpt>
      <trkpt lat="47.543242" lon="7.947745">
        <ele>300.752113</ele>
        <time>2021-11-21T12:35:24.393Z</time>
      </trkpt>
      <trkpt lat="47.543273" lon="7.947816">
        <ele>300.615693</ele>
        <time>2021-11-21T12:35:25.021Z</time>
      </trkpt>
      <trkpt lat="47.543358" lon="7.947967">
        <ele>300.298490</ele>
        <time>2021-11-21T12:35:26.463Z</time>
      </trkpt>
      <trkpt lat="47.543455" lon="7.948127">
        <ele>299.951534</ele>
        <time>2021-11-21T12:35:28.130Z</time>
      </trkpt>
      <trkpt lat="47.543532" lon="7.948214">
        <ele>299.720086</ele>
        <time>2021-11-21T12:35:29.211Z</time>
      </trkpt>
      <trkpt lat="47.543579" lon="7.948287">
        <ele>299.571533</ele>
        <time>2021-11-21T12:35:29.975Z</time>
      </trkpt>
      <trkpt lat="47.543760" lon="7.948548">
        <ele>299.549308</ele>
        <time>2021-11-21T12:35:32.863Z</time>
      </trkpt>
      <trkpt lat="47.543864" lon="7.948694">
        <ele>299.536701</ele>
        <time>2021-11-21T12:35:34.534Z</time>
      </trkpt>
      <trkpt lat="47.544239" lon="7.949202">
        <ele>299.491991</ele>
        <time>2021-11-21T12:35:41.897Z</time>
      </trkpt>
      <trkpt lat="47.544521" lon="7.949558">
        <ele>299.459391</ele>
        <time>2021-11-21T12:35:48.071Z</time>
      </trkpt>
      <trkpt lat="47.544901" lon="7.950044">
        <ele>299.415220</ele>
        <time>2021-11-21T12:35:57.466Z</time>
      </trkpt>
      <trkpt lat="47.545166" lon="7.950366">
        <ele>299.484033</ele>
        <time>2021-11-21T12:36:04.017Z</time>
      </trkpt>
      <trkpt lat="47.545434" lon="7.950668">
        <ele>299.556381</ele>
        <time>2021-11-21T12:36:09.807Z</time>
      </trkpt>
      <trkpt lat="47.545542" lon="7.950842">
        <ele>299.590664</ele>
        <time>2021-11-21T12:36:12.232Z</time>
      </trkpt>
      <trkpt lat="47.545667" lon="7.950979">
        <ele>299.624072</ele>
        <time>2021-11-21T12:36:14.837Z</time>
      </trkpt>
      <trkpt lat="47.545737" lon="7.951055">
        <ele>299.642719</ele>
        <time>2021-11-21T12:36:16.091Z</time>
      </trkpt>
      <trkpt lat="47.545876" lon="7.951233">
        <ele>299.682196</ele>
        <time>2021-11-21T12:36:18.484Z</time>
      </trkpt>
      <trkpt lat="47.546112" lon="7.951485">
        <ele>299.744701</ele>
        <time>2021-11-21T12:36:23.027Z</time>
      </trkpt>
      <trkpt lat="47.546164" lon="7.951520">
        <ele>299.756973</ele>
        <time>2021-11-21T12:36:23.661Z</time>
      </trkpt>
      <trkpt lat="47.546212" lon="7.951535">
        <ele>299.767513</ele>
        <time>2021-11-21T12:36:24.426Z</time>
      </trkpt>
      <trkpt lat="47.546231" lon="7.951558">
        <ele>299.772785</ele>
        <time>2021-11-21T12:36:25.155Z</time>
      </trkpt>
      <trkpt lat="47.546421" lon="7.951793">
        <ele>299.749162</ele>
        <time>2021-11-21T12:36:28.337Z</time>
      </trkpt>
      <trkpt lat="47.546634" lon="7.952024">
        <ele>299.636311</ele>
        <time>2021-11-21T12:36:31.871Z</time>
      </trkpt>
      <trkpt lat="47.546695" lon="7.952091">
        <ele>299.603848</ele>
        <time>2021-11-21T12:36:32.826Z</time>
      </trkpt>
      <trkpt lat="47.546776" lon="7.952185">
        <ele>299.559860</ele>
        <time>2021-11-21T12:36:34.013Z</time>
      </trkpt>
      <trkpt lat="47.546935" lon="7.952372">
        <ele>299.473071</ele>
        <time>2021-11-21T12:36:36.948Z</time>
      </trkpt>
      <trkpt lat="47.547090" lon="7.952543">
        <ele>299.390453</ele>
        <time>2021-11-21T12:36:39.585Z</time>
      </trkpt>
      <trkpt lat="47.547400" lon="7.952910">
        <ele>299.220809</ele>
        <time>2021-11-21T12:36:44.907Z</time>
      </trkpt>
      <trkpt lat="47.547458" lon="7.952975">
        <ele>299.189718</ele>
        <time>2021-11-21T12:36:45.833Z</time>
      </trkpt>
      <trkpt lat="47.547550" lon="7.953078">
        <ele>299.140420</ele>
        <time>2021-11-21T12:36:47.330Z</time>
      </trkpt>
      <trkpt lat="47.547624" lon="7.953160">
        <ele>299.100914</ele>
        <time>2021-11-21T12:36:48.575Z</time>
      </trkpt>
      <trkpt lat="47.547797" lon="7.953355">
        <ele>299.018443</ele>
        <time>2021-11-21T12:36:51.564Z</time>
      </trkpt>
      <trkpt lat="47.547871" lon="7.953437">
        <ele>298.996631</ele>
        <time>2021-11-21T12:36:52.819Z</time>
      </trkpt>
      <trkpt lat="47.547994" lon="7.953584">
        <ele>298.959329</ele>
        <time>2021-11-21T12:36:54.946Z</time>
      </trkpt>
      <trkpt lat="47.548115" lon="7.953729">
        <ele>298.922596</ele>
        <time>2021-11-21T12:36:57.069Z</time>
      </trkpt>
      <trkpt lat="47.548251" lon="7.953895">
        <ele>298.881003</ele>
        <time>2021-11-21T12:36:59.450Z</time>
      </trkpt>
      <trkpt lat="47.548342" lon="7.954009">
        <ele>298.852874</ele>
        <time>2021-11-21T12:37:01.090Z</time>
      </trkpt>
      <trkpt lat="47.548542" lon="7.954269">
        <ele>298.790070</ele>
        <time>2021-11-21T12:37:04.820Z</time>
      </trkpt>
      <trkpt lat="47.548833" lon="7.954652">
        <ele>298.698194</ele>
        <time>2021-11-21T12:37:10.362Z</time>
      </trkpt>
      <trkpt lat="47.549042" lon="7.954942">
        <ele>298.630605</ele>
        <time>2021-11-21T12:37:14.504Z</time>
      </trkpt>
      <trkpt lat="47.549157" lon="7.955099">
        <ele>298.599125</ele>
        <time>2021-11-21T12:37:16.789Z</time>
      </trkpt>
      <trkpt lat="47.549444" lon="7.955496">
        <ele>298.544889</ele>
        <time>2021-11-21T12:37:22.635Z</time>
      </trkpt>
      <trkpt lat="47.550205" lon="7.956552">
        <ele>298.400867</ele>
        <time>2021-11-21T12:37:37.268Z</time>
      </trkpt>
      <trkpt lat="47.550380" lon="7.956806">
        <ele>298.367027</ele>
        <time>2021-11-21T12:37:40.830Z</time>
      </trkpt>
      <trkpt lat="47.550445" lon="7.956918">
        <ele>298.358665</ele>
        <time>2021-11-21T12:37:42.313Z</time>
      </trkpt>
      <trkpt lat="47.550549" lon="7.957126">
        <ele>298.360206</ele>
        <time>2021-11-21T12:37:44.835Z</time>
      </trkpt>
      <trkpt lat="47.550613" lon="7.957254">
        <ele>298.361154</ele>
        <time>2021-11-21T12:37:46.462Z</time>
      </trkpt>
      <trkpt lat="47.550735" lon="7.957541">
        <ele>298.363172</ele>
        <time>2021-11-21T12:37:49.918Z</time>
      </trkpt>
      <trkpt lat="47.550745" lon="7.957569">
        <ele>298.363360</ele>
        <time>2021-11-21T12:37:50.166Z</time>
      </trkpt>
      <trkpt lat="47.550869" lon="7.957700">
        <ele>298.364703</ele>
        <time>2021-11-21T12:37:52.440Z</time>
      </trkpt>
      <trkpt lat="47.551300" lon="7.958844">
        <ele>298.372499</ele>
        <time>2021-11-21T12:38:05.292Z</time>
      </trkpt>
      <trkpt lat="47.551677" lon="7.960100">
        <ele>298.676048</ele>
        <time>2021-11-21T12:38:20.030Z</time>
      </trkpt>
      <trkpt lat="47.551865" lon="7.960528">
        <ele>298.817586</ele>
        <time>2021-11-21T12:38:25.880Z</time>
      </trkpt>
      <trkpt lat="47.551882" lon="7.960631">
        <ele>298.846976</ele>
        <time>2021-11-21T12:38:27.096Z</time>
      </trkpt>
      <trkpt lat="47.551894" lon="7.960729">
        <ele>298.874581</ele>
        <time>2021-11-21T12:38:28.500Z</time>
      </trkpt>
      <trkpt lat="47.551859" lon="7.961133">
        <ele>298.987476</ele>
        <time>2021-11-21T12:38:32.976Z</time>
      </trkpt>
      <trkpt lat="47.551906" lon="7.962453">
        <ele>299.281888</ele>
        <time>2021-11-21T12:38:48.370Z</time>
      </trkpt>
      <trkpt lat="47.551918" lon="7.963725">
        <ele>299.529207</ele>
        <time>2021-11-21T12:39:02.031Z</time>
      </trkpt>
      <trkpt lat="47.551902" lon="7.964650">
        <ele>299.537786</ele>
        <time>2021-11-21T12:39:11.143Z</time>
      </trkpt>
      <trkpt lat="47.551767" lon="7.967910">
        <ele>298.956037</ele>
        <time>2021-11-21T12:39:40.806Z</time>
      </trkpt>
      <trkpt lat="47.551839" lon="7.968208">
        <ele>298.937949</ele>
        <time>2021-11-21T12:39:43.897Z</time>
      </trkpt>
      <trkpt lat="47.551847" lon="7.968315">
        <ele>298.931796</ele>
        <time>2021-11-21T12:39:44.873Z</time>
      </trkpt>
      <trkpt lat="47.551825" lon="7.968445">
        <ele>298.924137</ele>
        <time>2021-11-21T12:39:46.105Z</time>
      </trkpt>
      <trkpt lat="47.551750" lon="7.968659">
        <ele>298.910357</ele>
        <time>2021-11-21T12:39:48.707Z</time>
      </trkpt>
      <trkpt lat="47.551734" lon="7.970034">
        <ele>299.043565</ele>
        <time>2021-11-21T12:40:03.103Z</time>
      </trkpt>
      <trkpt lat="47.551725" lon="7.970823">
        <ele>299.324428</ele>
        <time>2021-11-21T12:40:12.223Z</time>
      </trkpt>
      <trkpt lat="47.551755" lon="7.972603">
        <ele>299.824373</ele>
        <time>2021-11-21T12:40:33.698Z</time>
      </trkpt>
      <trkpt lat="47.551793" lon="7.974325">
        <ele>299.885408</ele>
        <time>2021-11-21T12:40:50.869Z</time>
      </trkpt>
      <trkpt lat="47.551829" lon="7.976305">
        <ele>299.981851</ele>
        <time>2021-11-21T12:41:08.827Z</time>
      </trkpt>
      <trkpt lat="47.551901" lon="7.979190">
        <ele>300.488894</ele>
        <time>2021-11-21T12:41:42.942Z</time>
      </trkpt>
      <trkpt lat="47.551923" lon="7.979308">
        <ele>300.521167</ele>
        <time>2021-11-21T12:41:44.632Z</time>
      </trkpt>
      <trkpt lat="47.551933" lon="7.979363">
        <ele>300.536184</ele>
        <time>2021-11-21T12:41:45.845Z</time>
      </trkpt>
      <trkpt lat="47.551873" lon="7.980135">
        <ele>300.741049</ele>
        <time>2021-11-21T12:41:53.126Z</time>
      </trkpt>
      <trkpt lat="47.551865" lon="7.980584">
        <ele>300.137679</ele>
        <time>2021-11-21T12:41:57.374Z</time>
      </trkpt>
      <trkpt lat="47.551861" lon="7.981113">
        <ele>299.365432</ele>
        <time>2021-11-21T12:42:01.773Z</time>
      </trkpt>
      <trkpt lat="47.551892" lon="7.983447">
        <ele>295.984161</ele>
        <time>2021-11-21T12:42:17.779Z</time>
      </trkpt>
      <trkpt lat="47.551911" lon="7.983632">
        <ele>295.719005</ele>
        <time>2021-11-21T12:42:19.078Z</time>
      </trkpt>
      <trkpt lat="47.552005" lon="7.983849">
        <ele>295.353642</ele>
        <time>2021-11-21T12:42:20.936Z</time>
      </trkpt>
      <trkpt lat="47.552007" lon="7.983931">
        <ele>295.237375</ele>
        <time>2021-11-21T12:42:21.449Z</time>
      </trkpt>
      <trkpt lat="47.551993" lon="7.984014">
        <ele>295.116150</ele>
        <time>2021-11-21T12:42:22.039Z</time>
      </trkpt>
      <trkpt lat="47.551934" lon="7.984260">
        <ele>294.746223</ele>
        <time>2021-11-21T12:42:24.088Z</time>
      </trkpt>
      <trkpt lat="47.551939" lon="7.985151">
        <ele>293.483667</ele>
        <time>2021-11-21T12:42:30.725Z</time>
      </trkpt>
      <trkpt lat="47.551898" lon="7.985654">
        <ele>293.373160</ele>
        <time>2021-11-21T12:42:35.034Z</time>
      </trkpt>
      <trkpt lat="47.551915" lon="7.986209">
        <ele>294.094319</ele>
        <time>2021-11-21T12:42:40.651Z</time>
      </trkpt>
      <trkpt lat="47.551917" lon="7.986288">
        <ele>294.196938</ele>
        <time>2021-11-21T12:42:41.974Z</time>
      </trkpt>
      <trkpt lat="47.551971" lon="7.986555">
        <ele>294.558743</ele>
        <time>2021-11-21T12:42:46.235Z</time>
      </trkpt>
      <trkpt lat="47.552152" lon="7.986883">
        <ele>295.108699</ele>
        <time>2021-11-21T12:42:53.461Z</time>
      </trkpt>
      <trkpt lat="47.552224" lon="7.986975">
        <ele>295.291556</ele>
        <time>2021-11-21T12:42:56.028Z</time>
      </trkpt>
      <trkpt lat="47.552436" lon="7.987273">
        <ele>295.853580</ele>
        <time>2021-11-21T12:43:03.927Z</time>
      </trkpt>
      <trkpt lat="47.552504" lon="7.987369">
        <ele>296.034223</ele>
        <time>2021-11-21T12:43:06.562Z</time>
      </trkpt>
      <trkpt lat="47.552713" lon="7.987638">
        <ele>296.588864</ele>
        <time>2021-11-21T12:43:15.029Z</time>
      </trkpt>
      <trkpt lat="47.552867" lon="7.987810">
        <ele>297.293873</ele>
        <time>2021-11-21T12:43:21.517Z</time>
      </trkpt>
      <trkpt lat="47.553232" lon="7.988247">
        <ele>299.009379</ele>
        <time>2021-11-21T12:43:36.146Z</time>
      </trkpt>
      <trkpt lat="47.553343" lon="7.988401">
        <ele>299.565283</ele>
        <time>2021-11-21T12:43:40.982Z</time>
      </trkpt>
      <trkpt lat="47.553410" lon="7.988607">
        <ele>300.129476</ele>
        <time>2021-11-21T12:43:45.579Z</time>
      </trkpt>
      <trkpt lat="47.553424" lon="7.988762">
        <ele>300.515310</ele>
        <time>2021-11-21T12:43:48.766Z</time>
      </trkpt>
      <trkpt lat="47.553352" lon="7.989142">
        <ele>301.489112</ele>
        <time>2021-11-21T12:43:56.610Z</time>
      </trkpt>
      <trkpt lat="47.553253" lon="7.989578">
        <ele>302.624086</ele>
        <time>2021-11-21T12:44:05.563Z</time>
      </trkpt>
      <trkpt lat="47.553214" lon="7.989758">
        <ele>303.090517</ele>
        <time>2021-11-21T12:44:09.146Z</time>
      </trkpt>
      <trkpt lat="47.553163" lon="7.990004">
        <ele>303.251938</ele>
        <time>2021-11-21T12:44:13.845Z</time>
      </trkpt>
      <trkpt lat="47.553146" lon="7.990113">
        <ele>303.313029</ele>
        <time>2021-11-21T12:44:15.773Z</time>
      </trkpt>
      <trkpt lat="47.553126" lon="7.990240">
        <ele>303.384244</ele>
        <time>2021-11-21T12:44:17.930Z</time>
      </trkpt>
      <trkpt lat="47.553050" lon="7.990744">
        <ele>303.666254</ele>
        <time>2021-11-21T12:44:25.580Z</time>
      </trkpt>
      <trkpt lat="47.553091" lon="7.991915">
        <ele>304.306573</ele>
        <time>2021-11-21T12:44:36.389Z</time>
      </trkpt>
      <trkpt lat="47.553107" lon="7.992226">
        <ele>304.476896</ele>
        <time>2021-11-21T12:44:38.857Z</time>
      </trkpt>
      <trkpt lat="47.553130" lon="7.993014">
        <ele>305.023675</ele>
        <time>2021-11-21T12:44:48.431Z</time>
      </trkpt>
      <trkpt lat="47.553137" lon="7.993190">
        <ele>305.153313</ele>
        <time>2021-11-21T12:44:49.550Z</time>
      </trkpt>
      <trkpt lat="47.553156" lon="7.993696">
        <ele>305.525952</ele>
        <time>2021-11-21T12:44:55.183Z</time>
      </trkpt>
      <trkpt lat="47.553164" lon="7.993925">
        <ele>305.694563</ele>
        <time>2021-11-21T12:45:01.650Z</time>
      </trkpt>
      <trkpt lat="47.553246" lon="7.995617">
        <ele>307.291862</ele>
        <time>2021-11-21T12:45:24.435Z</time>
      </trkpt>
      <trkpt lat="47.553268" lon="7.996252">
        <ele>308.158822</ele>
        <time>2021-11-21T12:45:37.780Z</time>
      </trkpt>
      <trkpt lat="47.553279" lon="7.996528">
        <ele>308.535802</ele>
        <time>2021-11-21T12:45:41.933Z</time>
      </trkpt>
      <trkpt lat="47.553287" lon="7.997190">
        <ele>309.438581</ele>
        <time>2021-11-21T12:45:51.683Z</time>
      </trkpt>
      <trkpt lat="47.553287" lon="7.998380">
        <ele>310.378183</ele>
        <time>2021-11-21T12:46:08.267Z</time>
      </trkpt>
      <trkpt lat="47.553278" lon="7.999508">
        <ele>310.742741</ele>
        <time>2021-11-21T12:46:21.616Z</time>
      </trkpt>
      <trkpt lat="47.553275" lon="7.999860">
        <ele>310.856505</ele>
        <time>2021-11-21T12:46:25.116Z</time>
      </trkpt>
      <trkpt lat="47.553273" lon="8.001687">
        <ele>310.281496</ele>
        <time>2021-11-21T12:46:40.660Z</time>
      </trkpt>
      <trkpt lat="47.553271" lon="8.002109">
        <ele>310.039128</ele>
        <time>2021-11-21T12:46:44.026Z</time>
      </trkpt>
      <trkpt lat="47.553270" lon="8.002465">
        <ele>309.834669</ele>
        <time>2021-11-21T12:46:46.804Z</time>
      </trkpt>
      <trkpt lat="47.553266" lon="8.003502">
        <ele>309.568819</ele>
        <time>2021-11-21T12:46:55.578Z</time>
      </trkpt>
      <trkpt lat="47.553256" lon="8.004837">
        <ele>309.783464</ele>
        <time>2021-11-21T12:47:09.809Z</time>
      </trkpt>
      <trkpt lat="47.553251" lon="8.005657">
        <ele>309.915303</ele>
        <time>2021-11-21T12:47:19.898Z</time>
      </trkpt>
      <trkpt lat="47.553220" lon="8.006182">
        <ele>310.097440</ele>
        <time>2021-11-21T12:47:26.846Z</time>
      </trkpt>
      <trkpt lat="47.553211" lon="8.006270">
        <ele>310.130369</ele>
        <time>2021-11-21T12:47:28.648Z</time>
      </trkpt>
      <trkpt lat="47.553173" lon="8.006642">
        <ele>310.269564</ele>
        <time>2021-11-21T12:47:33.198Z</time>
      </trkpt>
      <trkpt lat="47.552935" lon="8.007851">
        <ele>310.735493</ele>
        <time>2021-11-21T12:47:48.304Z</time>
      </trkpt>
      <trkpt lat="47.552640" lon="8.008615">
        <ele>310.622180</ele>
        <time>2021-11-21T12:47:56.448Z</time>
      </trkpt>
      <trkpt lat="47.552604" lon="8.008677">
        <ele>310.563889</ele>
        <time>2021-11-21T12:47:56.998Z</time>
      </trkpt>
      <trkpt lat="47.551902" lon="8.009884">
        <ele>309.428288</ele>
        <time>2021-11-21T12:48:09.358Z</time>
      </trkpt>
      <trkpt lat="47.551275" lon="8.010934">
        <ele>309.145867</ele>
        <time>2021-11-21T12:48:21.314Z</time>
      </trkpt>
      <trkpt lat="47.551187" lon="8.011080">
        <ele>309.177978</ele>
        <time>2021-11-21T12:48:23.448Z</time>
      </trkpt>
      <trkpt lat="47.550764" lon="8.011985">
        <ele>309.358563</ele>
        <time>2021-11-21T12:48:35.537Z</time>
      </trkpt>
      <trkpt lat="47.550565" lon="8.012461">
        <ele>309.457805</ele>
        <time>2021-11-21T12:48:42.956Z</time>
      </trkpt>
      <trkpt lat="47.550001" lon="8.014034">
        <ele>311.194810</ele>
        <time>2021-11-21T12:49:08.795Z</time>
      </trkpt>
      <trkpt lat="47.549871" lon="8.014427">
        <ele>311.621619</ele>
        <time>2021-11-21T12:49:14.982Z</time>
      </trkpt>
      <trkpt lat="47.549795" lon="8.014667">
        <ele>311.880148</ele>
        <time>2021-11-21T12:49:18.483Z</time>
      </trkpt>
      <trkpt lat="47.549589" lon="8.015316">
        <ele>312.511173</ele>
        <time>2021-11-21T12:49:27.860Z</time>
      </trkpt>
      <trkpt lat="47.549431" lon="8.015998">
        <ele>313.123946</ele>
        <time>2021-11-21T12:49:37.774Z</time>
      </trkpt>
      <trkpt lat="47.549281" lon="8.017304">
        <ele>314.249779</ele>
        <time>2021-11-21T12:49:54.998Z</time>
      </trkpt>
      <trkpt lat="47.549274" lon="8.017401">
        <ele>314.335863</ele>
        <time>2021-11-21T12:49:56.291Z</time>
      </trkpt>
      <trkpt lat="47.549236" lon="8.017402">
        <ele>314.391210</ele>
        <time>2021-11-21T12:49:57.114Z</time>
      </trkpt>
      <trkpt lat="47.549145" lon="8.017497">
        <ele>314.553323</ele>
        <time>2021-11-21T12:49:59.371Z</time>
      </trkpt>
      <trkpt lat="47.549133" lon="8.017550">
        <ele>314.608270</ele>
        <time>2021-11-21T12:50:00.361Z</time>
      </trkpt>
      <trkpt lat="47.549131" lon="8.017604">
        <ele>314.661427</ele>
        <time>2021-11-21T12:50:00.877Z</time>
      </trkpt>
      <trkpt lat="47.549220" lon="8.017761">
        <ele>314.862950</ele>
        <time>2021-11-21T12:50:03.455Z</time>
      </trkpt>
      <trkpt lat="47.549256" lon="8.017769">
        <ele>314.915962</ele>
        <time>2021-11-21T12:50:04.258Z</time>
      </trkpt>
      <trkpt lat="47.549261" lon="8.017878">
        <ele>315.023346</ele>
        <time>2021-11-21T12:50:05.898Z</time>
      </trkpt>
      <trkpt lat="47.549208" lon="8.019997">
        <ele>317.049770</ele>
        <time>2021-11-21T12:50:36.453Z</time>
      </trkpt>
      <trkpt lat="47.549186" lon="8.021006">
        <ele>317.716046</ele>
        <time>2021-11-21T12:50:49.516Z</time>
      </trkpt>
      <trkpt lat="47.549191" lon="8.021436">
        <ele>317.999884</ele>
        <time>2021-11-21T12:50:54.897Z</time>
      </trkpt>
      <trkpt lat="47.549201" lon="8.022146">
        <ele>318.468579</ele>
        <time>2021-11-21T12:51:03.699Z</time>
      </trkpt>
      <trkpt lat="47.549268" lon="8.023385">
        <ele>318.740477</ele>
        <time>2021-11-21T12:51:17.651Z</time>
      </trkpt>
      <trkpt lat="47.549322" lon="8.024323">
        <ele>318.792451</ele>
        <time>2021-11-21T12:51:27.035Z</time>
      </trkpt>
      <trkpt lat="47.549436" lon="8.026046">
        <ele>318.495235</ele>
        <time>2021-11-21T12:51:43.255Z</time>
      </trkpt>
      <trkpt lat="47.549454" lon="8.027138">
        <ele>318.086462</ele>
        <time>2021-11-21T12:51:52.542Z</time>
      </trkpt>
      <trkpt lat="47.549445" lon="8.027599">
        <ele>317.913874</ele>
        <time>2021-11-21T12:51:56.502Z</time>
      </trkpt>
      <trkpt lat="47.549431" lon="8.028306">
        <ele>317.670734</ele>
        <time>2021-11-21T12:52:02.734Z</time>
      </trkpt>
      <trkpt lat="47.549418" lon="8.028906">
        <ele>317.471416</ele>
        <time>2021-11-21T12:52:08.151Z</time>
      </trkpt>
      <trkpt lat="47.549380" lon="8.030702">
        <ele>316.950932</ele>
        <time>2021-11-21T12:52:24.037Z</time>
      </trkpt>
      <trkpt lat="47.549378" lon="8.030790">
        <ele>316.949278</ele>
        <time>2021-11-21T12:52:24.966Z</time>
      </trkpt>
      <trkpt lat="47.549372" lon="8.031883">
        <ele>316.928751</ele>
        <time>2021-11-21T12:52:36.204Z</time>
      </trkpt>
      <trkpt lat="47.549368" lon="8.032544">
        <ele>316.916336</ele>
        <time>2021-11-21T12:52:42.453Z</time>
      </trkpt>
      <trkpt lat="47.549363" lon="8.032869">
        <ele>316.910231</ele>
        <time>2021-11-21T12:52:46.815Z</time>
      </trkpt>
      <trkpt lat="47.549374" lon="8.033423">
        <ele>316.844590</ele>
        <time>2021-11-21T12:52:52.821Z</time>
      </trkpt>
      <trkpt lat="47.549386" lon="8.033799">
        <ele>316.768133</ele>
        <time>2021-11-21T12:52:56.042Z</time>
      </trkpt>
      <trkpt lat="47.549394" lon="8.034003">
        <ele>316.726627</ele>
        <time>2021-11-21T12:52:59.132Z</time>
      </trkpt>
      <trkpt lat="47.549395" lon="8.034029">
        <ele>316.721337</ele>
        <time>2021-11-21T12:52:59.277Z</time>
      </trkpt>
      <trkpt lat="47.549442" lon="8.034584">
        <ele>316.607723</ele>
        <time>2021-11-21T12:53:04.482Z</time>
      </trkpt>
      <trkpt lat="47.549494" lon="8.034935">
        <ele>316.534732</ele>
        <time>2021-11-21T12:53:08.288Z</time>
      </trkpt>
      <trkpt lat="47.549554" lon="8.035288">
        <ele>316.460793</ele>
        <time>2021-11-21T12:53:11.366Z</time>
      </trkpt>
      <trkpt lat="47.549632" lon="8.035633">
        <ele>316.386891</ele>
        <time>2021-11-21T12:53:14.520Z</time>
      </trkpt>
      <trkpt lat="47.549699" lon="8.035900">
        <ele>316.267506</ele>
        <time>2021-11-21T12:53:17.016Z</time>
      </trkpt>
      <trkpt lat="47.549753" lon="8.036077">
        <ele>316.158978</ele>
        <time>2021-11-21T12:53:18.690Z</time>
      </trkpt>
      <trkpt lat="47.549832" lon="8.036349">
        <ele>315.993530</ele>
        <time>2021-11-21T12:53:21.130Z</time>
      </trkpt>
      <trkpt lat="47.550111" lon="8.037123">
        <ele>315.503268</ele>
        <time>2021-11-21T12:53:28.321Z</time>
      </trkpt>
      <trkpt lat="47.550424" lon="8.037956">
        <ele>314.970590</ele>
        <time>2021-11-21T12:53:36.090Z</time>
      </trkpt>
      <trkpt lat="47.550515" lon="8.038174">
        <ele>314.911227</ele>
        <time>2021-11-21T12:53:38.337Z</time>
      </trkpt>
      <trkpt lat="47.551001" lon="8.039426">
        <ele>315.517722</ele>
        <time>2021-11-21T12:53:53.636Z</time>
      </trkpt>
      <trkpt lat="47.551167" lon="8.039905">
        <ele>315.743830</ele>
        <time>2021-11-21T12:54:00.682Z</time>
      </trkpt>
      <trkpt lat="47.551627" lon="8.041127">
        <ele>317.131855</ele>
        <time>2021-11-21T12:54:21.228Z</time>
      </trkpt>
      <trkpt lat="47.552844" lon="8.044355">
        <ele>321.981109</ele>
        <time>2021-11-21T12:55:21.179Z</time>
      </trkpt>
      <trkpt lat="47.553619" lon="8.046372">
        <ele>322.895681</ele>
        <time>2021-11-21T12:55:49.017Z</time>
      </trkpt>
      <trkpt lat="47.553996" lon="8.047557">
        <ele>322.658432</ele>
        <time>2021-11-21T12:55:59.926Z</time>
      </trkpt>
      <trkpt lat="47.554309" lon="8.048719">
        <ele>321.092189</ele>
        <time>2021-11-21T12:56:09.204Z</time>
      </trkpt>
      <trkpt lat="47.554412" lon="8.049127">
        <ele>320.546868</ele>
        <time>2021-11-21T12:56:12.371Z</time>
      </trkpt>
      <trkpt lat="47.554715" lon="8.050527">
        <ele>318.953604</ele>
        <time>2021-11-21T12:56:23.276Z</time>
      </trkpt>
      <trkpt lat="47.554988" lon="8.051475">
        <ele>318.069027</ele>
        <time>2021-11-21T12:56:31.202Z</time>
      </trkpt>
      <trkpt lat="47.555259" lon="8.052135">
        <ele>317.405997</ele>
        <time>2021-11-21T12:56:37.976Z</time>
      </trkpt>
      <trkpt lat="47.555603" lon="8.052757">
        <ele>317.157298</ele>
        <time>2021-11-21T12:56:45.465Z</time>
      </trkpt>
      <trkpt lat="47.555773" lon="8.053070">
        <ele>317.123418</ele>
        <time>2021-11-21T12:56:49.314Z</time>
      </trkpt>
      <trkpt lat="47.555890" lon="8.053286">
        <ele>317.100063</ele>
        <time>2021-11-21T12:56:51.921Z</time>
      </trkpt>
      <trkpt lat="47.556032" lon="8.053510">
        <ele>317.074147</ele>
        <time>2021-11-21T12:56:54.587Z</time>
      </trkpt>
      <trkpt lat="47.556239" lon="8.053780">
        <ele>317.039689</ele>
        <time>2021-11-21T12:56:58.537Z</time>
      </trkpt>
      <trkpt lat="47.556494" lon="8.054073">
        <ele>316.999370</ele>
        <time>2021-11-21T12:57:03.780Z</time>
      </trkpt>
      <trkpt lat="47.557019" lon="8.054678">
        <ele>316.982250</ele>
        <time>2021-11-21T12:57:14.900Z</time>
      </trkpt>
      <trkpt lat="47.557097" lon="8.054768">
        <ele>316.982555</ele>
        <time>2021-11-21T12:57:16.137Z</time>
      </trkpt>
      <trkpt lat="47.557273" lon="8.054941">
        <ele>316.983207</ele>
        <time>2021-11-21T12:57:19.462Z</time>
      </trkpt>
      <trkpt lat="47.557500" lon="8.055133">
        <ele>316.984013</ele>
        <time>2021-11-21T12:57:23.027Z</time>
      </trkpt>
      <trkpt lat="47.557710" lon="8.055283">
        <ele>316.984732</ele>
        <time>2021-11-21T12:57:26.181Z</time>
      </trkpt>
      <trkpt lat="47.557918" lon="8.055409">
        <ele>316.985425</ele>
        <time>2021-11-21T12:57:29.460Z</time>
      </trkpt>
      <trkpt lat="47.558012" lon="8.055477">
        <ele>316.985748</ele>
        <time>2021-11-21T12:57:30.835Z</time>
      </trkpt>
      <trkpt lat="47.558239" lon="8.055639">
        <ele>317.000447</ele>
        <time>2021-11-21T12:57:34.666Z</time>
      </trkpt>
      <trkpt lat="47.558447" lon="8.055831">
        <ele>317.034481</ele>
        <time>2021-11-21T12:57:38.249Z</time>
      </trkpt>
      <trkpt lat="47.558662" lon="8.056061">
        <ele>317.071308</ele>
        <time>2021-11-21T12:57:42.677Z</time>
      </trkpt>
      <trkpt lat="47.559116" lon="8.056760">
        <ele>317.162232</ele>
        <time>2021-11-21T12:57:52.785Z</time>
      </trkpt>
      <trkpt lat="47.559294" lon="8.057130">
        <ele>317.204819</ele>
        <time>2021-11-21T12:57:57.454Z</time>
      </trkpt>
      <trkpt lat="47.559447" lon="8.057490">
        <ele>317.252856</ele>
        <time>2021-11-21T12:58:01.819Z</time>
      </trkpt>
      <trkpt lat="47.559548" lon="8.057827">
        <ele>317.319902</ele>
        <time>2021-11-21T12:58:05.809Z</time>
      </trkpt>
      <trkpt lat="47.559579" lon="8.057955">
        <ele>317.344628</ele>
        <time>2021-11-21T12:58:07.252Z</time>
      </trkpt>
      <trkpt lat="47.559654" lon="8.058257">
        <ele>317.403139</ele>
        <time>2021-11-21T12:58:10.857Z</time>
      </trkpt>
      <trkpt lat="47.559725" lon="8.058554">
        <ele>317.460428</ele>
        <time>2021-11-21T12:58:14.251Z</time>
      </trkpt>
      <trkpt lat="47.559859" lon="8.059093">
        <ele>317.564869</ele>
        <time>2021-11-21T12:58:20.370Z</time>
      </trkpt>
      <trkpt lat="47.559979" lon="8.059591">
        <ele>317.661015</ele>
        <time>2021-11-21T12:58:25.958Z</time>
      </trkpt>
      <trkpt lat="47.560019" lon="8.059741">
        <ele>317.690340</ele>
        <time>2021-11-21T12:58:27.766Z</time>
      </trkpt>
      <trkpt lat="47.560040" lon="8.059827">
        <ele>317.706969</ele>
        <time>2021-11-21T12:58:28.709Z</time>
      </trkpt>
      <trkpt lat="47.560069" lon="8.059943">
        <ele>317.742772</ele>
        <time>2021-11-21T12:58:29.954Z</time>
      </trkpt>
      <trkpt lat="47.560130" lon="8.060196">
        <ele>317.865212</ele>
        <time>2021-11-21T12:58:32.999Z</time>
      </trkpt>
      <trkpt lat="47.560262" lon="8.060729">
        <ele>318.123961</ele>
        <time>2021-11-21T12:58:39.256Z</time>
      </trkpt>
      <trkpt lat="47.560293" lon="8.060828">
        <ele>318.173700</ele>
        <time>2021-11-21T12:58:40.537Z</time>
      </trkpt>
      <trkpt lat="47.560335" lon="8.060984">
        <ele>318.250244</ele>
        <time>2021-11-21T12:58:42.570Z</time>
      </trkpt>
      <trkpt lat="47.560570" lon="8.061926">
        <ele>318.707942</ele>
        <time>2021-11-21T12:58:55.241Z</time>
      </trkpt>
      <trkpt lat="47.560765" lon="8.062729">
        <ele>319.116593</ele>
        <time>2021-11-21T12:59:05.411Z</time>
      </trkpt>
      <trkpt lat="47.560673" lon="8.062786">
        <ele>319.192160</ele>
        <time>2021-11-21T12:59:07.783Z</time>
      </trkpt>
      <trkpt lat="47.560580" lon="8.062890">
        <ele>319.280451</ele>
        <time>2021-11-21T12:59:10.521Z</time>
      </trkpt>
      <trkpt lat="47.560545" lon="8.062928">
        <ele>319.313332</ele>
        <time>2021-11-21T12:59:11.310Z</time>
      </trkpt>
      <trkpt lat="47.560443" lon="8.063042">
        <ele>319.410148</ele>
        <time>2021-11-21T12:59:13.733Z</time>
      </trkpt>
      <trkpt lat="47.560335" lon="8.063169">
        <ele>319.514629</ele>
        <time>2021-11-21T12:59:16.329Z</time>
      </trkpt>
      <trkpt lat="47.560392" lon="8.063300">
        <ele>319.594338</ele>
        <time>2021-11-21T12:59:18.176Z</time>
      </trkpt>
      <trkpt lat="47.560719" lon="8.063873">
        <ele>319.978093</ele>
        <time>2021-11-21T12:59:27.488Z</time>
      </trkpt>
      <trkpt lat="47.560806" lon="8.064037">
        <ele>320.084770</ele>
        <time>2021-11-21T12:59:29.991Z</time>
      </trkpt>
      <trkpt lat="47.560887" lon="8.064271">
        <ele>320.219258</ele>
        <time>2021-11-21T12:59:33.121Z</time>
      </trkpt>
      <trkpt lat="47.561017" lon="8.064820">
        <ele>320.316727</ele>
        <time>2021-11-21T12:59:39.735Z</time>
      </trkpt>
      <trkpt lat="47.561108" lon="8.065242">
        <ele>320.335766</ele>
        <time>2021-11-21T12:59:43.978Z</time>
      </trkpt>
      <trkpt lat="47.561253" lon="8.066385">
        <ele>320.385750</ele>
        <time>2021-11-21T12:59:54.971Z</time>
      </trkpt>
      <trkpt lat="47.561276" lon="8.067022">
        <ele>320.417481</ele>
        <time>2021-11-21T13:00:01.223Z</time>
      </trkpt>
      <trkpt lat="47.561265" lon="8.067435">
        <ele>320.751712</ele>
        <time>2021-11-21T13:00:05.605Z</time>
      </trkpt>
      <trkpt lat="47.561229" lon="8.067903">
        <ele>321.132610</ele>
        <time>2021-11-21T13:00:11.349Z</time>
      </trkpt>
      <trkpt lat="47.561187" lon="8.068256">
        <ele>321.422465</ele>
        <time>2021-11-21T13:00:15.755Z</time>
      </trkpt>
      <trkpt lat="47.561130" lon="8.068650">
        <ele>321.748312</ele>
        <time>2021-11-21T13:00:20.998Z</time>
      </trkpt>
      <trkpt lat="47.560998" lon="8.069237">
        <ele>322.248653</ele>
        <time>2021-11-21T13:00:30.145Z</time>
      </trkpt>
      <trkpt lat="47.560904" lon="8.069780">
        <ele>322.823900</ele>
        <time>2021-11-21T13:00:39.105Z</time>
      </trkpt>
      <trkpt lat="47.560864" lon="8.070015">
        <ele>323.198693</ele>
        <time>2021-11-21T13:00:43.137Z</time>
      </trkpt>
      <trkpt lat="47.560739" lon="8.070551">
        <ele>324.075680</ele>
        <time>2021-11-21T13:00:52.751Z</time>
      </trkpt>
      <trkpt lat="47.560584" lon="8.070919">
        <ele>324.746523</ele>
        <time>2021-11-21T13:01:00.064Z</time>
      </trkpt>
      <trkpt lat="47.560553" lon="8.071099">
        <ele>325.033803</ele>
        <time>2021-11-21T13:01:03.256Z</time>
      </trkpt>
      <trkpt lat="47.560524" lon="8.071179">
        <ele>325.174238</ele>
        <time>2021-11-21T13:01:05.016Z</time>
      </trkpt>
      <trkpt lat="47.560318" lon="8.072316">
        <ele>326.901157</ele>
        <time>2021-11-21T13:01:23.917Z</time>
      </trkpt>
      <trkpt lat="47.559811" lon="8.074398">
        <ele>329.271745</ele>
        <time>2021-11-21T13:01:54.757Z</time>
      </trkpt>
      <trkpt lat="47.559426" lon="8.075372">
        <ele>330.470673</ele>
        <time>2021-11-21T13:02:10.207Z</time>
      </trkpt>
      <trkpt lat="47.559046" lon="8.076086">
        <ele>331.434155</ele>
        <time>2021-11-21T13:02:23.231Z</time>
      </trkpt>
      <trkpt lat="47.558613" lon="8.076826">
        <ele>332.435847</ele>
        <time>2021-11-21T13:02:37.814Z</time>
      </trkpt>
      <trkpt lat="47.557793" lon="8.078299">
        <ele>333.750557</ele>
        <time>2021-11-21T13:03:05.572Z</time>
      </trkpt>
      <trkpt lat="47.557256" lon="8.079416">
        <ele>332.971754</ele>
        <time>2021-11-21T13:03:17.420Z</time>
      </trkpt>
      <trkpt lat="47.557099" lon="8.079786">
        <ele>332.216326</ele>
        <time>2021-11-21T13:03:20.658Z</time>
      </trkpt>
      <trkpt lat="47.556853" lon="8.080477">
        <ele>330.865982</ele>
        <time>2021-11-21T13:03:26.044Z</time>
      </trkpt>
      <trkpt lat="47.556470" lon="8.081563">
        <ele>327.924165</ele>
        <time>2021-11-21T13:03:34.059Z</time>
      </trkpt>
      <trkpt lat="47.556083" lon="8.083354">
        <ele>321.520456</ele>
        <time>2021-11-21T13:03:45.863Z</time>
      </trkpt>
      <trkpt lat="47.555956" lon="8.084115">
        <ele>319.012886</ele>
        <time>2021-11-21T13:03:50.866Z</time>
      </trkpt>
      <trkpt lat="47.555899" lon="8.084472">
        <ele>317.884682</ele>
        <time>2021-11-21T13:03:53.186Z</time>
      </trkpt>
      <trkpt lat="47.555764" lon="8.085769">
        <ele>313.848798</ele>
        <time>2021-11-21T13:04:01.650Z</time>
      </trkpt>
      <trkpt lat="47.555733" lon="8.086819">
        <ele>311.918843</ele>
        <time>2021-11-21T13:04:08.579Z</time>
      </trkpt>
      <trkpt lat="47.555737" lon="8.087083">
        <ele>311.725593</ele>
        <time>2021-11-21T13:04:10.377Z</time>
      </trkpt>
      <trkpt lat="47.555780" lon="8.087557">
        <ele>311.375587</ele>
        <time>2021-11-21T13:04:13.867Z</time>
      </trkpt>
      <trkpt lat="47.555809" lon="8.087783">
        <ele>311.207232</ele>
        <time>2021-11-21T13:04:16.302Z</time>
      </trkpt>
      <trkpt lat="47.555829" lon="8.087941">
        <ele>311.089587</ele>
        <time>2021-11-21T13:04:17.899Z</time>
      </trkpt>
      <trkpt lat="47.555887" lon="8.088299">
        <ele>310.820151</ele>
        <time>2021-11-21T13:04:21.463Z</time>
      </trkpt>
      <trkpt lat="47.555939" lon="8.088552">
        <ele>310.626603</ele>
        <time>2021-11-21T13:04:24.259Z</time>
      </trkpt>
      <trkpt lat="47.555991" lon="8.088778">
        <ele>310.451863</ele>
        <time>2021-11-21T13:04:27.694Z</time>
      </trkpt>
      <trkpt lat="47.555997" lon="8.088801">
        <ele>310.433817</ele>
        <time>2021-11-21T13:04:28.287Z</time>
      </trkpt>
      <trkpt lat="47.556065" lon="8.089084">
        <ele>310.991884</ele>
        <time>2021-11-21T13:04:32.579Z</time>
      </trkpt>
      <trkpt lat="47.556111" lon="8.089266">
        <ele>311.536444</ele>
        <time>2021-11-21T13:04:36.387Z</time>
      </trkpt>
      <trkpt lat="47.556151" lon="8.089459">
        <ele>312.102161</ele>
        <time>2021-11-21T13:04:41.030Z</time>
      </trkpt>
      <trkpt lat="47.556137" lon="8.089730">
        <ele>312.863730</ele>
        <time>2021-11-21T13:04:46.248Z</time>
      </trkpt>
      <trkpt lat="47.556110" lon="8.089809">
        <ele>313.111858</ele>
        <time>2021-11-21T13:04:48.520Z</time>
      </trkpt>
      <trkpt lat="47.556193" lon="8.089926">
        <ele>313.587499</ele>
        <time>2021-11-21T13:04:52.497Z</time>
      </trkpt>
      <trkpt lat="47.556259" lon="8.090058">
        <ele>314.047817</ele>
        <time>2021-11-21T13:04:55.540Z</time>
      </trkpt>
      <trkpt lat="47.556527" lon="8.090721">
        <ele>316.213301</ele>
        <time>2021-11-21T13:05:13.796Z</time>
      </trkpt>
      <trkpt lat="47.556692" lon="8.091113">
        <ele>317.507816</ele>
        <time>2021-11-21T13:05:25.579Z</time>
      </trkpt>
      <trkpt lat="47.556850" lon="8.091457">
        <ele>318.726843</ele>
        <time>2021-11-21T13:05:36.088Z</time>
      </trkpt>
      <trkpt lat="47.557677" lon="8.092776">
        <ele>324.093876</ele>
        <time>2021-11-21T13:06:16.141Z</time>
      </trkpt>
      <trkpt lat="47.558531" lon="8.094661">
        <ele>330.392731</ele>
        <time>2021-11-21T13:06:59.324Z</time>
      </trkpt>
      <trkpt lat="47.558776" lon="8.095210">
        <ele>332.173343</ele>
        <time>2021-11-21T13:07:13.662Z</time>
      </trkpt>
      <trkpt lat="47.558857" lon="8.095293">
        <ele>332.568137</ele>
        <time>2021-11-21T13:07:18.485Z</time>
      </trkpt>
      <trkpt lat="47.558983" lon="8.095482">
        <ele>333.389521</ele>
        <time>2021-11-21T13:07:25.221Z</time>
      </trkpt>
      <trkpt lat="47.559606" lon="8.096837">
        <ele>339.404553</ele>
        <time>2021-11-21T13:08:14.165Z</time>
      </trkpt>
      <trkpt lat="47.560171" lon="8.097877">
        <ele>343.332956</ele>
        <time>2021-11-21T13:08:51.960Z</time>
      </trkpt>
      <trkpt lat="47.560787" lon="8.098864">
        <ele>345.131160</ele>
        <time>2021-11-21T13:09:20.207Z</time>
      </trkpt>
      <trkpt lat="47.561466" lon="8.099697">
        <ele>345.565403</ele>
        <time>2021-11-21T13:09:36.497Z</time>
      </trkpt>
      <trkpt lat="47.562207" lon="8.100413">
        <ele>343.029433</ele>
        <time>2021-11-21T13:09:49.089Z</time>
      </trkpt>
      <trkpt lat="47.563031" lon="8.100935">
        <ele>340.524906</ele>
        <time>2021-11-21T13:10:01.992Z</time>
      </trkpt>
      <trkpt lat="47.563202" lon="8.101042">
        <ele>340.040122</ele>
        <time>2021-11-21T13:10:04.579Z</time>
      </trkpt>
      <trkpt lat="47.564165" lon="8.101615">
        <ele>337.329876</ele>
        <time>2021-11-21T13:10:15.541Z</time>
      </trkpt>
      <trkpt lat="47.565727" lon="8.102512">
        <ele>333.930136</ele>
        <time>2021-11-21T13:10:34.729Z</time>
      </trkpt>
      <trkpt lat="47.566684" lon="8.102974">
        <ele>331.662008</ele>
        <time>2021-11-21T13:10:45.330Z</time>
      </trkpt>
      <trkpt lat="47.567683" lon="8.103272">
        <ele>329.071519</ele>
        <time>2021-11-21T13:10:55.950Z</time>
      </trkpt>
      <trkpt lat="47.569557" lon="8.103677">
        <ele>324.323965</ele>
        <time>2021-11-21T13:11:16.182Z</time>
      </trkpt>
      <trkpt lat="47.570159" lon="8.103813">
        <ele>322.071649</ele>
        <time>2021-11-21T13:11:22.486Z</time>
      </trkpt>
      <trkpt lat="47.570286" lon="8.103898">
        <ele>321.513673</ele>
        <time>2021-11-21T13:11:23.865Z</time>
      </trkpt>
      <trkpt lat="47.570517" lon="8.104111">
        <ele>320.424320</ele>
        <time>2021-11-21T13:11:26.429Z</time>
      </trkpt>
      <trkpt lat="47.570786" lon="8.104202">
        <ele>319.319493</ele>
        <time>2021-11-21T13:11:29.019Z</time>
      </trkpt>
      <trkpt lat="47.570863" lon="8.104203">
        <ele>319.011158</ele>
        <time>2021-11-21T13:11:29.774Z</time>
      </trkpt>
      <trkpt lat="47.571140" lon="8.104418">
        <ele>317.759119</ele>
        <time>2021-11-21T13:11:32.733Z</time>
      </trkpt>
      <trkpt lat="47.571149" lon="8.104460">
        <ele>317.640069</ele>
        <time>2021-11-21T13:11:33.048Z</time>
      </trkpt>
      <trkpt lat="47.571165" lon="8.104498">
        <ele>317.519060</ele>
        <time>2021-11-21T13:11:33.385Z</time>
      </trkpt>
      <trkpt lat="47.571190" lon="8.104530">
        <ele>317.386793</ele>
        <time>2021-11-21T13:11:33.701Z</time>
      </trkpt>
      <trkpt lat="47.571252" lon="8.104556">
        <ele>317.128788</ele>
        <time>2021-11-21T13:11:34.342Z</time>
      </trkpt>
      <trkpt lat="47.571285" lon="8.104547">
        <ele>316.994431</ele>
        <time>2021-11-21T13:11:34.659Z</time>
      </trkpt>
      <trkpt lat="47.571319" lon="8.104520">
        <ele>316.839980</ele>
        <time>2021-11-21T13:11:35.023Z</time>
      </trkpt>
      <trkpt lat="47.571345" lon="8.104476">
        <ele>316.745727</ele>
        <time>2021-11-21T13:11:35.387Z</time>
      </trkpt>
      <trkpt lat="47.571404" lon="8.104462">
        <ele>316.623890</ele>
        <time>2021-11-21T13:11:35.928Z</time>
      </trkpt>
      <trkpt lat="47.571506" lon="8.104457">
        <ele>316.415791</ele>
        <time>2021-11-21T13:11:36.974Z</time>
      </trkpt>
      <trkpt lat="47.571606" lon="8.104456">
        <ele>316.211879</ele>
        <time>2021-11-21T13:11:37.951Z</time>
      </trkpt>
      <trkpt lat="47.571788" lon="8.104486">
        <ele>315.838481</ele>
        <time>2021-11-21T13:11:39.654Z</time>
      </trkpt>
      <trkpt lat="47.572479" lon="8.104559">
        <ele>314.425910</ele>
        <time>2021-11-21T13:11:47.024Z</time>
      </trkpt>
      <trkpt lat="47.573291" lon="8.104448">
        <ele>313.477459</ele>
        <time>2021-11-21T13:11:58.458Z</time>
      </trkpt>
      <trkpt lat="47.573366" lon="8.104434">
        <ele>313.612172</ele>
        <time>2021-11-21T13:12:00.926Z</time>
      </trkpt>
      <trkpt lat="47.573446" lon="8.104418">
        <ele>313.756032</ele>
        <time>2021-11-21T13:12:03.178Z</time>
      </trkpt>
      <trkpt lat="47.573480" lon="8.104411">
        <ele>313.817205</ele>
        <time>2021-11-21T13:12:04.047Z</time>
      </trkpt>
      <trkpt lat="47.573668" lon="8.104380">
        <ele>314.154306</ele>
        <time>2021-11-21T13:12:07.852Z</time>
      </trkpt>
      <trkpt lat="47.573831" lon="8.104354">
        <ele>314.446466</ele>
        <time>2021-11-21T13:12:12.709Z</time>
      </trkpt>
      <trkpt lat="47.574232" lon="8.104312">
        <ele>315.162869</ele>
        <time>2021-11-21T13:12:22.398Z</time>
      </trkpt>
      <trkpt lat="47.574708" lon="8.104323">
        <ele>316.011252</ele>
        <time>2021-11-21T13:12:33.403Z</time>
      </trkpt>
      <trkpt lat="47.574899" lon="8.104362">
        <ele>316.350717</ele>
        <time>2021-11-21T13:12:38.965Z</time>
      </trkpt>
      <trkpt lat="47.575253" lon="8.104463">
        <ele>316.478837</ele>
        <time>2021-11-21T13:12:46.129Z</time>
      </trkpt>
      <trkpt lat="47.576181" lon="8.104949">
        <ele>316.828624</ele>
        <time>2021-11-21T13:13:00.700Z</time>
      </trkpt>
      <trkpt lat="47.576601" lon="8.105189">
        <ele>316.988598</ele>
        <time>2021-11-21T13:13:06.572Z</time>
      </trkpt>
      <trkpt lat="47.576841" lon="8.105315">
        <ele>317.068660</ele>
        <time>2021-11-21T13:13:09.948Z</time>
      </trkpt>
      <trkpt lat="47.577500" lon="8.105730">
        <ele>317.293704</ele>
        <time>2021-11-21T13:13:20.427Z</time>
      </trkpt>
      <trkpt lat="47.578068" lon="8.106263">
        <ele>317.504992</ele>
        <time>2021-11-21T13:13:31.939Z</time>
      </trkpt>
      <trkpt lat="47.578187" lon="8.106429">
        <ele>317.565792</ele>
        <time>2021-11-21T13:13:35.144Z</time>
      </trkpt>
      <trkpt lat="47.578335" lon="8.106654">
        <ele>317.931261</ele>
        <time>2021-11-21T13:13:39.301Z</time>
      </trkpt>
      <trkpt lat="47.579759" lon="8.109482">
        <ele>322.176765</ele>
        <time>2021-11-21T13:14:32.758Z</time>
      </trkpt>
      <trkpt lat="47.579823" lon="8.109617">
        <ele>322.388327</ele>
        <time>2021-11-21T13:14:35.572Z</time>
      </trkpt>
      <trkpt lat="47.579991" lon="8.109948">
        <ele>322.919435</ele>
        <time>2021-11-21T13:14:41.547Z</time>
      </trkpt>
      <trkpt lat="47.580212" lon="8.110399">
        <ele>323.634154</ele>
        <time>2021-11-21T13:14:49.729Z</time>
      </trkpt>
      <trkpt lat="47.580364" lon="8.110708">
        <ele>324.139541</ele>
        <time>2021-11-21T13:14:55.540Z</time>
      </trkpt>
      <trkpt lat="47.580670" lon="8.111332">
        <ele>325.422080</ele>
        <time>2021-11-21T13:15:07.427Z</time>
      </trkpt>
      <trkpt lat="47.581045" lon="8.112180">
        <ele>327.107785</ele>
        <time>2021-11-21T13:15:23.726Z</time>
      </trkpt>
      <trkpt lat="47.581182" lon="8.112552">
        <ele>327.812385</ele>
        <time>2021-11-21T13:15:31.168Z</time>
      </trkpt>
      <trkpt lat="47.581277" lon="8.112870">
        <ele>328.390571</ele>
        <time>2021-11-21T13:15:37.599Z</time>
      </trkpt>
      <trkpt lat="47.581391" lon="8.113276">
        <ele>329.322743</ele>
        <time>2021-11-21T13:15:46.532Z</time>
      </trkpt>
      <trkpt lat="47.581427" lon="8.113428">
        <ele>329.678113</ele>
        <time>2021-11-21T13:15:49.643Z</time>
      </trkpt>
      <trkpt lat="47.581503" lon="8.113781">
        <ele>330.495510</ele>
        <time>2021-11-21T13:15:57.099Z</time>
      </trkpt>
      <trkpt lat="47.581610" lon="8.114392">
        <ele>331.888016</ele>
        <time>2021-11-21T13:16:09.420Z</time>
      </trkpt>
      <trkpt lat="47.581698" lon="8.115075">
        <ele>333.421902</ele>
        <time>2021-11-21T13:16:22.460Z</time>
      </trkpt>
      <trkpt lat="47.581747" lon="8.115421">
        <ele>334.201791</ele>
        <time>2021-11-21T13:16:28.932Z</time>
      </trkpt>
      <trkpt lat="47.581851" lon="8.116146">
        <ele>335.411660</ele>
        <time>2021-11-21T13:16:41.594Z</time>
      </trkpt>
      <trkpt lat="47.582058" lon="8.118074">
        <ele>338.453799</ele>
        <time>2021-11-21T13:17:10.586Z</time>
      </trkpt>
      <trkpt lat="47.581997" lon="8.119489">
        <ele>341.997647</ele>
        <time>2021-11-21T13:17:37.800Z</time>
      </trkpt>
      <trkpt lat="47.581925" lon="8.120891">
        <ele>345.406769</ele>
        <time>2021-11-21T13:18:10.152Z</time>
      </trkpt>
      <trkpt lat="47.581872" lon="8.121939">
        <ele>346.375423</ele>
        <time>2021-11-21T13:18:30.760Z</time>
      </trkpt>
      <trkpt lat="47.581853" lon="8.122293">
        <ele>346.702737</ele>
        <time>2021-11-21T13:18:36.503Z</time>
      </trkpt>
      <trkpt lat="47.581616" lon="8.126107">
        <ele>344.430065</ele>
        <time>2021-11-21T13:19:06.112Z</time>
      </trkpt>
      <trkpt lat="47.581682" lon="8.126961">
        <ele>343.169278</ele>
        <time>2021-11-21T13:19:11.706Z</time>
      </trkpt>
      <trkpt lat="47.581995" lon="8.128036">
        <ele>341.451922</ele>
        <time>2021-11-21T13:19:20.044Z</time>
      </trkpt>
      <trkpt lat="47.582054" lon="8.128175">
        <ele>341.211041</ele>
        <time>2021-11-21T13:19:21.232Z</time>
      </trkpt>
      <trkpt lat="47.582271" lon="8.128732">
        <ele>340.676406</ele>
        <time>2021-11-21T13:19:27.238Z</time>
      </trkpt>
      <trkpt lat="47.582333" lon="8.128926">
        <ele>340.864756</ele>
        <time>2021-11-21T13:19:29.884Z</time>
      </trkpt>
      <trkpt lat="47.582383" lon="8.129121">
        <ele>341.047790</ele>
        <time>2021-11-21T13:19:31.837Z</time>
      </trkpt>
      <trkpt lat="47.582452" lon="8.129518">
        <ele>341.407487</ele>
        <time>2021-11-21T13:19:37.374Z</time>
      </trkpt>
      <trkpt lat="47.582476" lon="8.129918">
        <ele>341.759824</ele>
        <time>2021-11-21T13:19:42.879Z</time>
      </trkpt>
      <trkpt lat="47.582502" lon="8.130347">
        <ele>342.137736</ele>
        <time>2021-11-21T13:19:49.347Z</time>
      </trkpt>
      <trkpt lat="47.582401" lon="8.132729">
        <ele>343.062907</ele>
        <time>2021-11-21T13:20:28.864Z</time>
      </trkpt>
      <trkpt lat="47.582405" lon="8.133220">
        <ele>343.125844</ele>
        <time>2021-11-21T13:20:32.750Z</time>
      </trkpt>
      <trkpt lat="47.582445" lon="8.133813">
        <ele>343.202228</ele>
        <time>2021-11-21T13:20:36.979Z</time>
      </trkpt>
      <trkpt lat="47.582702" lon="8.135441">
        <ele>337.186901</ele>
        <time>2021-11-21T13:20:47.619Z</time>
      </trkpt>
      <trkpt lat="47.583161" lon="8.137044">
        <ele>330.902083</ele>
        <time>2021-11-21T13:20:58.170Z</time>
      </trkpt>
      <trkpt lat="47.583437" lon="8.137880">
        <ele>327.585091</ele>
        <time>2021-11-21T13:21:03.946Z</time>
      </trkpt>
      <trkpt lat="47.583514" lon="8.138100">
        <ele>326.701812</ele>
        <time>2021-11-21T13:21:05.530Z</time>
      </trkpt>
      <trkpt lat="47.583879" lon="8.139148">
        <ele>323.780433</ele>
        <time>2021-11-21T13:21:13.474Z</time>
      </trkpt>
      <trkpt lat="47.584040" lon="8.139585">
        <ele>323.529126</ele>
        <time>2021-11-21T13:21:17.225Z</time>
      </trkpt>
      <trkpt lat="47.584064" lon="8.139642">
        <ele>323.495214</ele>
        <time>2021-11-21T13:21:17.809Z</time>
      </trkpt>
      <trkpt lat="47.585261" lon="8.142529">
        <ele>322.655604</ele>
        <time>2021-11-21T13:21:56.204Z</time>
      </trkpt>
      <trkpt lat="47.585413" lon="8.142895">
        <ele>322.657996</ele>
        <time>2021-11-21T13:21:59.911Z</time>
      </trkpt>
      <trkpt lat="47.585796" lon="8.143867">
        <ele>322.443311</ele>
        <time>2021-11-21T13:22:09.555Z</time>
      </trkpt>
      <trkpt lat="47.585856" lon="8.144060">
        <ele>322.365613</ele>
        <time>2021-11-21T13:22:10.909Z</time>
      </trkpt>
      <trkpt lat="47.585989" lon="8.144423">
        <ele>322.214579</ele>
        <time>2021-11-21T13:22:16.779Z</time>
      </trkpt>
      <trkpt lat="47.586002" lon="8.144470">
        <ele>322.196007</ele>
        <time>2021-11-21T13:22:17.073Z</time>
      </trkpt>
      <trkpt lat="47.586071" lon="8.144677">
        <ele>322.111588</ele>
        <time>2021-11-21T13:22:19.778Z</time>
      </trkpt>
      <trkpt lat="47.586082" lon="8.144714">
        <ele>322.096804</ele>
        <time>2021-11-21T13:22:20.779Z</time>
      </trkpt>
      <trkpt lat="47.586191" lon="8.145057">
        <ele>321.958178</ele>
        <time>2021-11-21T13:22:23.352Z</time>
      </trkpt>
      <trkpt lat="47.586286" lon="8.145363">
        <ele>321.835019</ele>
        <time>2021-11-21T13:22:29.604Z</time>
      </trkpt>
      <trkpt lat="47.586304" lon="8.145415">
        <ele>321.813650</ele>
        <time>2021-11-21T13:22:29.951Z</time>
      </trkpt>
      <trkpt lat="47.586444" lon="8.145833">
        <ele>321.863517</ele>
        <time>2021-11-21T13:22:35.650Z</time>
      </trkpt>
      <trkpt lat="47.586480" lon="8.145943">
        <ele>322.048281</ele>
        <time>2021-11-21T13:22:36.399Z</time>
      </trkpt>
      <trkpt lat="47.586747" lon="8.146748">
        <ele>323.403901</ele>
        <time>2021-11-21T13:22:48.251Z</time>
      </trkpt>
      <trkpt lat="47.586812" lon="8.146941">
        <ele>323.729894</ele>
        <time>2021-11-21T13:22:49.786Z</time>
      </trkpt>
      <trkpt lat="47.586874" lon="8.147126">
        <ele>324.042068</ele>
        <time>2021-11-21T13:22:55.505Z</time>
      </trkpt>
      <trkpt lat="47.587271" lon="8.148318">
        <ele>326.563704</ele>
        <time>2021-11-21T13:23:22.748Z</time>
      </trkpt>
      <trkpt lat="47.587348" lon="8.148547">
        <ele>327.541871</ele>
        <time>2021-11-21T13:23:29.168Z</time>
      </trkpt>
      <trkpt lat="47.587422" lon="8.148776">
        <ele>328.512570</ele>
        <time>2021-11-21T13:23:34.949Z</time>
      </trkpt>
      <trkpt lat="47.587515" lon="8.149064">
        <ele>329.733200</ele>
        <time>2021-11-21T13:23:44.127Z</time>
      </trkpt>
      <trkpt lat="47.587893" lon="8.150269">
        <ele>334.813444</ele>
        <time>2021-11-21T13:24:19.075Z</time>
      </trkpt>
      <trkpt lat="47.588139" lon="8.151059">
        <ele>337.460835</ele>
        <time>2021-11-21T13:24:42.987Z</time>
      </trkpt>
      <trkpt lat="47.588281" lon="8.151539">
        <ele>338.854360</ele>
        <time>2021-11-21T13:24:55.377Z</time>
      </trkpt>
      <trkpt lat="47.588498" lon="8.152664">
        <ele>341.965267</ele>
        <time>2021-11-21T13:25:19.693Z</time>
      </trkpt>
      <trkpt lat="47.588556" lon="8.153527">
        <ele>342.287210</ele>
        <time>2021-11-21T13:25:29.210Z</time>
      </trkpt>
      <trkpt lat="47.588564" lon="8.154322">
        <ele>341.100679</ele>
        <time>2021-11-21T13:25:35.437Z</time>
      </trkpt>
      <trkpt lat="47.588527" lon="8.156347">
        <ele>338.008916</ele>
        <time>2021-11-21T13:25:48.737Z</time>
      </trkpt>
      <trkpt lat="47.588525" lon="8.156604">
        <ele>337.597423</ele>
        <time>2021-11-21T13:25:50.374Z</time>
      </trkpt>
      <trkpt lat="47.588519" lon="8.157044">
        <ele>336.892825</ele>
        <time>2021-11-21T13:25:53.222Z</time>
      </trkpt>
      <trkpt lat="47.588513" lon="8.157629">
        <ele>335.956112</ele>
        <time>2021-11-21T13:25:57.208Z</time>
      </trkpt>
      <trkpt lat="47.588496" lon="8.162682">
        <ele>337.376787</ele>
        <time>2021-11-21T13:27:05.303Z</time>
      </trkpt>
      <trkpt lat="47.588650" lon="8.165152">
        <ele>336.343076</ele>
        <time>2021-11-21T13:27:26.423Z</time>
      </trkpt>
      <trkpt lat="47.588804" lon="8.166249">
        <ele>335.298231</ele>
        <time>2021-11-21T13:27:34.599Z</time>
      </trkpt>
      <trkpt lat="47.588886" lon="8.166773">
        <ele>334.886791</ele>
        <time>2021-11-21T13:27:38.602Z</time>
      </trkpt>
      <trkpt lat="47.588936" lon="8.167065">
        <ele>334.667767</ele>
        <time>2021-11-21T13:27:40.825Z</time>
      </trkpt>
      <trkpt lat="47.589090" lon="8.168074">
        <ele>333.915663</ele>
        <time>2021-11-21T13:27:48.614Z</time>
      </trkpt>
      <trkpt lat="47.589109" lon="8.168214">
        <ele>333.811841</ele>
        <time>2021-11-21T13:27:49.937Z</time>
      </trkpt>
      <trkpt lat="47.589149" lon="8.168412">
        <ele>333.661574</ele>
        <time>2021-11-21T13:27:51.595Z</time>
      </trkpt>
      <trkpt lat="47.589265" lon="8.169049">
        <ele>333.413651</ele>
        <time>2021-11-21T13:27:59.041Z</time>
      </trkpt>
      <trkpt lat="47.589280" lon="8.169122">
        <ele>333.509294</ele>
        <time>2021-11-21T13:28:00.204Z</time>
      </trkpt>
      <trkpt lat="47.589338" lon="8.169503">
        <ele>333.998812</ele>
        <time>2021-11-21T13:28:06.088Z</time>
      </trkpt>
      <trkpt lat="47.589422" lon="8.169985">
        <ele>334.622741</ele>
        <time>2021-11-21T13:28:13.575Z</time>
      </trkpt>
      <trkpt lat="47.589432" lon="8.170029">
        <ele>334.680932</ele>
        <time>2021-11-21T13:28:14.254Z</time>
      </trkpt>
      <trkpt lat="47.589507" lon="8.170514">
        <ele>335.304552</ele>
        <time>2021-11-21T13:28:22.073Z</time>
      </trkpt>
      <trkpt lat="47.589603" lon="8.171150">
        <ele>336.121363</ele>
        <time>2021-11-21T13:28:32.149Z</time>
      </trkpt>
      <trkpt lat="47.589628" lon="8.171343">
        <ele>336.367668</ele>
        <time>2021-11-21T13:28:35.320Z</time>
      </trkpt>
      <trkpt lat="47.589692" lon="8.171703">
        <ele>336.904757</ele>
        <time>2021-11-21T13:28:41.875Z</time>
      </trkpt>
      <trkpt lat="47.589753" lon="8.172071">
        <ele>337.528546</ele>
        <time>2021-11-21T13:28:48.463Z</time>
      </trkpt>
      <trkpt lat="47.589801" lon="8.172357">
        <ele>338.013685</ele>
        <time>2021-11-21T13:28:54.226Z</time>
      </trkpt>
      <trkpt lat="47.589842" lon="8.172596">
        <ele>338.419627</ele>
        <time>2021-11-21T13:28:58.488Z</time>
      </trkpt>
      <trkpt lat="47.589911" lon="8.172969">
        <ele>339.056293</ele>
        <time>2021-11-21T13:29:05.584Z</time>
      </trkpt>
      <trkpt lat="47.589945" lon="8.173167">
        <ele>339.392616</ele>
        <time>2021-11-21T13:29:09.035Z</time>
      </trkpt>
      <trkpt lat="47.589895" lon="8.173206">
        <ele>339.530506</ele>
        <time>2021-11-21T13:29:10.624Z</time>
      </trkpt>
      <trkpt lat="47.589843" lon="8.173241">
        <ele>339.669887</ele>
        <time>2021-11-21T13:29:12.073Z</time>
      </trkpt>
      <trkpt lat="47.589770" lon="8.173440">
        <ele>340.042778</ele>
        <time>2021-11-21T13:29:15.787Z</time>
      </trkpt>
      <trkpt lat="47.589693" lon="8.173800">
        <ele>340.664457</ele>
        <time>2021-11-21T13:29:21.867Z</time>
      </trkpt>
      <trkpt lat="47.589501" lon="8.174623">
        <ele>341.100722</ele>
        <time>2021-11-21T13:29:32.936Z</time>
      </trkpt>
      <trkpt lat="47.589478" lon="8.175262">
        <ele>341.197978</ele>
        <time>2021-11-21T13:29:40.572Z</time>
      </trkpt>
      <trkpt lat="47.589490" lon="8.175383">
        <ele>341.216566</ele>
        <time>2021-11-21T13:29:42.472Z</time>
      </trkpt>
      <trkpt lat="47.589490" lon="8.175383">
        <ele>341.216566</ele>
        <time>2021-11-21T13:29:42.491Z</time>
      </trkpt>
      <trkpt lat="47.589490" lon="8.175383">
        <ele>341.216566</ele>
        <time>2021-11-21T13:29:42.671Z</time>
      </trkpt>
      <trkpt lat="47.589515" lon="8.175608">
        <ele>341.251223</ele>
        <time>2021-11-21T13:29:44.593Z</time>
      </trkpt>
      <trkpt lat="47.589566" lon="8.176002">
        <ele>341.312198</ele>
        <time>2021-11-21T13:29:48.583Z</time>
      </trkpt>
      <trkpt lat="47.589591" lon="8.176143">
        <ele>341.334355</ele>
        <time>2021-11-21T13:29:49.660Z</time>
      </trkpt>
      <trkpt lat="47.589977" lon="8.177608">
        <ele>340.515603</ele>
        <time>2021-11-21T13:30:02.356Z</time>
      </trkpt>
      <trkpt lat="47.590057" lon="8.177917">
        <ele>340.250664</ele>
        <time>2021-11-21T13:30:04.810Z</time>
      </trkpt>
      <trkpt lat="47.590102" lon="8.178128">
        <ele>340.073524</ele>
        <time>2021-11-21T13:30:06.411Z</time>
      </trkpt>
      <trkpt lat="47.590215" lon="8.178972">
        <ele>339.384756</ele>
        <time>2021-11-21T13:30:13.353Z</time>
      </trkpt>
      <trkpt lat="47.590303" lon="8.179625">
        <ele>339.415422</ele>
        <time>2021-11-21T13:30:19.396Z</time>
      </trkpt>
      <trkpt lat="47.590351" lon="8.179884">
        <ele>339.490269</ele>
        <time>2021-11-21T13:30:22.149Z</time>
      </trkpt>
      <trkpt lat="47.590375" lon="8.179996">
        <ele>339.523015</ele>
        <time>2021-11-21T13:30:23.562Z</time>
      </trkpt>
      <trkpt lat="47.590434" lon="8.180243">
        <ele>339.596032</ele>
        <time>2021-11-21T13:30:26.314Z</time>
      </trkpt>
      <trkpt lat="47.590832" lon="8.181817">
        <ele>340.213667</ele>
        <time>2021-11-21T13:30:46.821Z</time>
      </trkpt>
      <trkpt lat="47.590880" lon="8.182008">
        <ele>340.435241</ele>
        <time>2021-11-21T13:30:49.794Z</time>
      </trkpt>
      <trkpt lat="47.591195" lon="8.183419">
        <ele>342.050922</ele>
        <time>2021-11-21T13:31:11.501Z</time>
      </trkpt>
      <trkpt lat="47.591305" lon="8.183971">
        <ele>342.676619</ele>
        <time>2021-11-21T13:31:20.190Z</time>
      </trkpt>
      <trkpt lat="47.591334" lon="8.184128">
        <ele>342.853571</ele>
        <time>2021-11-21T13:31:22.384Z</time>
      </trkpt>
      <trkpt lat="47.591379" lon="8.184371">
        <ele>343.219163</ele>
        <time>2021-11-21T13:31:26.160Z</time>
      </trkpt>
      <trkpt lat="47.591501" lon="8.185172">
        <ele>344.491734</ele>
        <time>2021-11-21T13:31:38.553Z</time>
      </trkpt>
      <trkpt lat="47.591518" lon="8.185304">
        <ele>344.699990</ele>
        <time>2021-11-21T13:31:41.041Z</time>
      </trkpt>
      <trkpt lat="47.591548" lon="8.185696">
        <ele>345.311370</ele>
        <time>2021-11-21T13:31:47.135Z</time>
      </trkpt>
      <trkpt lat="47.591545" lon="8.185909">
        <ele>345.641527</ele>
        <time>2021-11-21T13:31:50.979Z</time>
      </trkpt>
      <trkpt lat="47.591536" lon="8.186531">
        <ele>346.605660</ele>
        <time>2021-11-21T13:32:01.828Z</time>
      </trkpt>
      <trkpt lat="47.591523" lon="8.186704">
        <ele>346.875416</ele>
        <time>2021-11-21T13:32:04.831Z</time>
      </trkpt>
      <trkpt lat="47.591476" lon="8.187134">
        <ele>347.749478</ele>
        <time>2021-11-21T13:32:12.224Z</time>
      </trkpt>
      <trkpt lat="47.591345" lon="8.188163">
        <ele>350.011328</ele>
        <time>2021-11-21T13:32:30.023Z</time>
      </trkpt>
      <trkpt lat="47.591307" lon="8.188502">
        <ele>350.753600</ele>
        <time>2021-11-21T13:32:36.610Z</time>
      </trkpt>
      <trkpt lat="47.591268" lon="8.189184">
        <ele>352.231980</ele>
        <time>2021-11-21T13:32:50.117Z</time>
      </trkpt>
      <trkpt lat="47.591267" lon="8.189812">
        <ele>354.369615</ele>
        <time>2021-11-21T13:33:02.767Z</time>
      </trkpt>
      <trkpt lat="47.591278" lon="8.189994">
        <ele>355.158200</ele>
        <time>2021-11-21T13:33:06.961Z</time>
      </trkpt>
      <trkpt lat="47.591285" lon="8.190112">
        <ele>355.669406</ele>
        <time>2021-11-21T13:33:09.648Z</time>
      </trkpt>
      <trkpt lat="47.591368" lon="8.190744">
        <ele>358.448088</ele>
        <time>2021-11-21T13:33:26.009Z</time>
      </trkpt>
      <trkpt lat="47.591489" lon="8.191403">
        <ele>361.395570</ele>
        <time>2021-11-21T13:33:46.085Z</time>
      </trkpt>
      <trkpt lat="47.591703" lon="8.192411">
        <ele>366.248957</ele>
        <time>2021-11-21T13:34:21.506Z</time>
      </trkpt>
      <trkpt lat="47.591937" lon="8.193546">
        <ele>372.284986</ele>
        <time>2021-11-21T13:35:00.414Z</time>
      </trkpt>
      <trkpt lat="47.592186" lon="8.194589">
        <ele>377.893567</ele>
        <time>2021-11-21T13:35:32.054Z</time>
      </trkpt>
      <trkpt lat="47.592260" lon="8.194792">
        <ele>378.413900</ele>
        <time>2021-11-21T13:35:39.071Z</time>
      </trkpt>
      <trkpt lat="47.592364" lon="8.194991">
        <ele>378.981585</ele>
        <time>2021-11-21T13:35:43.909Z</time>
      </trkpt>
      <trkpt lat="47.592573" lon="8.195400">
        <ele>380.138675</ele>
        <time>2021-11-21T13:35:54.416Z</time>
      </trkpt>
      <trkpt lat="47.592631" lon="8.195513">
        <ele>380.458879</ele>
        <time>2021-11-21T13:35:57.107Z</time>
      </trkpt>
      <trkpt lat="47.592748" lon="8.196079">
        <ele>381.793744</ele>
        <time>2021-11-21T13:36:08.170Z</time>
      </trkpt>
      <trkpt lat="47.592733" lon="8.196307">
        <ele>382.310294</ele>
        <time>2021-11-21T13:36:12.245Z</time>
      </trkpt>
      <trkpt lat="47.592346" lon="8.197513">
        <ele>383.737535</ele>
        <time>2021-11-21T13:36:29.376Z</time>
      </trkpt>
      <trkpt lat="47.592326" lon="8.197660">
        <ele>383.700806</ele>
        <time>2021-11-21T13:36:31.567Z</time>
      </trkpt>
      <trkpt lat="47.592316" lon="8.197909">
        <ele>383.639713</ele>
        <time>2021-11-21T13:36:34.360Z</time>
      </trkpt>
      <trkpt lat="47.592345" lon="8.198120">
        <ele>383.586972</ele>
        <time>2021-11-21T13:36:36.021Z</time>
      </trkpt>
      <trkpt lat="47.592467" lon="8.199013">
        <ele>383.363814</ele>
        <time>2021-11-21T13:36:44.095Z</time>
      </trkpt>
      <trkpt lat="47.592515" lon="8.199406">
        <ele>383.265994</ele>
        <time>2021-11-21T13:36:47.268Z</time>
      </trkpt>
      <trkpt lat="47.592520" lon="8.199514">
        <ele>383.238828</ele>
        <time>2021-11-21T13:36:48.095Z</time>
      </trkpt>
      <trkpt lat="47.592521" lon="8.199660">
        <ele>382.846262</ele>
        <time>2021-11-21T13:36:49.047Z</time>
      </trkpt>
      <trkpt lat="47.592468" lon="8.200119">
        <ele>381.594202</ele>
        <time>2021-11-21T13:36:52.510Z</time>
      </trkpt>
      <trkpt lat="47.592354" lon="8.200494">
        <ele>380.488246</ele>
        <time>2021-11-21T13:36:55.317Z</time>
      </trkpt>
      <trkpt lat="47.592030" lon="8.200989">
        <ele>378.633570</ele>
        <time>2021-11-21T13:36:59.782Z</time>
      </trkpt>
      <trkpt lat="47.591683" lon="8.201242">
        <ele>377.091964</ele>
        <time>2021-11-21T13:37:03.351Z</time>
      </trkpt>
      <trkpt lat="47.590598" lon="8.201738">
        <ele>371.320109</ele>
        <time>2021-11-21T13:37:13.958Z</time>
      </trkpt>
      <trkpt lat="47.590444" lon="8.201859">
        <ele>370.378289</ele>
        <time>2021-11-21T13:37:15.573Z</time>
      </trkpt>
      <trkpt lat="47.590356" lon="8.201937">
        <ele>369.824256</ele>
        <time>2021-11-21T13:37:16.495Z</time>
      </trkpt>
      <trkpt lat="47.589912" lon="8.202359">
        <ele>366.974305</ele>
        <time>2021-11-21T13:37:21.448Z</time>
      </trkpt>
      <trkpt lat="47.589702" lon="8.202598">
        <ele>365.708313</ele>
        <time>2021-11-21T13:37:23.896Z</time>
      </trkpt>
      <trkpt lat="47.589482" lon="8.202879">
        <ele>364.459834</ele>
        <time>2021-11-21T13:37:26.578Z</time>
      </trkpt>
      <trkpt lat="47.589372" lon="8.203042">
        <ele>363.791180</ele>
        <time>2021-11-21T13:37:28.087Z</time>
      </trkpt>
      <trkpt lat="47.588922" lon="8.203709">
        <ele>361.055399</ele>
        <time>2021-11-21T13:37:34.221Z</time>
      </trkpt>
      <trkpt lat="47.588784" lon="8.203936">
        <ele>360.169194</ele>
        <time>2021-11-21T13:37:36.230Z</time>
      </trkpt>
      <trkpt lat="47.588659" lon="8.204154">
        <ele>359.339447</ele>
        <time>2021-11-21T13:37:38.169Z</time>
      </trkpt>
      <trkpt lat="47.588406" lon="8.204601">
        <ele>358.096867</ele>
        <time>2021-11-21T13:37:42.204Z</time>
      </trkpt>
      <trkpt lat="47.588289" lon="8.204799">
        <ele>357.687899</ele>
        <time>2021-11-21T13:37:44.120Z</time>
      </trkpt>
      <trkpt lat="47.588073" lon="8.205142">
        <ele>356.958851</ele>
        <time>2021-11-21T13:37:47.528Z</time>
      </trkpt>
      <trkpt lat="47.587909" lon="8.205353">
        <ele>356.458686</ele>
        <time>2021-11-21T13:37:49.885Z</time>
      </trkpt>
      <trkpt lat="47.587760" lon="8.205520">
        <ele>356.028441</ele>
        <time>2021-11-21T13:37:51.910Z</time>
      </trkpt>
      <trkpt lat="47.587567" lon="8.205704">
        <ele>355.499898</ele>
        <time>2021-11-21T13:37:54.483Z</time>
      </trkpt>
      <trkpt lat="47.587417" lon="8.205824">
        <ele>355.107292</ele>
        <time>2021-11-21T13:37:56.472Z</time>
      </trkpt>
      <trkpt lat="47.587275" lon="8.205923">
        <ele>354.745843</ele>
        <time>2021-11-21T13:37:58.183Z</time>
      </trkpt>
      <trkpt lat="47.586388" lon="8.206416">
        <ele>352.546110</ele>
        <time>2021-11-21T13:38:08.389Z</time>
      </trkpt>
      <trkpt lat="47.586035" lon="8.206675">
        <ele>351.630449</ele>
        <time>2021-11-21T13:38:12.512Z</time>
      </trkpt>
      <trkpt lat="47.585834" lon="8.206877">
        <ele>351.065920</ele>
        <time>2021-11-21T13:38:15.065Z</time>
      </trkpt>
      <trkpt lat="47.585598" lon="8.207197">
        <ele>350.322403</ele>
        <time>2021-11-21T13:38:18.489Z</time>
      </trkpt>
      <trkpt lat="47.585368" lon="8.207566">
        <ele>349.790108</ele>
        <time>2021-11-21T13:38:22.158Z</time>
      </trkpt>
      <trkpt lat="47.585211" lon="8.207810">
        <ele>349.439957</ele>
        <time>2021-11-21T13:38:24.593Z</time>
      </trkpt>
      <trkpt lat="47.585064" lon="8.208024">
        <ele>349.122801</ele>
        <time>2021-11-21T13:38:26.886Z</time>
      </trkpt>
      <trkpt lat="47.585009" lon="8.208106">
        <ele>349.002723</ele>
        <time>2021-11-21T13:38:27.741Z</time>
      </trkpt>
      <trkpt lat="47.584907" lon="8.208222">
        <ele>348.804823</ele>
        <time>2021-11-21T13:38:29.105Z</time>
      </trkpt>
      <trkpt lat="47.583036" lon="8.209956">
        <ele>346.659562</ele>
        <time>2021-11-21T13:38:56.832Z</time>
      </trkpt>
      <trkpt lat="47.582928" lon="8.210081">
        <ele>346.573502</ele>
        <time>2021-11-21T13:38:58.883Z</time>
      </trkpt>
      <trkpt lat="47.582721" lon="8.210336">
        <ele>346.404457</ele>
        <time>2021-11-21T13:39:02.720Z</time>
      </trkpt>
      <trkpt lat="47.582264" lon="8.211191">
        <ele>346.365214</ele>
        <time>2021-11-21T13:39:13.599Z</time>
      </trkpt>
      <trkpt lat="47.581926" lon="8.212145">
        <ele>346.337656</ele>
        <time>2021-11-21T13:39:24.280Z</time>
      </trkpt>
      <trkpt lat="47.581683" lon="8.212808">
        <ele>346.398793</ele>
        <time>2021-11-21T13:39:31.762Z</time>
      </trkpt>
      <trkpt lat="47.581569" lon="8.213125">
        <ele>346.516320</ele>
        <time>2021-11-21T13:39:35.391Z</time>
      </trkpt>
      <trkpt lat="47.581497" lon="8.213306">
        <ele>346.585066</ele>
        <time>2021-11-21T13:39:37.670Z</time>
      </trkpt>
      <trkpt lat="47.581346" lon="8.213669">
        <ele>346.724591</ele>
        <time>2021-11-21T13:39:42.480Z</time>
      </trkpt>
      <trkpt lat="47.581280" lon="8.213836">
        <ele>346.787914</ele>
        <time>2021-11-21T13:39:44.682Z</time>
      </trkpt>
      <trkpt lat="47.581242" lon="8.213807">
        <ele>346.808643</ele>
        <time>2021-11-21T13:39:45.372Z</time>
      </trkpt>
      <trkpt lat="47.581137" lon="8.213368">
        <ele>346.961028</ele>
        <time>2021-11-21T13:39:50.860Z</time>
      </trkpt>
      <trkpt lat="47.581118" lon="8.213205">
        <ele>347.015146</ele>
        <time>2021-11-21T13:39:52.750Z</time>
      </trkpt>
      <trkpt lat="47.581050" lon="8.212663">
        <ele>347.195509</ele>
        <time>2021-11-21T13:39:59.360Z</time>
      </trkpt>
      <trkpt lat="47.581013" lon="8.212368">
        <ele>347.549523</ele>
        <time>2021-11-21T13:40:03.095Z</time>
      </trkpt>
      <trkpt lat="47.580963" lon="8.211892">
        <ele>348.122301</ele>
        <time>2021-11-21T13:40:09.398Z</time>
      </trkpt>
      <trkpt lat="47.580836" lon="8.210234">
        <ele>350.106309</ele>
        <time>2021-11-21T13:40:35.293Z</time>
      </trkpt>
      <trkpt lat="47.580785" lon="8.209548">
        <ele>351.210198</ele>
        <time>2021-11-21T13:40:47.024Z</time>
      </trkpt>
      <trkpt lat="47.580727" lon="8.208870">
        <ele>352.433894</ele>
        <time>2021-11-21T13:40:58.352Z</time>
      </trkpt>
      <trkpt lat="47.580689" lon="8.208458">
        <ele>353.178452</ele>
        <time>2021-11-21T13:41:05.557Z</time>
      </trkpt>
      <trkpt lat="47.580409" lon="8.205773">
        <ele>358.058991</ele>
        <time>2021-11-21T13:41:53.861Z</time>
      </trkpt>
      <trkpt lat="47.580399" lon="8.205653">
        <ele>358.276672</ele>
        <time>2021-11-21T13:41:55.938Z</time>
      </trkpt>
      <trkpt lat="47.580352" lon="8.205210">
        <ele>359.084018</ele>
        <time>2021-11-21T13:42:03.194Z</time>
      </trkpt>
      <trkpt lat="47.580165" lon="8.203774">
        <ele>361.381235</ele>
        <time>2021-11-21T13:42:26.765Z</time>
      </trkpt>
      <trkpt lat="47.579971" lon="8.203248">
        <ele>362.256390</ele>
        <time>2021-11-21T13:42:36.535Z</time>
      </trkpt>
      <trkpt lat="47.579829" lon="8.202861">
        <ele>362.899519</ele>
        <time>2021-11-21T13:42:43.131Z</time>
      </trkpt>
      <trkpt lat="47.579523" lon="8.202175">
        <ele>364.129602</ele>
        <time>2021-11-21T13:42:55.635Z</time>
      </trkpt>
      <trkpt lat="47.579408" lon="8.201917">
        <ele>364.631069</ele>
        <time>2021-11-21T13:43:00.947Z</time>
      </trkpt>
      <trkpt lat="47.579131" lon="8.201438">
        <ele>365.654190</ele>
        <time>2021-11-21T13:43:10.677Z</time>
      </trkpt>
      <trkpt lat="47.578817" lon="8.201076">
        <ele>366.610431</ele>
        <time>2021-11-21T13:43:20.403Z</time>
      </trkpt>
      <trkpt lat="47.578441" lon="8.200648">
        <ele>367.750055</ele>
        <time>2021-11-21T13:43:32.637Z</time>
      </trkpt>
      <trkpt lat="47.578334" lon="8.200508">
        <ele>368.093140</ele>
        <time>2021-11-21T13:43:36.421Z</time>
      </trkpt>
      <trkpt lat="47.577966" lon="8.199918">
        <ele>369.510077</ele>
        <time>2021-11-21T13:43:50.568Z</time>
      </trkpt>
      <trkpt lat="47.577833" lon="8.199696">
        <ele>370.035836</ele>
        <time>2021-11-21T13:43:54.905Z</time>
      </trkpt>
      <trkpt lat="47.577794" lon="8.199631">
        <ele>370.189876</ele>
        <time>2021-11-21T13:43:56.581Z</time>
      </trkpt>
      <trkpt lat="47.577488" lon="8.199356">
        <ele>371.129201</ele>
        <time>2021-11-21T13:44:05.726Z</time>
      </trkpt>
      <trkpt lat="47.577432" lon="8.199320">
        <ele>371.289427</ele>
        <time>2021-11-21T13:44:07.392Z</time>
      </trkpt>
      <trkpt lat="47.577283" lon="8.199241">
        <ele>371.704812</ele>
        <time>2021-11-21T13:44:10.840Z</time>
      </trkpt>
      <trkpt lat="47.577220" lon="8.199207">
        <ele>371.880804</ele>
        <time>2021-11-21T13:44:12.555Z</time>
      </trkpt>
      <trkpt lat="47.577129" lon="8.199176">
        <ele>372.125903</ele>
        <time>2021-11-21T13:44:14.879Z</time>
      </trkpt>
      <trkpt lat="47.576993" lon="8.199134">
        <ele>372.490564</ele>
        <time>2021-11-21T13:44:18.575Z</time>
      </trkpt>
      <trkpt lat="47.576952" lon="8.199107">
        <ele>372.608330</ele>
        <time>2021-11-21T13:44:19.353Z</time>
      </trkpt>
      <trkpt lat="47.576579" lon="8.198621">
        <ele>374.351915</ele>
        <time>2021-11-21T13:44:32.586Z</time>
      </trkpt>
      <trkpt lat="47.576517" lon="8.198560">
        <ele>374.630487</ele>
        <time>2021-11-21T13:44:35.080Z</time>
      </trkpt>
      <trkpt lat="47.576449" lon="8.198516">
        <ele>374.908244</ele>
        <time>2021-11-21T13:44:37.307Z</time>
      </trkpt>
      <trkpt lat="47.576404" lon="8.198504">
        <ele>375.079408</ele>
        <time>2021-11-21T13:44:38.250Z</time>
      </trkpt>
      <trkpt lat="47.576370" lon="8.198512">
        <ele>375.208282</ele>
        <time>2021-11-21T13:44:38.879Z</time>
      </trkpt>
      <trkpt lat="47.576353" lon="8.198518">
        <ele>375.273702</ele>
        <time>2021-11-21T13:44:39.795Z</time>
      </trkpt>
      <trkpt lat="47.576243" lon="8.198668">
        <ele>375.833230</ele>
        <time>2021-11-21T13:44:43.555Z</time>
      </trkpt>
      <trkpt lat="47.576040" lon="8.199164">
        <ele>377.298345</ele>
        <time>2021-11-21T13:44:54.174Z</time>
      </trkpt>
      <trkpt lat="47.575997" lon="8.199245">
        <ele>377.558648</ele>
        <time>2021-11-21T13:44:56.334Z</time>
      </trkpt>
      <trkpt lat="47.575939" lon="8.199309">
        <ele>377.829328</ele>
        <time>2021-11-21T13:44:57.853Z</time>
      </trkpt>
      <trkpt lat="47.575835" lon="8.199428">
        <ele>378.321156</ele>
        <time>2021-11-21T13:45:01.333Z</time>
      </trkpt>
      <trkpt lat="47.575594" lon="8.199685">
        <ele>379.432559</ele>
        <time>2021-11-21T13:45:11.822Z</time>
      </trkpt>
      <trkpt lat="47.575461" lon="8.199807">
        <ele>380.381695</ele>
        <time>2021-11-21T13:45:17.517Z</time>
      </trkpt>
      <trkpt lat="47.574616" lon="8.200755">
        <ele>387.907199</ele>
        <time>2021-11-21T13:46:06.341Z</time>
      </trkpt>
      <trkpt lat="47.574515" lon="8.200813">
        <ele>388.676374</ele>
        <time>2021-11-21T13:46:11.866Z</time>
      </trkpt>
      <trkpt lat="47.574450" lon="8.200829">
        <ele>389.144279</ele>
        <time>2021-11-21T13:46:15.804Z</time>
      </trkpt>
      <trkpt lat="47.574356" lon="8.200811">
        <ele>389.817348</ele>
        <time>2021-11-21T13:46:18.836Z</time>
      </trkpt>
      <trkpt lat="47.574247" lon="8.200781">
        <ele>390.604620</ele>
        <time>2021-11-21T13:46:23.980Z</time>
      </trkpt>
      <trkpt lat="47.574089" lon="8.200695">
        <ele>391.799880</ele>
        <time>2021-11-21T13:46:33.080Z</time>
      </trkpt>
      <trkpt lat="47.572804" lon="8.199969">
        <ele>397.754258</ele>
        <time>2021-11-21T13:47:24.962Z</time>
      </trkpt>
      <trkpt lat="47.572312" lon="8.199751">
        <ele>399.849280</ele>
        <time>2021-11-21T13:47:32.948Z</time>
      </trkpt>
      <trkpt lat="47.572250" lon="8.199723">
        <ele>399.797299</ele>
        <time>2021-11-21T13:47:33.716Z</time>
      </trkpt>
      <trkpt lat="47.571863" lon="8.199549">
        <ele>399.472964</ele>
        <time>2021-11-21T13:47:38.625Z</time>
      </trkpt>
      <trkpt lat="47.571416" lon="8.199356">
        <ele>399.099574</ele>
        <time>2021-11-21T13:47:43.971Z</time>
      </trkpt>
      <trkpt lat="47.571180" lon="8.199253">
        <ele>398.902270</ele>
        <time>2021-11-21T13:47:46.713Z</time>
      </trkpt>
      <trkpt lat="47.570594" lon="8.199059">
        <ele>398.420723</ele>
        <time>2021-11-21T13:47:53.902Z</time>
      </trkpt>
      <trkpt lat="47.570363" lon="8.199052">
        <ele>399.102005</ele>
        <time>2021-11-21T13:47:57.108Z</time>
      </trkpt>
      <trkpt lat="47.569934" lon="8.199154">
        <ele>400.455171</ele>
        <time>2021-11-21T13:48:05.193Z</time>
      </trkpt>
      <trkpt lat="47.569792" lon="8.199218">
        <ele>400.917413</ele>
        <time>2021-11-21T13:48:08.675Z</time>
      </trkpt>
      <trkpt lat="47.569710" lon="8.199256">
        <ele>401.184987</ele>
        <time>2021-11-21T13:48:10.645Z</time>
      </trkpt>
      <trkpt lat="47.569668" lon="8.199275">
        <ele>401.321750</ele>
        <time>2021-11-21T13:48:11.653Z</time>
      </trkpt>
      <trkpt lat="47.569431" lon="8.199372">
        <ele>402.087491</ele>
        <time>2021-11-21T13:48:18.484Z</time>
      </trkpt>
      <trkpt lat="47.568571" lon="8.199729">
        <ele>406.305763</ele>
        <time>2021-11-21T13:48:54.131Z</time>
      </trkpt>
      <trkpt lat="47.567931" lon="8.199770">
        <ele>411.656067</ele>
        <time>2021-11-21T13:49:26.009Z</time>
      </trkpt>
      <trkpt lat="47.567733" lon="8.199741">
        <ele>413.317828</ele>
        <time>2021-11-21T13:49:36.563Z</time>
      </trkpt>
      <trkpt lat="47.567549" lon="8.199701">
        <ele>414.871050</ele>
        <time>2021-11-21T13:49:45.281Z</time>
      </trkpt>
      <trkpt lat="47.567494" lon="8.199692">
        <ele>415.333204</ele>
        <time>2021-11-21T13:49:48.201Z</time>
      </trkpt>
      <trkpt lat="47.567182" lon="8.199624">
        <ele>417.967069</ele>
        <time>2021-11-21T13:50:03.681Z</time>
      </trkpt>
      <trkpt lat="47.566549" lon="8.199512">
        <ele>423.636995</ele>
        <time>2021-11-21T13:50:38.136Z</time>
      </trkpt>
      <trkpt lat="47.565402" lon="8.199270">
        <ele>434.099268</ele>
        <time>2021-11-21T13:51:41.311Z</time>
      </trkpt>
      <trkpt lat="47.565276" lon="8.199206">
        <ele>435.286066</ele>
        <time>2021-11-21T13:51:48.505Z</time>
      </trkpt>
      <trkpt lat="47.565203" lon="8.199174">
        <ele>435.488450</ele>
        <time>2021-11-21T13:51:51.880Z</time>
      </trkpt>
      <trkpt lat="47.565092" lon="8.199089">
        <ele>435.820613</ele>
        <time>2021-11-21T13:51:54.083Z</time>
      </trkpt>
      <trkpt lat="47.564963" lon="8.198970">
        <ele>436.224574</ele>
        <time>2021-11-21T13:52:00.813Z</time>
      </trkpt>
      <trkpt lat="47.564900" lon="8.198893">
        <ele>436.441671</ele>
        <time>2021-11-21T13:52:03.752Z</time>
      </trkpt>
      <trkpt lat="47.564786" lon="8.198730">
        <ele>436.862801</ele>
        <time>2021-11-21T13:52:05.948Z</time>
      </trkpt>
      <trkpt lat="47.564717" lon="8.198585">
        <ele>437.181089</ele>
        <time>2021-11-21T13:52:10.683Z</time>
      </trkpt>
      <trkpt lat="47.564682" lon="8.198489">
        <ele>437.376831</ele>
        <time>2021-11-21T13:52:12.409Z</time>
      </trkpt>
      <trkpt lat="47.564571" lon="8.198114">
        <ele>438.111411</ele>
        <time>2021-11-21T13:52:18.179Z</time>
      </trkpt>
      <trkpt lat="47.564411" lon="8.197395">
        <ele>439.469537</ele>
        <time>2021-11-21T13:52:28.388Z</time>
      </trkpt>
      <trkpt lat="47.564252" lon="8.196687">
        <ele>439.948572</ele>
        <time>2021-11-21T13:52:35.035Z</time>
      </trkpt>
      <trkpt lat="47.564213" lon="8.196452">
        <ele>439.883144</ele>
        <time>2021-11-21T13:52:36.599Z</time>
      </trkpt>
      <trkpt lat="47.564170" lon="8.196214">
        <ele>439.816531</ele>
        <time>2021-11-21T13:52:38.364Z</time>
      </trkpt>
      <trkpt lat="47.564110" lon="8.195703">
        <ele>439.676301</ele>
        <time>2021-11-21T13:52:41.999Z</time>
      </trkpt>
      <trkpt lat="47.564107" lon="8.195673">
        <ele>439.668102</ele>
        <time>2021-11-21T13:52:42.891Z</time>
      </trkpt>
      <trkpt lat="47.564079" lon="8.195206">
        <ele>439.541346</ele>
        <time>2021-11-21T13:52:46.540Z</time>
      </trkpt>
      <trkpt lat="47.564061" lon="8.194828">
        <ele>439.438895</ele>
        <time>2021-11-21T13:52:50.480Z</time>
      </trkpt>
      <trkpt lat="47.564028" lon="8.194134">
        <ele>440.086758</ele>
        <time>2021-11-21T13:53:02.496Z</time>
      </trkpt>
      <trkpt lat="47.564019" lon="8.193989">
        <ele>440.414368</ele>
        <time>2021-11-21T13:53:06.059Z</time>
      </trkpt>
      <trkpt lat="47.563969" lon="8.193666">
        <ele>441.159959</ele>
        <time>2021-11-21T13:53:13.055Z</time>
      </trkpt>
      <trkpt lat="47.563876" lon="8.193308">
        <ele>442.023048</ele>
        <time>2021-11-21T13:53:21.824Z</time>
      </trkpt>
      <trkpt lat="47.563699" lon="8.192817">
        <ele>443.275510</ele>
        <time>2021-11-21T13:53:32.965Z</time>
      </trkpt>
      <trkpt lat="47.563580" lon="8.192549">
        <ele>443.997323</ele>
        <time>2021-11-21T13:53:38.793Z</time>
      </trkpt>
      <trkpt lat="47.563443" lon="8.192289">
        <ele>444.739525</ele>
        <time>2021-11-21T13:53:45.003Z</time>
      </trkpt>
      <trkpt lat="47.563416" lon="8.192242">
        <ele>444.878403</ele>
        <time>2021-11-21T13:53:46.441Z</time>
      </trkpt>
      <trkpt lat="47.563220" lon="8.191911">
        <ele>445.708736</ele>
        <time>2021-11-21T13:53:54.423Z</time>
      </trkpt>
      <trkpt lat="47.563121" lon="8.191765">
        <ele>446.033818</ele>
        <time>2021-11-21T13:53:58.216Z</time>
      </trkpt>
      <trkpt lat="47.562742" lon="8.191268">
        <ele>447.211734</ele>
        <time>2021-11-21T13:54:11.658Z</time>
      </trkpt>
      <trkpt lat="47.562600" lon="8.191109">
        <ele>447.625983</ele>
        <time>2021-11-21T13:54:16.168Z</time>
      </trkpt>
      <trkpt lat="47.562270" lon="8.190771">
        <ele>448.559677</ele>
        <time>2021-11-21T13:54:25.191Z</time>
      </trkpt>
      <trkpt lat="47.561339" lon="8.190034">
        <ele>450.947019</ele>
        <time>2021-11-21T13:54:46.402Z</time>
      </trkpt>
      <trkpt lat="47.560917" lon="8.189786">
        <ele>451.954519</ele>
        <time>2021-11-21T13:54:55.655Z</time>
      </trkpt>
      <trkpt lat="47.560801" lon="8.189726">
        <ele>452.227189</ele>
        <time>2021-11-21T13:54:59.798Z</time>
      </trkpt>
      <trkpt lat="47.560673" lon="8.189659">
        <ele>452.528459</ele>
        <time>2021-11-21T13:55:03.126Z</time>
      </trkpt>
      <trkpt lat="47.560109" lon="8.189498">
        <ele>454.137746</ele>
        <time>2021-11-21T13:55:19.227Z</time>
      </trkpt>
      <trkpt lat="47.559834" lon="8.189566">
        <ele>455.477187</ele>
        <time>2021-11-21T13:55:26.670Z</time>
      </trkpt>
      <trkpt lat="47.559559" lon="8.189740">
        <ele>456.913755</ele>
        <time>2021-11-21T13:55:36.408Z</time>
      </trkpt>
      <trkpt lat="47.559488" lon="8.189816">
        <ele>457.334542</ele>
        <time>2021-11-21T13:55:38.852Z</time>
      </trkpt>
      <trkpt lat="47.559378" lon="8.189953">
        <ele>458.024874</ele>
        <time>2021-11-21T13:55:44.938Z</time>
      </trkpt>
      <trkpt lat="47.558371" lon="8.192047">
        <ele>467.067170</ele>
        <time>2021-11-21T13:56:49.817Z</time>
      </trkpt>
      <trkpt lat="47.558109" lon="8.192336">
        <ele>468.899831</ele>
        <time>2021-11-21T13:57:01.734Z</time>
      </trkpt>
      <trkpt lat="47.557808" lon="8.192484">
        <ele>470.679291</ele>
        <time>2021-11-21T13:57:13.154Z</time>
      </trkpt>
      <trkpt lat="47.557714" lon="8.192494">
        <ele>471.208082</ele>
        <time>2021-11-21T13:57:17.998Z</time>
      </trkpt>
      <trkpt lat="47.557539" lon="8.192482">
        <ele>472.191058</ele>
        <time>2021-11-21T13:57:23.760Z</time>
      </trkpt>
      <trkpt lat="47.557188" lon="8.192350">
        <ele>474.181469</ele>
        <time>2021-11-21T13:57:37.488Z</time>
      </trkpt>
      <trkpt lat="47.556798" lon="8.191880">
        <ele>476.942817</ele>
        <time>2021-11-21T13:57:56.915Z</time>
      </trkpt>
      <trkpt lat="47.556132" lon="8.189993">
        <ele>484.252312</ele>
        <time>2021-11-21T13:58:48.371Z</time>
      </trkpt>
      <trkpt lat="47.555272" lon="8.187188">
        <ele>491.331580</ele>
        <time>2021-11-21T13:59:51.923Z</time>
      </trkpt>
      <trkpt lat="47.554972" lon="8.186525">
        <ele>492.345272</ele>
        <time>2021-11-21T14:00:02.885Z</time>
      </trkpt>
      <trkpt lat="47.554800" lon="8.186250">
        <ele>492.821416</ele>
        <time>2021-11-21T14:00:07.334Z</time>
      </trkpt>
      <trkpt lat="47.554367" lon="8.185749">
        <ele>492.374571</ele>
        <time>2021-11-21T14:00:14.362Z</time>
      </trkpt>
      <trkpt lat="47.553859" lon="8.185383">
        <ele>490.790523</ele>
        <time>2021-11-21T14:00:20.047Z</time>
      </trkpt>
      <trkpt lat="47.553316" lon="8.185187">
        <ele>489.223272</ele>
        <time>2021-11-21T14:00:25.657Z</time>
      </trkpt>
      <trkpt lat="47.553227" lon="8.185177">
        <ele>488.972976</ele>
        <time>2021-11-21T14:00:26.489Z</time>
      </trkpt>
      <trkpt lat="47.552981" lon="8.185161">
        <ele>488.282461</ele>
        <time>2021-11-21T14:00:28.996Z</time>
      </trkpt>
      <trkpt lat="47.552746" lon="8.185180">
        <ele>487.595385</ele>
        <time>2021-11-21T14:00:31.253Z</time>
      </trkpt>
      <trkpt lat="47.552557" lon="8.185231">
        <ele>487.032101</ele>
        <time>2021-11-21T14:00:33.176Z</time>
      </trkpt>
      <trkpt lat="47.552101" lon="8.185355">
        <ele>485.672726</ele>
        <time>2021-11-21T14:00:37.691Z</time>
      </trkpt>
      <trkpt lat="47.550775" lon="8.185862">
        <ele>483.157687</ele>
        <time>2021-11-21T14:00:52.545Z</time>
      </trkpt>
      <trkpt lat="47.550661" lon="8.185911">
        <ele>483.215832</ele>
        <time>2021-11-21T14:00:54.194Z</time>
      </trkpt>
      <trkpt lat="47.550396" lon="8.185961">
        <ele>483.346691</ele>
        <time>2021-11-21T14:00:58.017Z</time>
      </trkpt>
      <trkpt lat="47.550243" lon="8.185976">
        <ele>483.421801</ele>
        <time>2021-11-21T14:01:00.608Z</time>
      </trkpt>
      <trkpt lat="47.550129" lon="8.185964">
        <ele>483.477785</ele>
        <time>2021-11-21T14:01:02.781Z</time>
      </trkpt>
      <trkpt lat="47.549993" lon="8.185950">
        <ele>483.544565</ele>
        <time>2021-11-21T14:01:06.000Z</time>
      </trkpt>
      <trkpt lat="47.549476" lon="8.185911">
        <ele>483.798144</ele>
        <time>2021-11-21T14:01:18.652Z</time>
      </trkpt>
      <trkpt lat="47.549047" lon="8.186089">
        <ele>485.005588</ele>
        <time>2021-11-21T14:01:30.316Z</time>
      </trkpt>
      <trkpt lat="47.548879" lon="8.186258">
        <ele>485.616503</ele>
        <time>2021-11-21T14:01:35.569Z</time>
      </trkpt>
      <trkpt lat="47.548674" lon="8.186493">
        <ele>486.396295</ele>
        <time>2021-11-21T14:01:42.766Z</time>
      </trkpt>
      <trkpt lat="47.548532" lon="8.186641">
        <ele>486.918617</ele>
        <time>2021-11-21T14:01:47.529Z</time>
      </trkpt>
      <trkpt lat="47.548282" lon="8.186836">
        <ele>487.768601</ele>
        <time>2021-11-21T14:01:54.341Z</time>
      </trkpt>
      <trkpt lat="47.548192" lon="8.186871">
        <ele>488.048535</ele>
        <time>2021-11-21T14:01:57.599Z</time>
      </trkpt>
      <trkpt lat="47.548052" lon="8.186907">
        <ele>488.476018</ele>
        <time>2021-11-21T14:02:01.407Z</time>
      </trkpt>
      <trkpt lat="47.547919" lon="8.186917">
        <ele>488.876659</ele>
        <time>2021-11-21T14:02:04.869Z</time>
      </trkpt>
      <trkpt lat="47.547833" lon="8.186908">
        <ele>489.136032</ele>
        <time>2021-11-21T14:02:08.073Z</time>
      </trkpt>
      <trkpt lat="47.547688" lon="8.186873">
        <ele>489.581830</ele>
        <time>2021-11-21T14:02:12.236Z</time>
      </trkpt>
      <trkpt lat="47.547662" lon="8.186864">
        <ele>489.663051</ele>
        <time>2021-11-21T14:02:12.966Z</time>
      </trkpt>
      <trkpt lat="47.547530" lon="8.186777">
        <ele>490.102533</ele>
        <time>2021-11-21T14:02:17.176Z</time>
      </trkpt>
      <trkpt lat="47.547458" lon="8.186711">
        <ele>490.360089</ele>
        <time>2021-11-21T14:02:19.852Z</time>
      </trkpt>
      <trkpt lat="47.547308" lon="8.186546">
        <ele>490.928406</ele>
        <time>2021-11-21T14:02:24.657Z</time>
      </trkpt>
      <trkpt lat="47.547190" lon="8.186389">
        <ele>491.410864</ele>
        <time>2021-11-21T14:02:28.968Z</time>
      </trkpt>
      <trkpt lat="47.547154" lon="8.186335">
        <ele>491.566704</ele>
        <time>2021-11-21T14:02:30.250Z</time>
      </trkpt>
      <trkpt lat="47.547016" lon="8.186095">
        <ele>492.214056</ele>
        <time>2021-11-21T14:02:34.479Z</time>
      </trkpt>
      <trkpt lat="47.546993" lon="8.186066">
        <ele>492.305930</ele>
        <time>2021-11-21T14:02:35.461Z</time>
      </trkpt>
      <trkpt lat="47.546914" lon="8.186002">
        <ele>492.579829</ele>
        <time>2021-11-21T14:02:37.714Z</time>
      </trkpt>
      <trkpt lat="47.546791" lon="8.185915">
        <ele>492.994447</ele>
        <time>2021-11-21T14:02:41.032Z</time>
      </trkpt>
      <trkpt lat="47.546751" lon="8.185869">
        <ele>493.148482</ele>
        <time>2021-11-21T14:02:42.058Z</time>
      </trkpt>
      <trkpt lat="47.546713" lon="8.185804">
        <ele>493.325046</ele>
        <time>2021-11-21T14:02:43.143Z</time>
      </trkpt>
      <trkpt lat="47.546702" lon="8.185736">
        <ele>493.468624</ele>
        <time>2021-11-21T14:02:44.652Z</time>
      </trkpt>
      <trkpt lat="47.546710" lon="8.185525">
        <ele>493.902552</ele>
        <time>2021-11-21T14:02:48.435Z</time>
      </trkpt>
      <trkpt lat="47.546754" lon="8.184671">
        <ele>496.475538</ele>
        <time>2021-11-21T14:03:05.169Z</time>
      </trkpt>
      <trkpt lat="47.546713" lon="8.184384">
        <ele>497.591748</ele>
        <time>2021-11-21T14:03:12.583Z</time>
      </trkpt>
      <trkpt lat="47.546597" lon="8.184061">
        <ele>498.983879</ele>
        <time>2021-11-21T14:03:21.478Z</time>
      </trkpt>
      <trkpt lat="47.546552" lon="8.183986">
        <ele>499.365697</ele>
        <time>2021-11-21T14:03:25.168Z</time>
      </trkpt>
      <trkpt lat="47.546484" lon="8.183925">
        <ele>499.813811</ele>
        <time>2021-11-21T14:03:27.882Z</time>
      </trkpt>
      <trkpt lat="47.546418" lon="8.183901">
        <ele>500.196900</ele>
        <time>2021-11-21T14:03:29.918Z</time>
      </trkpt>
      <trkpt lat="47.546327" lon="8.183903">
        <ele>500.709929</ele>
        <time>2021-11-21T14:03:33.463Z</time>
      </trkpt>
      <trkpt lat="47.546078" lon="8.183925">
        <ele>502.116051</ele>
        <time>2021-11-21T14:03:44.382Z</time>
      </trkpt>
      <trkpt lat="47.545985" lon="8.183902">
        <ele>502.647552</ele>
        <time>2021-11-21T14:03:47.826Z</time>
      </trkpt>
      <trkpt lat="47.545828" lon="8.183838">
        <ele>503.565463</ele>
        <time>2021-11-21T14:03:55.338Z</time>
      </trkpt>
      <trkpt lat="47.545667" lon="8.183774">
        <ele>504.505133</ele>
        <time>2021-11-21T14:04:01.541Z</time>
      </trkpt>
      <trkpt lat="47.545614" lon="8.183745">
        <ele>504.823624</ele>
        <time>2021-11-21T14:04:03.537Z</time>
      </trkpt>
      <trkpt lat="47.545545" lon="8.183735">
        <ele>505.314755</ele>
        <time>2021-11-21T14:04:07.095Z</time>
      </trkpt>
      <trkpt lat="47.545370" lon="8.183783">
        <ele>506.590890</ele>
        <time>2021-11-21T14:04:14.439Z</time>
      </trkpt>
      <trkpt lat="47.545233" lon="8.183913">
        <ele>507.757459</ele>
        <time>2021-11-21T14:04:20.825Z</time>
      </trkpt>
      <trkpt lat="47.545189" lon="8.183981">
        <ele>508.213374</ele>
        <time>2021-11-21T14:04:24.427Z</time>
      </trkpt>
      <trkpt lat="47.545131" lon="8.184113">
        <ele>508.975694</ele>
        <time>2021-11-21T14:04:29.176Z</time>
      </trkpt>
      <trkpt lat="47.545071" lon="8.184309">
        <ele>510.017339</ele>
        <time>2021-11-21T14:04:35.336Z</time>
      </trkpt>
      <trkpt lat="47.545020" lon="8.184519">
        <ele>511.097533</ele>
        <time>2021-11-21T14:04:43.344Z</time>
      </trkpt>
      <trkpt lat="47.545007" lon="8.184603">
        <ele>511.514647</ele>
        <time>2021-11-21T14:04:46.234Z</time>
      </trkpt>
      <trkpt lat="47.544872" lon="8.185362">
        <ele>515.313648</ele>
        <time>2021-11-21T14:05:08.827Z</time>
      </trkpt>
      <trkpt lat="47.544810" lon="8.186087">
        <ele>518.713013</ele>
        <time>2021-11-21T14:05:30.313Z</time>
      </trkpt>
      <trkpt lat="47.544725" lon="8.186193">
        <ele>519.410669</ele>
        <time>2021-11-21T14:05:35.022Z</time>
      </trkpt>
      <trkpt lat="47.544619" lon="8.186213">
        <ele>520.081639</ele>
        <time>2021-11-21T14:05:38.581Z</time>
      </trkpt>
      <trkpt lat="47.544507" lon="8.186163">
        <ele>520.816146</ele>
        <time>2021-11-21T14:05:43.489Z</time>
      </trkpt>
      <trkpt lat="47.544424" lon="8.186024">
        <ele>521.602739</ele>
        <time>2021-11-21T14:05:48.357Z</time>
      </trkpt>
      <trkpt lat="47.544353" lon="8.185471">
        <ele>523.988688</ele>
        <time>2021-11-21T14:06:01.380Z</time>
      </trkpt>
      <trkpt lat="47.544212" lon="8.184972">
        <ele>526.281569</ele>
        <time>2021-11-21T14:06:16.032Z</time>
      </trkpt>
      <trkpt lat="47.544138" lon="8.184789">
        <ele>527.185758</ele>
        <time>2021-11-21T14:06:22.637Z</time>
      </trkpt>
      <trkpt lat="47.544044" lon="8.184606">
        <ele>528.160457</ele>
        <time>2021-11-21T14:06:29.232Z</time>
      </trkpt>
      <trkpt lat="47.543634" lon="8.183625">
        <ele>532.928783</ele>
        <time>2021-11-21T14:07:00.836Z</time>
      </trkpt>
      <trkpt lat="47.543590" lon="8.183476">
        <ele>533.597140</ele>
        <time>2021-11-21T14:07:06.317Z</time>
      </trkpt>
      <trkpt lat="47.543565" lon="8.183342">
        <ele>534.168470</ele>
        <time>2021-11-21T14:07:10.079Z</time>
      </trkpt>
      <trkpt lat="47.543480" lon="8.182935">
        <ele>535.919294</ele>
        <time>2021-11-21T14:07:21.133Z</time>
      </trkpt>
      <trkpt lat="47.543406" lon="8.182573">
        <ele>537.473686</ele>
        <time>2021-11-21T14:07:29.873Z</time>
      </trkpt>
      <trkpt lat="47.543392" lon="8.182519">
        <ele>537.711409</ele>
        <time>2021-11-21T14:07:32.355Z</time>
      </trkpt>
      <trkpt lat="47.543096" lon="8.180990">
        <ele>544.368390</ele>
        <time>2021-11-21T14:08:10.443Z</time>
      </trkpt>
      <trkpt lat="47.543154" lon="8.180425">
        <ele>546.783203</ele>
        <time>2021-11-21T14:08:24.057Z</time>
      </trkpt>
      <trkpt lat="47.543305" lon="8.179775">
        <ele>549.687816</ele>
        <time>2021-11-21T14:08:43.310Z</time>
      </trkpt>
      <trkpt lat="47.543293" lon="8.179736">
        <ele>549.868919</ele>
        <time>2021-11-21T14:08:45.698Z</time>
      </trkpt>
      <trkpt lat="47.543176" lon="8.179544">
        <ele>550.961869</ele>
        <time>2021-11-21T14:08:54.213Z</time>
      </trkpt>
      <trkpt lat="47.543118" lon="8.179531">
        <ele>551.394144</ele>
        <time>2021-11-21T14:08:56.621Z</time>
      </trkpt>
      <trkpt lat="47.542849" lon="8.179744">
        <ele>554.788798</ele>
        <time>2021-11-21T14:09:18.935Z</time>
      </trkpt>
      <trkpt lat="47.542427" lon="8.180153">
        <ele>560.401291</ele>
        <time>2021-11-21T14:09:55.235Z</time>
      </trkpt>
      <trkpt lat="47.542393" lon="8.180200">
        <ele>560.918853</ele>
        <time>2021-11-21T14:10:00.371Z</time>
      </trkpt>
      <trkpt lat="47.542275" lon="8.180404">
        <ele>562.937178</ele>
        <time>2021-11-21T14:10:11.610Z</time>
      </trkpt>
      <trkpt lat="47.541775" lon="8.182085">
        <ele>577.546083</ele>
        <time>2021-11-21T14:11:36.693Z</time>
      </trkpt>
      <trkpt lat="47.541555" lon="8.182888">
        <ele>585.017917</ele>
        <time>2021-11-21T14:12:18.693Z</time>
      </trkpt>
      <trkpt lat="47.541456" lon="8.183299">
        <ele>588.780351</ele>
        <time>2021-11-21T14:12:37.144Z</time>
      </trkpt>
      <trkpt lat="47.541372" lon="8.183706">
        <ele>592.449811</ele>
        <time>2021-11-21T14:12:54.290Z</time>
      </trkpt>
      <trkpt lat="47.541337" lon="8.183941">
        <ele>594.385859</ele>
        <time>2021-11-21T14:13:05.051Z</time>
      </trkpt>
      <trkpt lat="47.541253" lon="8.184529">
        <ele>597.077691</ele>
        <time>2021-11-21T14:13:28.657Z</time>
      </trkpt>
      <trkpt lat="47.541144" lon="8.185829">
        <ele>602.944825</ele>
        <time>2021-11-21T14:14:07.053Z</time>
      </trkpt>
      <trkpt lat="47.541134" lon="8.187007">
        <ele>605.405965</ele>
        <time>2021-11-21T14:14:27.621Z</time>
      </trkpt>
      <trkpt lat="47.541314" lon="8.190468">
        <ele>595.683576</ele>
        <time>2021-11-21T14:14:50.403Z</time>
      </trkpt>
      <trkpt lat="47.541303" lon="8.190582">
        <ele>595.133025</ele>
        <time>2021-11-21T14:14:51.065Z</time>
      </trkpt>
      <trkpt lat="47.541254" lon="8.190715">
        <ele>594.408645</ele>
        <time>2021-11-21T14:14:53.501Z</time>
      </trkpt>
      <trkpt lat="47.541136" lon="8.190956">
        <ele>592.985311</ele>
        <time>2021-11-21T14:14:58.818Z</time>
      </trkpt>
      <trkpt lat="47.541095" lon="8.191058">
        <ele>592.417765</ele>
        <time>2021-11-21T14:15:00.830Z</time>
      </trkpt>
      <trkpt lat="47.541065" lon="8.191152">
        <ele>591.920674</ele>
        <time>2021-11-21T14:15:01.405Z</time>
      </trkpt>
      <trkpt lat="47.541049" lon="8.191467">
        <ele>590.410456</ele>
        <time>2021-11-21T14:15:03.319Z</time>
      </trkpt>
      <trkpt lat="47.541411" lon="8.193836">
        <ele>573.700059</ele>
        <time>2021-11-21T14:15:17.319Z</time>
      </trkpt>
      <trkpt lat="47.541450" lon="8.194441">
        <ele>569.406539</ele>
        <time>2021-11-21T14:15:20.829Z</time>
      </trkpt>
      <trkpt lat="47.541449" lon="8.194943">
        <ele>566.236288</ele>
        <time>2021-11-21T14:15:23.733Z</time>
      </trkpt>
      <trkpt lat="47.541424" lon="8.196416">
        <ele>556.931038</ele>
        <time>2021-11-21T14:15:32.318Z</time>
      </trkpt>
      <trkpt lat="47.541371" lon="8.199351">
        <ele>541.866460</ele>
        <time>2021-11-21T14:15:49.976Z</time>
      </trkpt>
      <trkpt lat="47.541339" lon="8.199690">
        <ele>540.217640</ele>
        <time>2021-11-21T14:15:52.132Z</time>
      </trkpt>
      <trkpt lat="47.541246" lon="8.200575">
        <ele>536.439489</ele>
        <time>2021-11-21T14:16:08.623Z</time>
      </trkpt>
      <trkpt lat="47.541150" lon="8.201242">
        <ele>533.562642</ele>
        <time>2021-11-21T14:16:20.907Z</time>
      </trkpt>
      <trkpt lat="47.540912" lon="8.201699">
        <ele>531.127876</ele>
        <time>2021-11-21T14:16:31.147Z</time>
      </trkpt>
      <trkpt lat="47.540817" lon="8.201780">
        <ele>530.442931</ele>
        <time>2021-11-21T14:16:33.853Z</time>
      </trkpt>
      <trkpt lat="47.540724" lon="8.201834">
        <ele>529.818745</ele>
        <time>2021-11-21T14:16:36.606Z</time>
      </trkpt>
      <trkpt lat="47.540495" lon="8.201931">
        <ele>528.178510</ele>
        <time>2021-11-21T14:16:42.764Z</time>
      </trkpt>
      <trkpt lat="47.540267" lon="8.201983">
        <ele>526.400756</ele>
        <time>2021-11-21T14:16:49.025Z</time>
      </trkpt>
      <trkpt lat="47.540245" lon="8.201988">
        <ele>526.229232</ele>
        <time>2021-11-21T14:16:49.600Z</time>
      </trkpt>
      <trkpt lat="47.540161" lon="8.202010">
        <ele>525.571857</ele>
        <time>2021-11-21T14:16:50.330Z</time>
      </trkpt>
      <trkpt lat="47.539686" lon="8.202173">
        <ele>521.814397</ele>
        <time>2021-11-21T14:16:54.673Z</time>
      </trkpt>
      <trkpt lat="47.539057" lon="8.202818">
        <ele>515.918957</ele>
        <time>2021-11-21T14:17:01.392Z</time>
      </trkpt>
      <trkpt lat="47.538542" lon="8.203042">
        <ele>512.056775</ele>
        <time>2021-11-21T14:17:06.128Z</time>
      </trkpt>
      <trkpt lat="47.538311" lon="8.203259">
        <ele>510.121932</ele>
        <time>2021-11-21T14:17:08.585Z</time>
      </trkpt>
      <trkpt lat="47.538192" lon="8.203678">
        <ele>507.951247</ele>
        <time>2021-11-21T14:17:11.359Z</time>
      </trkpt>
      <trkpt lat="47.537847" lon="8.206596">
        <ele>493.337620</ele>
        <time>2021-11-21T14:17:29.511Z</time>
      </trkpt>
      <trkpt lat="47.537822" lon="8.206799">
        <ele>492.298655</ele>
        <time>2021-11-21T14:17:30.730Z</time>
      </trkpt>
      <trkpt lat="47.537696" lon="8.207798">
        <ele>486.478953</ele>
        <time>2021-11-21T14:17:36.680Z</time>
      </trkpt>
      <trkpt lat="47.537630" lon="8.208383">
        <ele>482.328041</ele>
        <time>2021-11-21T14:17:40.144Z</time>
      </trkpt>
      <trkpt lat="47.537541" lon="8.209218">
        <ele>476.411883</ele>
        <time>2021-11-21T14:17:44.964Z</time>
      </trkpt>
      <trkpt lat="47.537525" lon="8.209530">
        <ele>474.222048</ele>
        <time>2021-11-21T14:17:46.782Z</time>
      </trkpt>
      <trkpt lat="47.537624" lon="8.210296">
        <ele>468.908589</ele>
        <time>2021-11-21T14:17:51.307Z</time>
      </trkpt>
      <trkpt lat="47.537582" lon="8.210504">
        <ele>467.528917</ele>
        <time>2021-11-21T14:17:52.591Z</time>
      </trkpt>
      <trkpt lat="47.537542" lon="8.210584">
        <ele>466.896277</ele>
        <time>2021-11-21T14:17:53.151Z</time>
      </trkpt>
      <trkpt lat="47.537481" lon="8.210648">
        <ele>466.192627</ele>
        <time>2021-11-21T14:17:53.805Z</time>
      </trkpt>
      <trkpt lat="47.537432" lon="8.210679">
        <ele>465.691074</ele>
        <time>2021-11-21T14:17:54.269Z</time>
      </trkpt>
      <trkpt lat="47.537388" lon="8.210688">
        <ele>465.272965</ele>
        <time>2021-11-21T14:17:54.669Z</time>
      </trkpt>
      <trkpt lat="47.537267" lon="8.210668">
        <ele>464.126904</ele>
        <time>2021-11-21T14:17:55.740Z</time>
      </trkpt>
      <trkpt lat="47.537143" lon="8.210508">
        <ele>462.578910</ele>
        <time>2021-11-21T14:17:57.152Z</time>
      </trkpt>
      <trkpt lat="47.537043" lon="8.210202">
        <ele>460.418451</ele>
        <time>2021-11-21T14:17:59.168Z</time>
      </trkpt>
      <trkpt lat="47.536956" lon="8.209884">
        <ele>458.237946</ele>
        <time>2021-11-21T14:18:01.213Z</time>
      </trkpt>
      <trkpt lat="47.536921" lon="8.209778">
        <ele>457.488069</ele>
        <time>2021-11-21T14:18:01.904Z</time>
      </trkpt>
      <trkpt lat="47.536874" lon="8.209678">
        <ele>456.713738</ele>
        <time>2021-11-21T14:18:02.596Z</time>
      </trkpt>
      <trkpt lat="47.536687" lon="8.209592">
        <ele>454.870587</ele>
        <time>2021-11-21T14:18:04.327Z</time>
      </trkpt>
      <trkpt lat="47.536563" lon="8.209636">
        <ele>453.670331</ele>
        <time>2021-11-21T14:18:05.413Z</time>
      </trkpt>
      <trkpt lat="47.535970" lon="8.210248">
        <ele>446.724028</ele>
        <time>2021-11-21T14:18:11.672Z</time>
      </trkpt>
      <trkpt lat="47.534948" lon="8.210478">
        <ele>436.780647</ele>
        <time>2021-11-21T14:18:20.563Z</time>
      </trkpt>
      <trkpt lat="47.534400" lon="8.210289">
        <ele>431.984888</ele>
        <time>2021-11-21T14:18:25.502Z</time>
      </trkpt>
      <trkpt lat="47.533949" lon="8.209720">
        <ele>427.027769</ele>
        <time>2021-11-21T14:18:30.705Z</time>
      </trkpt>
      <trkpt lat="47.533279" lon="8.208606">
        <ele>418.743097</ele>
        <time>2021-11-21T14:18:39.606Z</time>
      </trkpt>
      <trkpt lat="47.533191" lon="8.208445">
        <ele>417.641230</ele>
        <time>2021-11-21T14:18:40.904Z</time>
      </trkpt>
      <trkpt lat="47.533120" lon="8.208342">
        <ele>416.858234</ele>
        <time>2021-11-21T14:18:41.749Z</time>
      </trkpt>
      <trkpt lat="47.532835" lon="8.207933">
        <ele>413.731737</ele>
        <time>2021-11-21T14:18:45.294Z</time>
      </trkpt>
      <trkpt lat="47.532597" lon="8.207774">
        <ele>411.674724</ele>
        <time>2021-11-21T14:18:47.629Z</time>
      </trkpt>
      <trkpt lat="47.532499" lon="8.207755">
        <ele>410.896041</ele>
        <time>2021-11-21T14:18:48.469Z</time>
      </trkpt>
      <trkpt lat="47.532270" lon="8.207712">
        <ele>409.077415</ele>
        <time>2021-11-21T14:18:50.530Z</time>
      </trkpt>
      <trkpt lat="47.531300" lon="8.207688">
        <ele>403.515555</ele>
        <time>2021-11-21T14:18:59.092Z</time>
      </trkpt>
      <trkpt lat="47.531043" lon="8.207684">
        <ele>402.263799</ele>
        <time>2021-11-21T14:19:01.471Z</time>
      </trkpt>
      <trkpt lat="47.530948" lon="8.207681">
        <ele>401.801008</ele>
        <time>2021-11-21T14:19:02.413Z</time>
      </trkpt>
      <trkpt lat="47.530748" lon="8.207682">
        <ele>400.826927</ele>
        <time>2021-11-21T14:19:04.327Z</time>
      </trkpt>
      <trkpt lat="47.530570" lon="8.207684">
        <ele>399.959975</ele>
        <time>2021-11-21T14:19:06.227Z</time>
      </trkpt>
      <trkpt lat="47.530081" lon="8.207671">
        <ele>398.195393</ele>
        <time>2021-11-21T14:19:11.935Z</time>
      </trkpt>
      <trkpt lat="47.529704" lon="8.207736">
        <ele>398.431875</ele>
        <time>2021-11-21T14:19:17.914Z</time>
      </trkpt>
      <trkpt lat="47.529530" lon="8.207845">
        <ele>398.549587</ele>
        <time>2021-11-21T14:19:21.838Z</time>
      </trkpt>
      <trkpt lat="47.529351" lon="8.208087">
        <ele>398.700597</ele>
        <time>2021-11-21T14:19:28.009Z</time>
      </trkpt>
      <trkpt lat="47.529201" lon="8.208382">
        <ele>398.855958</ele>
        <time>2021-11-21T14:19:33.788Z</time>
      </trkpt>
      <trkpt lat="47.528988" lon="8.208838">
        <ele>399.089230</ele>
        <time>2021-11-21T14:19:41.231Z</time>
      </trkpt>
      <trkpt lat="47.528477" lon="8.209843">
        <ele>397.656942</ele>
        <time>2021-11-21T14:19:53.708Z</time>
      </trkpt>
      <trkpt lat="47.528294" lon="8.210278">
        <ele>396.737025</ele>
        <time>2021-11-21T14:19:57.557Z</time>
      </trkpt>
      <trkpt lat="47.528109" lon="8.210725">
        <ele>395.795989</ele>
        <time>2021-11-21T14:20:01.089Z</time>
      </trkpt>
      <trkpt lat="47.527904" lon="8.211051">
        <ele>394.996404</ele>
        <time>2021-11-21T14:20:03.991Z</time>
      </trkpt>
      <trkpt lat="47.527792" lon="8.211675">
        <ele>392.507525</ele>
        <time>2021-11-21T14:20:07.970Z</time>
      </trkpt>
      <trkpt lat="47.527628" lon="8.212063">
        <ele>389.944192</ele>
        <time>2021-11-21T14:20:10.699Z</time>
      </trkpt>
      <trkpt lat="47.527568" lon="8.212167">
        <ele>389.178180</ele>
        <time>2021-11-21T14:20:11.481Z</time>
      </trkpt>
      <trkpt lat="47.527492" lon="8.212260">
        <ele>388.360573</ele>
        <time>2021-11-21T14:20:12.367Z</time>
      </trkpt>
      <trkpt lat="47.527174" lon="8.212657">
        <ele>384.911296</ele>
        <time>2021-11-21T14:20:16.014Z</time>
      </trkpt>
      <trkpt lat="47.527086" lon="8.212822">
        <ele>383.733855</ele>
        <time>2021-11-21T14:20:17.267Z</time>
      </trkpt>
      <trkpt lat="47.526996" lon="8.212989">
        <ele>382.537328</ele>
        <time>2021-11-21T14:20:18.501Z</time>
      </trkpt>
      <trkpt lat="47.526966" lon="8.213055">
        <ele>382.091793</ele>
        <time>2021-11-21T14:20:19.740Z</time>
      </trkpt>
      <trkpt lat="47.526750" lon="8.213563">
        <ele>378.755607</ele>
        <time>2021-11-21T14:20:29.832Z</time>
      </trkpt>
      <trkpt lat="47.526721" lon="8.213721">
        <ele>377.867399</ele>
        <time>2021-11-21T14:20:32.608Z</time>
      </trkpt>
      <trkpt lat="47.526668" lon="8.213870">
        <ele>376.953822</ele>
        <time>2021-11-21T14:20:35.408Z</time>
      </trkpt>
      <trkpt lat="47.526571" lon="8.214029">
        <ele>375.791398</ele>
        <time>2021-11-21T14:20:38.965Z</time>
      </trkpt>
      <trkpt lat="47.526337" lon="8.214415">
        <ele>372.977387</ele>
        <time>2021-11-21T14:20:47.778Z</time>
      </trkpt>
      <trkpt lat="47.526233" lon="8.214701">
        <ele>371.215233</ele>
        <time>2021-11-21T14:20:53.420Z</time>
      </trkpt>
      <trkpt lat="47.526245" lon="8.214785">
        <ele>370.749465</ele>
        <time>2021-11-21T14:20:54.763Z</time>
      </trkpt>
      <trkpt lat="47.526124" lon="8.214905">
        <ele>369.579546</ele>
        <time>2021-11-21T14:20:56.064Z</time>
      </trkpt>
      <trkpt lat="47.526053" lon="8.214977">
        <ele>368.888238</ele>
        <time>2021-11-21T14:20:56.832Z</time>
      </trkpt>
      <trkpt lat="47.526002" lon="8.215031">
        <ele>368.384568</ele>
        <time>2021-11-21T14:20:57.390Z</time>
      </trkpt>
      <trkpt lat="47.525955" lon="8.215079">
        <ele>367.925903</ele>
        <time>2021-11-21T14:20:57.875Z</time>
      </trkpt>
      <trkpt lat="47.525912" lon="8.215115">
        <ele>367.529071</ele>
        <time>2021-11-21T14:20:58.332Z</time>
      </trkpt>
      <trkpt lat="47.525837" lon="8.215146">
        <ele>366.903514</ele>
        <time>2021-11-21T14:20:59.060Z</time>
      </trkpt>
      <trkpt lat="47.525749" lon="8.215166">
        <ele>366.188269</ele>
        <time>2021-11-21T14:20:59.853Z</time>
      </trkpt>
      <trkpt lat="47.525630" lon="8.215165">
        <ele>365.232241</ele>
        <time>2021-11-21T14:21:00.890Z</time>
      </trkpt>
      <trkpt lat="47.525397" lon="8.215170">
        <ele>364.303688</ele>
        <time>2021-11-21T14:21:03.108Z</time>
      </trkpt>
      <trkpt lat="47.524496" lon="8.215283">
        <ele>360.982169</ele>
        <time>2021-11-21T14:21:11.967Z</time>
      </trkpt>
      <trkpt lat="47.523967" lon="8.215368">
        <ele>359.027571</ele>
        <time>2021-11-21T14:21:17.734Z</time>
      </trkpt>
      <trkpt lat="47.523628" lon="8.215398">
        <ele>358.364014</ele>
        <time>2021-11-21T14:21:21.567Z</time>
      </trkpt>
      <trkpt lat="47.523463" lon="8.215416">
        <ele>358.255098</ele>
        <time>2021-11-21T14:21:23.623Z</time>
      </trkpt>
      <trkpt lat="47.523322" lon="8.215449">
        <ele>358.161124</ele>
        <time>2021-11-21T14:21:25.236Z</time>
      </trkpt>
      <trkpt lat="47.523295" lon="8.215459">
        <ele>358.142802</ele>
        <time>2021-11-21T14:21:25.547Z</time>
      </trkpt>
      <trkpt lat="47.523252" lon="8.215477">
        <ele>358.113385</ele>
        <time>2021-11-21T14:21:26.066Z</time>
      </trkpt>
      <trkpt lat="47.523184" lon="8.215512">
        <ele>358.065993</ele>
        <time>2021-11-21T14:21:26.970Z</time>
      </trkpt>
      <trkpt lat="47.523040" lon="8.215616">
        <ele>357.960522</ele>
        <time>2021-11-21T14:21:28.960Z</time>
      </trkpt>
      <trkpt lat="47.522953" lon="8.215700">
        <ele>357.892151</ele>
        <time>2021-11-21T14:21:30.186Z</time>
      </trkpt>
      <trkpt lat="47.522589" lon="8.216064">
        <ele>357.603004</ele>
        <time>2021-11-21T14:21:36.084Z</time>
      </trkpt>
      <trkpt lat="47.522426" lon="8.216233">
        <ele>357.472012</ele>
        <time>2021-11-21T14:21:39.360Z</time>
      </trkpt>
      <trkpt lat="47.522326" lon="8.216356">
        <ele>357.386433</ele>
        <time>2021-11-21T14:21:41.386Z</time>
      </trkpt>
      <trkpt lat="47.522226" lon="8.216299">
        <ele>357.315893</ele>
        <time>2021-11-21T14:21:44.171Z</time>
      </trkpt>
      <trkpt lat="47.521988" lon="8.216203">
        <ele>357.482211</ele>
        <time>2021-11-21T14:21:49.384Z</time>
      </trkpt>
      <trkpt lat="47.521839" lon="8.216142">
        <ele>357.597755</ele>
        <time>2021-11-21T14:21:53.255Z</time>
      </trkpt>
      <trkpt lat="47.521761" lon="8.216165">
        <ele>357.657198</ele>
        <time>2021-11-21T14:21:54.948Z</time>
      </trkpt>
      <trkpt lat="47.521586" lon="8.216258">
        <ele>357.796164</ele>
        <time>2021-11-21T14:21:59.268Z</time>
      </trkpt>
      <trkpt lat="47.521527" lon="8.216269">
        <ele>357.840610</ele>
        <time>2021-11-21T14:22:00.996Z</time>
      </trkpt>
      <trkpt lat="47.521239" lon="8.216193">
        <ele>358.059258</ele>
        <time>2021-11-21T14:22:07.667Z</time>
      </trkpt>
      <trkpt lat="47.521196" lon="8.216177">
        <ele>358.092396</ele>
        <time>2021-11-21T14:22:08.981Z</time>
      </trkpt>
      <trkpt lat="47.521086" lon="8.216135">
        <ele>358.177301</ele>
        <time>2021-11-21T14:22:11.603Z</time>
      </trkpt>
      <trkpt lat="47.520786" lon="8.215911">
        <ele>358.428420</ele>
        <time>2021-11-21T14:22:19.683Z</time>
      </trkpt>
      <trkpt lat="47.520540" lon="8.215681">
        <ele>358.645868</ele>
        <time>2021-11-21T14:22:26.417Z</time>
      </trkpt>
      <trkpt lat="47.520315" lon="8.215590">
        <ele>358.780868</ele>
        <time>2021-11-21T14:22:31.547Z</time>
      </trkpt>
      <trkpt lat="47.520146" lon="8.215572">
        <ele>358.877935</ele>
        <time>2021-11-21T14:22:35.664Z</time>
      </trkpt>
      <trkpt lat="47.520124" lon="8.215569">
        <ele>358.890592</ele>
        <time>2021-11-21T14:22:36.115Z</time>
      </trkpt>
      <trkpt lat="47.519944" lon="8.215530">
        <ele>358.994808</ele>
        <time>2021-11-21T14:22:40.194Z</time>
      </trkpt>
      <trkpt lat="47.519670" lon="8.215440">
        <ele>359.155592</ele>
        <time>2021-11-21T14:22:46.542Z</time>
      </trkpt>
      <trkpt lat="47.519391" lon="8.215293">
        <ele>359.325243</ele>
        <time>2021-11-21T14:22:53.266Z</time>
      </trkpt>
      <trkpt lat="47.519148" lon="8.215131">
        <ele>359.477911</ele>
        <time>2021-11-21T14:22:59.172Z</time>
      </trkpt>
      <trkpt lat="47.518955" lon="8.215007">
        <ele>359.598436</ele>
        <time>2021-11-21T14:23:03.802Z</time>
      </trkpt>
      <trkpt lat="47.518727" lon="8.214908">
        <ele>359.761798</ele>
        <time>2021-11-21T14:23:08.919Z</time>
      </trkpt>
      <trkpt lat="47.518581" lon="8.214863">
        <ele>359.891680</ele>
        <time>2021-11-21T14:23:12.190Z</time>
      </trkpt>
      <trkpt lat="47.518146" lon="8.214775">
        <ele>360.274056</ele>
        <time>2021-11-21T14:23:22.084Z</time>
      </trkpt>
      <trkpt lat="47.518033" lon="8.214737">
        <ele>360.374978</ele>
        <time>2021-11-21T14:23:24.718Z</time>
      </trkpt>
      <trkpt lat="47.517918" lon="8.214716">
        <ele>360.475894</ele>
        <time>2021-11-21T14:23:27.842Z</time>
      </trkpt>
      <trkpt lat="47.517865" lon="8.214707">
        <ele>360.522356</ele>
        <time>2021-11-21T14:23:29.146Z</time>
      </trkpt>
      <trkpt lat="47.517727" lon="8.214690">
        <ele>360.642960</ele>
        <time>2021-11-21T14:23:32.559Z</time>
      </trkpt>
      <trkpt lat="47.517598" lon="8.214691">
        <ele>360.755312</ele>
        <time>2021-11-21T14:23:35.777Z</time>
      </trkpt>
      <trkpt lat="47.517061" lon="8.214737">
        <ele>361.223786</ele>
        <time>2021-11-21T14:23:49.025Z</time>
      </trkpt>
      <trkpt lat="47.516927" lon="8.214681">
        <ele>361.329500</ele>
        <time>2021-11-21T14:23:52.317Z</time>
      </trkpt>
      <trkpt lat="47.516853" lon="8.214613">
        <ele>361.393112</ele>
        <time>2021-11-21T14:23:54.558Z</time>
      </trkpt>
      <trkpt lat="47.516592" lon="8.214194">
        <ele>361.674290</ele>
        <time>2021-11-21T14:24:03.476Z</time>
      </trkpt>
      <trkpt lat="47.516450" lon="8.213978">
        <ele>361.822985</ele>
        <time>2021-11-21T14:24:08.000Z</time>
      </trkpt>
      <trkpt lat="47.516357" lon="8.213867">
        <ele>361.910233</ele>
        <time>2021-11-21T14:24:10.777Z</time>
      </trkpt>
      <trkpt lat="47.515439" lon="8.213200">
        <ele>362.613299</ele>
        <time>2021-11-21T14:24:34.410Z</time>
      </trkpt>
      <trkpt lat="47.515199" lon="8.213043">
        <ele>362.716280</ele>
        <time>2021-11-21T14:24:40.222Z</time>
      </trkpt>
      <trkpt lat="47.515044" lon="8.212902">
        <ele>362.787680</ele>
        <time>2021-11-21T14:24:44.177Z</time>
      </trkpt>
      <trkpt lat="47.514567" lon="8.212469">
        <ele>363.007281</ele>
        <time>2021-11-21T14:24:55.887Z</time>
      </trkpt>
      <trkpt lat="47.514469" lon="8.212440">
        <ele>363.046505</ele>
        <time>2021-11-21T14:24:58.159Z</time>
      </trkpt>
      <trkpt lat="47.514119" lon="8.212384">
        <ele>363.184675</ele>
        <time>2021-11-21T14:25:05.619Z</time>
      </trkpt>
      <trkpt lat="47.513868" lon="8.212369">
        <ele>363.296404</ele>
        <time>2021-11-21T14:25:10.915Z</time>
      </trkpt>
      <trkpt lat="47.513892" lon="8.211277">
        <ele>363.840959</ele>
        <time>2021-11-21T14:25:23.619Z</time>
      </trkpt>
      <trkpt lat="47.513892" lon="8.210732">
        <ele>364.112594</ele>
        <time>2021-11-21T14:25:30.705Z</time>
      </trkpt>
      <trkpt lat="47.513886" lon="8.210522">
        <ele>364.217354</ele>
        <time>2021-11-21T14:25:33.359Z</time>
      </trkpt>
      <trkpt lat="47.513875" lon="8.210161">
        <ele>364.397464</ele>
        <time>2021-11-21T14:25:37.831Z</time>
      </trkpt>
      <trkpt lat="47.513828" lon="8.209683">
        <ele>364.628795</ele>
        <time>2021-11-21T14:25:43.666Z</time>
      </trkpt>
      <trkpt lat="47.513775" lon="8.209324">
        <ele>364.771424</ele>
        <time>2021-11-21T14:25:48.061Z</time>
      </trkpt>
      <trkpt lat="47.513709" lon="8.208886">
        <ele>364.945605</ele>
        <time>2021-11-21T14:25:53.488Z</time>
      </trkpt>
      <trkpt lat="47.513508" lon="8.208805">
        <ele>365.065313</ele>
        <time>2021-11-21T14:25:57.036Z</time>
      </trkpt>
      <trkpt lat="47.512464" lon="8.208323">
        <ele>365.737081</ele>
        <time>2021-11-21T14:26:15.351Z</time>
      </trkpt>
      <trkpt lat="47.512289" lon="8.208244">
        <ele>365.912845</ele>
        <time>2021-11-21T14:26:18.306Z</time>
      </trkpt>
      <trkpt lat="47.511830" lon="8.207951">
        <ele>366.393047</ele>
        <time>2021-11-21T14:26:26.154Z</time>
      </trkpt>
      <trkpt lat="47.511545" lon="8.207730">
        <ele>366.702128</ele>
        <time>2021-11-21T14:26:31.517Z</time>
      </trkpt>
      <trkpt lat="47.511287" lon="8.207539">
        <ele>366.979249</ele>
        <time>2021-11-21T14:26:36.929Z</time>
      </trkpt>
      <trkpt lat="47.511087" lon="8.207326">
        <ele>367.215937</ele>
        <time>2021-11-21T14:26:42.365Z</time>
      </trkpt>
      <trkpt lat="47.510868" lon="8.206975">
        <ele>368.048571</ele>
        <time>2021-11-21T14:26:49.914Z</time>
      </trkpt>
      <trkpt lat="47.510799" lon="8.206834">
        <ele>368.511310</ele>
        <time>2021-11-21T14:26:53.242Z</time>
      </trkpt>
      <trkpt lat="47.510746" lon="8.206745">
        <ele>368.826641</ele>
        <time>2021-11-21T14:26:55.181Z</time>
      </trkpt>
      <trkpt lat="47.510696" lon="8.206660">
        <ele>369.126198</ele>
        <time>2021-11-21T14:26:57.463Z</time>
      </trkpt>
      <trkpt lat="47.510310" lon="8.206228">
        <ele>371.030090</ele>
        <time>2021-11-21T14:27:11.932Z</time>
      </trkpt>
      <trkpt lat="47.510110" lon="8.206036">
        <ele>371.967977</ele>
        <time>2021-11-21T14:27:20.000Z</time>
      </trkpt>
      <trkpt lat="47.509957" lon="8.205884">
        <ele>372.692954</ele>
        <time>2021-11-21T14:27:26.571Z</time>
      </trkpt>
      <trkpt lat="47.509781" lon="8.205702">
        <ele>373.537652</ele>
        <time>2021-11-21T14:27:33.587Z</time>
      </trkpt>
      <trkpt lat="47.509576" lon="8.205502">
        <ele>374.509697</ele>
        <time>2021-11-21T14:27:42.933Z</time>
      </trkpt>
      <trkpt lat="47.509425" lon="8.205362">
        <ele>375.271838</ele>
        <time>2021-11-21T14:27:48.961Z</time>
      </trkpt>
      <trkpt lat="47.509289" lon="8.205248">
        <ele>375.940381</ele>
        <time>2021-11-21T14:27:54.732Z</time>
      </trkpt>
      <trkpt lat="47.509149" lon="8.205132">
        <ele>376.626669</ele>
        <time>2021-11-21T14:27:59.410Z</time>
      </trkpt>
      <trkpt lat="47.509032" lon="8.205060">
        <ele>377.168673</ele>
        <time>2021-11-21T14:28:04.356Z</time>
      </trkpt>
      <trkpt lat="47.509021" lon="8.204884">
        <ele>377.679389</ele>
        <time>2021-11-21T14:28:09.009Z</time>
      </trkpt>
      <trkpt lat="47.508985" lon="8.204741">
        <ele>378.120345</ele>
        <time>2021-11-21T14:28:12.492Z</time>
      </trkpt>
      <trkpt lat="47.508917" lon="8.204543">
        <ele>378.762159</ele>
        <time>2021-11-21T14:28:19.042Z</time>
      </trkpt>
      <trkpt lat="47.508821" lon="8.204282">
        <ele>379.620867</ele>
        <time>2021-11-21T14:28:25.803Z</time>
      </trkpt>
      <trkpt lat="47.508829" lon="8.203955">
        <ele>380.566341</ele>
        <time>2021-11-21T14:28:34.364Z</time>
      </trkpt>
      <trkpt lat="47.508866" lon="8.203850">
        <ele>380.908538</ele>
        <time>2021-11-21T14:28:37.068Z</time>
      </trkpt>
      <trkpt lat="47.509150" lon="8.203272">
        <ele>382.595057</ele>
        <time>2021-11-21T14:28:52.764Z</time>
      </trkpt>
      <trkpt lat="47.509269" lon="8.202990">
        <ele>383.125531</ele>
        <time>2021-11-21T14:29:00.110Z</time>
      </trkpt>
      <trkpt lat="47.509353" lon="8.202637">
        <ele>383.722624</ele>
        <time>2021-11-21T14:29:07.740Z</time>
      </trkpt>
      <trkpt lat="47.509592" lon="8.200917">
        <ele>386.465918</ele>
        <time>2021-11-21T14:29:41.001Z</time>
      </trkpt>
      <trkpt lat="47.509681" lon="8.200064">
        <ele>387.300562</ele>
        <time>2021-11-21T14:29:56.710Z</time>
      </trkpt>
      <trkpt lat="47.509914" lon="8.198214">
        <ele>389.038863</ele>
        <time>2021-11-21T14:30:29.225Z</time>
      </trkpt>
      <trkpt lat="47.509922" lon="8.198171">
        <ele>389.061199</ele>
        <time>2021-11-21T14:30:30.019Z</time>
      </trkpt>
      <trkpt lat="47.510011" lon="8.197478">
        <ele>389.414460</ele>
        <time>2021-11-21T14:30:40.830Z</time>
      </trkpt>
      <trkpt lat="47.510104" lon="8.196715">
        <ele>389.802730</ele>
        <time>2021-11-21T14:30:52.282Z</time>
      </trkpt>
      <trkpt lat="47.510331" lon="8.194861">
        <ele>391.088687</ele>
        <time>2021-11-21T14:31:21.671Z</time>
      </trkpt>
      <trkpt lat="47.510685" lon="8.192072">
        <ele>394.526788</ele>
        <time>2021-11-21T14:32:12.822Z</time>
      </trkpt>
      <trkpt lat="47.510696" lon="8.191960">
        <ele>394.724877</ele>
        <time>2021-11-21T14:32:15.115Z</time>
      </trkpt>
      <trkpt lat="47.510861" lon="8.191928">
        <ele>395.156081</ele>
        <time>2021-11-21T14:32:19.009Z</time>
      </trkpt>
      <trkpt lat="47.511081" lon="8.191859">
        <ele>395.738801</ele>
        <time>2021-11-21T14:32:25.050Z</time>
      </trkpt>
      <trkpt lat="47.511365" lon="8.191770">
        <ele>396.491013</ele>
        <time>2021-11-21T14:32:33.292Z</time>
      </trkpt>
      <trkpt lat="47.511473" lon="8.191711">
        <ele>396.789309</ele>
        <time>2021-11-21T14:32:36.434Z</time>
      </trkpt>
      <trkpt lat="47.511548" lon="8.191673">
        <ele>396.994716</ele>
        <time>2021-11-21T14:32:38.803Z</time>
      </trkpt>
      <trkpt lat="47.511503" lon="8.191538">
        <ele>397.258202</ele>
        <time>2021-11-21T14:32:42.069Z</time>
      </trkpt>
      <trkpt lat="47.511480" lon="8.191489">
        <ele>397.459819</ele>
        <time>2021-11-21T14:32:43.736Z</time>
      </trkpt>
      <trkpt lat="47.511195" lon="8.190842">
        <ele>400.205309</ele>
        <time>2021-11-21T14:33:03.135Z</time>
      </trkpt>
      <trkpt lat="47.511107" lon="8.190519">
        <ele>401.443247</ele>
        <time>2021-11-21T14:33:12.970Z</time>
      </trkpt>
      <trkpt lat="47.511047" lon="8.190214">
        <ele>402.572375</ele>
        <time>2021-11-21T14:33:22.369Z</time>
      </trkpt>
      <trkpt lat="47.510882" lon="8.189435">
        <ele>405.474188</ele>
        <time>2021-11-21T14:33:46.467Z</time>
      </trkpt>
      <trkpt lat="47.510767" lon="8.188976">
        <ele>407.333711</ele>
        <time>2021-11-21T14:34:01.065Z</time>
      </trkpt>
      <trkpt lat="47.510603" lon="8.188275">
        <ele>410.625336</ele>
        <time>2021-11-21T14:34:24.723Z</time>
      </trkpt>
      <trkpt lat="47.510377" lon="8.187197">
        <ele>415.633536</ele>
        <time>2021-11-21T14:35:00.648Z</time>
      </trkpt>
      <trkpt lat="47.510128" lon="8.186327">
        <ele>419.968984</ele>
        <time>2021-11-21T14:35:30.867Z</time>
      </trkpt>
      <trkpt lat="47.510052" lon="8.186096">
        <ele>421.236663</ele>
        <time>2021-11-21T14:35:39.014Z</time>
      </trkpt>
      <trkpt lat="47.509919" lon="8.185768">
        <ele>423.124102</ele>
        <time>2021-11-21T14:35:50.132Z</time>
      </trkpt>
      <trkpt lat="47.509786" lon="8.185474">
        <ele>424.869861</ele>
        <time>2021-11-21T14:36:01.305Z</time>
      </trkpt>
      <trkpt lat="47.509617" lon="8.184928">
        <ele>427.833016</ele>
        <time>2021-11-21T14:36:21.535Z</time>
      </trkpt>
      <trkpt lat="47.509381" lon="8.183901">
        <ele>433.653849</ele>
        <time>2021-11-21T14:37:00.774Z</time>
      </trkpt>
      <trkpt lat="47.509183" lon="8.183139">
        <ele>438.941344</ele>
        <time>2021-11-21T14:37:31.466Z</time>
      </trkpt>
      <trkpt lat="47.508585" lon="8.181852">
        <ele>449.077465</ele>
        <time>2021-11-21T14:38:35.650Z</time>
      </trkpt>
      <trkpt lat="47.508201" lon="8.181335">
        <ele>454.817228</ele>
        <time>2021-11-21T14:39:09.954Z</time>
      </trkpt>
      <trkpt lat="47.507652" lon="8.180805">
        <ele>462.064955</ele>
        <time>2021-11-21T14:39:50.441Z</time>
      </trkpt>
      <trkpt lat="47.507553" lon="8.180721">
        <ele>463.326781</ele>
        <time>2021-11-21T14:39:58.621Z</time>
      </trkpt>
      <trkpt lat="47.507430" lon="8.180615">
        <ele>464.900619</ele>
        <time>2021-11-21T14:40:07.155Z</time>
      </trkpt>
      <trkpt lat="47.506365" lon="8.179981">
        <ele>477.854576</ele>
        <time>2021-11-21T14:41:25.907Z</time>
      </trkpt>
      <trkpt lat="47.506131" lon="8.179709">
        <ele>481.242230</ele>
        <time>2021-11-21T14:41:48.832Z</time>
      </trkpt>
      <trkpt lat="47.505832" lon="8.179262">
        <ele>486.080834</ele>
        <time>2021-11-21T14:42:15.348Z</time>
      </trkpt>
      <trkpt lat="47.505251" lon="8.178301">
        <ele>492.404951</ele>
        <time>2021-11-21T14:43:04.833Z</time>
      </trkpt>
      <trkpt lat="47.504903" lon="8.177799">
        <ele>494.968240</ele>
        <time>2021-11-21T14:43:27.486Z</time>
      </trkpt>
      <trkpt lat="47.504359" lon="8.176727">
        <ele>498.313896</ele>
        <time>2021-11-21T14:43:53.546Z</time>
      </trkpt>
      <trkpt lat="47.503578" lon="8.174407">
        <ele>493.968012</ele>
        <time>2021-11-21T14:44:18.245Z</time>
      </trkpt>
      <trkpt lat="47.503241" lon="8.173095">
        <ele>493.214969</ele>
        <time>2021-11-21T14:44:32.853Z</time>
      </trkpt>
      <trkpt lat="47.503046" lon="8.172726">
        <ele>492.963626</ele>
        <time>2021-11-21T14:44:40.285Z</time>
      </trkpt>
      <trkpt lat="47.502811" lon="8.172326">
        <ele>492.679227</ele>
        <time>2021-11-21T14:44:50.517Z</time>
      </trkpt>
      <trkpt lat="47.502619" lon="8.171809">
        <ele>494.411282</ele>
        <time>2021-11-21T14:45:03.365Z</time>
      </trkpt>
      <trkpt lat="47.502508" lon="8.171201">
        <ele>496.517978</ele>
        <time>2021-11-21T14:45:19.644Z</time>
      </trkpt>
      <trkpt lat="47.502485" lon="8.170923">
        <ele>497.454827</ele>
        <time>2021-11-21T14:45:27.268Z</time>
      </trkpt>
      <trkpt lat="47.502484" lon="8.170679">
        <ele>498.271016</ele>
        <time>2021-11-21T14:45:34.810Z</time>
      </trkpt>
      <trkpt lat="47.502671" lon="8.169362">
        <ele>503.063272</ele>
        <time>2021-11-21T14:46:16.307Z</time>
      </trkpt>
      <trkpt lat="47.502683" lon="8.169092">
        <ele>504.183858</ele>
        <time>2021-11-21T14:46:25.591Z</time>
      </trkpt>
      <trkpt lat="47.502673" lon="8.169021">
        <ele>504.484217</ele>
        <time>2021-11-21T14:46:28.299Z</time>
      </trkpt>
      <trkpt lat="47.502592" lon="8.168598">
        <ele>506.305032</ele>
        <time>2021-11-21T14:46:42.530Z</time>
      </trkpt>
      <trkpt lat="47.502442" lon="8.168297">
        <ele>507.854052</ele>
        <time>2021-11-21T14:46:52.799Z</time>
      </trkpt>
      <trkpt lat="47.502350" lon="8.168167">
        <ele>508.633755</ele>
        <time>2021-11-21T14:46:58.791Z</time>
      </trkpt>
      <trkpt lat="47.502034" lon="8.167757">
        <ele>511.209754</ele>
        <time>2021-11-21T14:47:17.302Z</time>
      </trkpt>
      <trkpt lat="47.500134" lon="8.165378">
        <ele>523.902929</ele>
        <time>2021-11-21T14:49:00.278Z</time>
      </trkpt>
      <trkpt lat="47.499926" lon="8.165012">
        <ele>525.174054</ele>
        <time>2021-11-21T14:49:11.616Z</time>
      </trkpt>
      <trkpt lat="47.499842" lon="8.164848">
        <ele>525.721028</ele>
        <time>2021-11-21T14:49:17.000Z</time>
      </trkpt>
      <trkpt lat="47.499759" lon="8.164579">
        <ele>526.506995</ele>
        <time>2021-11-21T14:49:23.103Z</time>
      </trkpt>
      <trkpt lat="47.499702" lon="8.164369">
        <ele>527.108483</ele>
        <time>2021-11-21T14:49:28.870Z</time>
      </trkpt>
      <trkpt lat="47.499674" lon="8.164221">
        <ele>527.516962</ele>
        <time>2021-11-21T14:49:31.876Z</time>
      </trkpt>
      <trkpt lat="47.499606" lon="8.163585">
        <ele>529.197928</ele>
        <time>2021-11-21T14:49:45.701Z</time>
      </trkpt>
      <trkpt lat="47.499593" lon="8.163439">
        <ele>529.450712</ele>
        <time>2021-11-21T14:49:49.371Z</time>
      </trkpt>
      <trkpt lat="47.499570" lon="8.163256">
        <ele>529.770232</ele>
        <time>2021-11-21T14:49:53.649Z</time>
      </trkpt>
      <trkpt lat="47.499561" lon="8.163178">
        <ele>529.906063</ele>
        <time>2021-11-21T14:49:55.158Z</time>
      </trkpt>
      <trkpt lat="47.499529" lon="8.163016">
        <ele>530.195788</ele>
        <time>2021-11-21T14:49:58.431Z</time>
      </trkpt>
      <trkpt lat="47.499421" lon="8.162591">
        <ele>530.975228</ele>
        <time>2021-11-21T14:50:08.364Z</time>
      </trkpt>
      <trkpt lat="47.499404" lon="8.162533">
        <ele>531.083755</ele>
        <time>2021-11-21T14:50:09.494Z</time>
      </trkpt>
      <trkpt lat="47.499391" lon="8.162488">
        <ele>531.167766</ele>
        <time>2021-11-21T14:50:10.820Z</time>
      </trkpt>
      <trkpt lat="47.499263" lon="8.162040">
        <ele>532.002731</ele>
        <time>2021-11-21T14:50:20.121Z</time>
      </trkpt>
      <trkpt lat="47.499203" lon="8.161843">
        <ele>532.373670</ele>
        <time>2021-11-21T14:50:24.842Z</time>
      </trkpt>
      <trkpt lat="47.499088" lon="8.161438">
        <ele>533.127790</ele>
        <time>2021-11-21T14:50:33.416Z</time>
      </trkpt>
      <trkpt lat="47.498981" lon="8.161060">
        <ele>533.794699</ele>
        <time>2021-11-21T14:50:41.042Z</time>
      </trkpt>
      <trkpt lat="47.498881" lon="8.160699">
        <ele>534.258096</ele>
        <time>2021-11-21T14:50:47.443Z</time>
      </trkpt>
      <trkpt lat="47.498832" lon="8.160548">
        <ele>534.457053</ele>
        <time>2021-11-21T14:50:49.927Z</time>
      </trkpt>
      <trkpt lat="47.498784" lon="8.160412">
        <ele>534.639292</ele>
        <time>2021-11-21T14:50:52.662Z</time>
      </trkpt>
      <trkpt lat="47.498722" lon="8.160237">
        <ele>534.873983</ele>
        <time>2021-11-21T14:50:55.596Z</time>
      </trkpt>
      <trkpt lat="47.498560" lon="8.159790">
        <ele>535.476447</ele>
        <time>2021-11-21T14:51:03.190Z</time>
      </trkpt>
      <trkpt lat="47.498196" lon="8.158878">
        <ele>536.734527</ele>
        <time>2021-11-21T14:51:17.654Z</time>
      </trkpt>
      <trkpt lat="47.497875" lon="8.158014">
        <ele>538.360643</ele>
        <time>2021-11-21T14:51:30.952Z</time>
      </trkpt>
      <trkpt lat="47.497827" lon="8.157898">
        <ele>538.593494</ele>
        <time>2021-11-21T14:51:33.795Z</time>
      </trkpt>
      <trkpt lat="47.497717" lon="8.157596">
        <ele>539.180797</ele>
        <time>2021-11-21T14:51:39.308Z</time>
      </trkpt>
      <trkpt lat="47.497677" lon="8.157483">
        <ele>539.399172</ele>
        <time>2021-11-21T14:51:41.700Z</time>
      </trkpt>
      <trkpt lat="47.497620" lon="8.157313">
        <ele>539.724043</ele>
        <time>2021-11-21T14:51:44.848Z</time>
      </trkpt>
      <trkpt lat="47.497556" lon="8.157098">
        <ele>540.126218</ele>
        <time>2021-11-21T14:51:49.153Z</time>
      </trkpt>
      <trkpt lat="47.497515" lon="8.156974">
        <ele>540.362538</ele>
        <time>2021-11-21T14:51:52.121Z</time>
      </trkpt>
      <trkpt lat="47.497410" lon="8.156510">
        <ele>541.200184</ele>
        <time>2021-11-21T14:52:01.241Z</time>
      </trkpt>
      <trkpt lat="47.497401" lon="8.156439">
        <ele>541.323842</ele>
        <time>2021-11-21T14:52:03.106Z</time>
      </trkpt>
      <trkpt lat="47.497395" lon="8.156369">
        <ele>541.447877</ele>
        <time>2021-11-21T14:52:04.327Z</time>
      </trkpt>
      <trkpt lat="47.497390" lon="8.156282">
        <ele>541.634633</ele>
        <time>2021-11-21T14:52:05.635Z</time>
      </trkpt>
      <trkpt lat="47.497386" lon="8.156131">
        <ele>541.957854</ele>
        <time>2021-11-21T14:52:08.707Z</time>
      </trkpt>
      <trkpt lat="47.497388" lon="8.155994">
        <ele>542.250952</ele>
        <time>2021-11-21T14:52:11.590Z</time>
      </trkpt>
      <trkpt lat="47.497390" lon="8.155891">
        <ele>542.471349</ele>
        <time>2021-11-21T14:52:14.177Z</time>
      </trkpt>
      <trkpt lat="47.497382" lon="8.155739">
        <ele>542.797446</ele>
        <time>2021-11-21T14:52:16.670Z</time>
      </trkpt>
      <trkpt lat="47.497376" lon="8.155653">
        <ele>542.982369</ele>
        <time>2021-11-21T14:52:18.389Z</time>
      </trkpt>
      <trkpt lat="47.497351" lon="8.155541">
        <ele>543.234661</ele>
        <time>2021-11-21T14:52:20.937Z</time>
      </trkpt>
      <trkpt lat="47.497215" lon="8.155097">
        <ele>544.277374</ele>
        <time>2021-11-21T14:52:30.948Z</time>
      </trkpt>
      <trkpt lat="47.497059" lon="8.154725">
        <ele>545.213856</ele>
        <time>2021-11-21T14:52:39.470Z</time>
      </trkpt>
      <trkpt lat="47.497011" lon="8.154633">
        <ele>545.462480</ele>
        <time>2021-11-21T14:52:42.126Z</time>
      </trkpt>
      <trkpt lat="47.496927" lon="8.154519">
        <ele>545.823275</ele>
        <time>2021-11-21T14:52:45.330Z</time>
      </trkpt>
      <trkpt lat="47.496872" lon="8.154444">
        <ele>546.060028</ele>
        <time>2021-11-21T14:52:47.173Z</time>
      </trkpt>
      <trkpt lat="47.496925" lon="8.154496">
        <ele>546.261332</ele>
        <time>2021-11-21T14:52:54.731Z</time>
      </trkpt>
      <trkpt lat="47.496872" lon="8.154444">
        <ele>546.462637</ele>
        <time>2021-11-21T14:53:02.644Z</time>
      </trkpt>
      <trkpt lat="47.496673" lon="8.154171">
        <ele>547.176248</ele>
        <time>2021-11-21T14:53:08.762Z</time>
      </trkpt>
      <trkpt lat="47.496607" lon="8.154090">
        <ele>547.246201</ele>
        <time>2021-11-21T14:53:10.679Z</time>
      </trkpt>
      <trkpt lat="47.496354" lon="8.153743">
        <ele>547.527623</ele>
        <time>2021-11-21T14:53:16.814Z</time>
      </trkpt>
      <trkpt lat="47.496295" lon="8.153600">
        <ele>547.619988</ele>
        <time>2021-11-21T14:53:19.339Z</time>
      </trkpt>
      <trkpt lat="47.496252" lon="8.153481">
        <ele>547.694379</ele>
        <time>2021-11-21T14:53:20.463Z</time>
      </trkpt>
      <trkpt lat="47.496043" lon="8.152517">
        <ele>548.252474</ele>
        <time>2021-11-21T14:53:31.341Z</time>
      </trkpt>
      <trkpt lat="47.496031" lon="8.152401">
        <ele>548.317164</ele>
        <time>2021-11-21T14:53:32.345Z</time>
      </trkpt>
      <trkpt lat="47.496013" lon="8.152224">
        <ele>548.415835</ele>
        <time>2021-11-21T14:53:34.259Z</time>
      </trkpt>
      <trkpt lat="47.495980" lon="8.151500">
        <ele>548.933705</ele>
        <time>2021-11-21T14:53:43.108Z</time>
      </trkpt>
      <trkpt lat="47.495926" lon="8.150795">
        <ele>549.531932</ele>
        <time>2021-11-21T14:53:52.238Z</time>
      </trkpt>
      <trkpt lat="47.495907" lon="8.150548">
        <ele>549.741535</ele>
        <time>2021-11-21T14:53:55.947Z</time>
      </trkpt>
      <trkpt lat="47.495916" lon="8.150228">
        <ele>550.011576</ele>
        <time>2021-11-21T14:54:00.203Z</time>
      </trkpt>
      <trkpt lat="47.496064" lon="8.149222">
        <ele>550.862615</ele>
        <time>2021-11-21T14:54:15.060Z</time>
      </trkpt>
      <trkpt lat="47.496100" lon="8.148965">
        <ele>550.993728</ele>
        <time>2021-11-21T14:54:18.943Z</time>
      </trkpt>
      <trkpt lat="47.496114" lon="8.148836">
        <ele>551.058994</ele>
        <time>2021-11-21T14:54:20.905Z</time>
      </trkpt>
      <trkpt lat="47.496081" lon="8.148674">
        <ele>551.143518</ele>
        <time>2021-11-21T14:54:23.166Z</time>
      </trkpt>
      <trkpt lat="47.496048" lon="8.148514">
        <ele>551.227086</ele>
        <time>2021-11-21T14:54:25.502Z</time>
      </trkpt>
      <trkpt lat="47.495811" lon="8.147525">
        <ele>551.751289</ele>
        <time>2021-11-21T14:54:38.781Z</time>
      </trkpt>
      <trkpt lat="47.495531" lon="8.146431">
        <ele>552.177816</ele>
        <time>2021-11-21T14:54:49.872Z</time>
      </trkpt>
      <trkpt lat="47.495330" lon="8.146238">
        <ele>552.188500</ele>
        <time>2021-11-21T14:54:52.888Z</time>
      </trkpt>
      <trkpt lat="47.495291" lon="8.146216">
        <ele>552.190361</ele>
        <time>2021-11-21T14:54:53.479Z</time>
      </trkpt>
      <trkpt lat="47.495167" lon="8.146162">
        <ele>552.196125</ele>
        <time>2021-11-21T14:54:55.118Z</time>
      </trkpt>
      <trkpt lat="47.494550" lon="8.146113">
        <ele>552.223678</ele>
        <time>2021-11-21T14:55:03.864Z</time>
      </trkpt>
      <trkpt lat="47.494476" lon="8.146116">
        <ele>552.226979</ele>
        <time>2021-11-21T14:55:04.882Z</time>
      </trkpt>
      <trkpt lat="47.494351" lon="8.146113">
        <ele>552.232553</ele>
        <time>2021-11-21T14:55:06.630Z</time>
      </trkpt>
      <trkpt lat="47.492464" lon="8.146635">
        <ele>554.611403</ele>
        <time>2021-11-21T14:55:44.131Z</time>
      </trkpt>
      <trkpt lat="47.492241" lon="8.146624">
        <ele>554.946833</ele>
        <time>2021-11-21T14:55:49.464Z</time>
      </trkpt>
      <trkpt lat="47.492125" lon="8.146571">
        <ele>555.480245</ele>
        <time>2021-11-21T14:55:53.196Z</time>
      </trkpt>
      <trkpt lat="47.492088" lon="8.146482">
        <ele>555.790476</ele>
        <time>2021-11-21T14:55:55.031Z</time>
      </trkpt>
      <trkpt lat="47.492079" lon="8.146009">
        <ele>557.195289</ele>
        <time>2021-11-21T14:56:04.405Z</time>
      </trkpt>
      <trkpt lat="47.492082" lon="8.145838">
        <ele>557.703130</ele>
        <time>2021-11-21T14:56:07.680Z</time>
      </trkpt>
      <trkpt lat="47.492088" lon="8.145254">
        <ele>559.437126</ele>
        <time>2021-11-21T14:56:20.609Z</time>
      </trkpt>
      <trkpt lat="47.492088" lon="8.145158">
        <ele>559.722134</ele>
        <time>2021-11-21T14:56:22.837Z</time>
      </trkpt>
      <trkpt lat="47.492088" lon="8.144557">
        <ele>561.506399</ele>
        <time>2021-11-21T14:56:37.990Z</time>
      </trkpt>
      <trkpt lat="47.492087" lon="8.144186">
        <ele>562.607843</ele>
        <time>2021-11-21T14:56:47.536Z</time>
      </trkpt>
      <trkpt lat="47.492087" lon="8.143971">
        <ele>563.339787</ele>
        <time>2021-11-21T14:56:53.016Z</time>
      </trkpt>
      <trkpt lat="47.492053" lon="8.143800">
        <ele>563.993599</ele>
        <time>2021-11-21T14:56:57.102Z</time>
      </trkpt>
      <trkpt lat="47.492011" lon="8.143597">
        <ele>564.772317</ele>
        <time>2021-11-21T14:57:02.873Z</time>
      </trkpt>
      <trkpt lat="47.491965" lon="8.143321">
        <ele>565.815016</ele>
        <time>2021-11-21T14:57:09.609Z</time>
      </trkpt>
      <trkpt lat="47.491953" lon="8.143034">
        <ele>566.869734</ele>
        <time>2021-11-21T14:57:17.023Z</time>
      </trkpt>
      <trkpt lat="47.491957" lon="8.142795">
        <ele>567.746645</ele>
        <time>2021-11-21T14:57:23.933Z</time>
      </trkpt>
      <trkpt lat="47.491977" lon="8.142556">
        <ele>568.629985</ele>
        <time>2021-11-21T14:57:29.944Z</time>
      </trkpt>
      <trkpt lat="47.492031" lon="8.142263">
        <ele>569.743956</ele>
        <time>2021-11-21T14:57:37.998Z</time>
      </trkpt>
      <trkpt lat="47.492091" lon="8.142144">
        <ele>570.288571</ele>
        <time>2021-11-21T14:57:41.518Z</time>
      </trkpt>
      <trkpt lat="47.492178" lon="8.141991">
        <ele>571.022044</ele>
        <time>2021-11-21T14:57:46.471Z</time>
      </trkpt>
      <trkpt lat="47.492604" lon="8.141229">
        <ele>573.518919</ele>
        <time>2021-11-21T14:58:08.599Z</time>
      </trkpt>
      <trkpt lat="47.492634" lon="8.141132">
        <ele>573.693042</ele>
        <time>2021-11-21T14:58:11.030Z</time>
      </trkpt>
      <trkpt lat="47.492651" lon="8.141002">
        <ele>573.909168</ele>
        <time>2021-11-21T14:58:14.121Z</time>
      </trkpt>
      <trkpt lat="47.492379" lon="8.138603">
        <ele>576.788876</ele>
        <time>2021-11-21T14:58:47.818Z</time>
      </trkpt>
      <trkpt lat="47.492359" lon="8.138479">
        <ele>576.750906</ele>
        <time>2021-11-21T14:58:48.853Z</time>
      </trkpt>
      <trkpt lat="47.492313" lon="8.138377">
        <ele>576.714381</ele>
        <time>2021-11-21T14:58:49.947Z</time>
      </trkpt>
      <trkpt lat="47.492211" lon="8.138284">
        <ele>576.661572</ele>
        <time>2021-11-21T14:58:51.488Z</time>
      </trkpt>
      <trkpt lat="47.492088" lon="8.138269">
        <ele>576.607170</ele>
        <time>2021-11-21T14:58:52.975Z</time>
      </trkpt>
      <trkpt lat="47.491600" lon="8.138244">
        <ele>576.391933</ele>
        <time>2021-11-21T14:58:58.869Z</time>
      </trkpt>
      <trkpt lat="47.491438" lon="8.138230">
        <ele>576.320402</ele>
        <time>2021-11-21T14:59:00.818Z</time>
      </trkpt>
      <trkpt lat="47.490906" lon="8.138091">
        <ele>576.151102</ele>
        <time>2021-11-21T14:59:07.104Z</time>
      </trkpt>
      <trkpt lat="47.490479" lon="8.137973">
        <ele>576.120179</ele>
        <time>2021-11-21T14:59:12.535Z</time>
      </trkpt>
      <trkpt lat="47.490265" lon="8.137935">
        <ele>576.104835</ele>
        <time>2021-11-21T14:59:15.517Z</time>
      </trkpt>
      <trkpt lat="47.489423" lon="8.137655">
        <ele>576.043400</ele>
        <time>2021-11-21T14:59:29.898Z</time>
      </trkpt>
      <trkpt lat="47.488954" lon="8.137431">
        <ele>576.578179</ele>
        <time>2021-11-21T14:59:39.299Z</time>
      </trkpt>
      <trkpt lat="47.488837" lon="8.137371">
        <ele>576.748772</ele>
        <time>2021-11-21T14:59:41.728Z</time>
      </trkpt>
      <trkpt lat="47.488649" lon="8.137254">
        <ele>577.029748</ele>
        <time>2021-11-21T14:59:46.110Z</time>
      </trkpt>
      <trkpt lat="47.488465" lon="8.137151">
        <ele>577.300771</ele>
        <time>2021-11-21T14:59:50.154Z</time>
      </trkpt>
      <trkpt lat="47.488213" lon="8.137151">
        <ele>577.647947</ele>
        <time>2021-11-21T14:59:55.553Z</time>
      </trkpt>
      <trkpt lat="47.487735" lon="8.137374">
        <ele>578.338429</ele>
        <time>2021-11-21T15:00:06.750Z</time>
      </trkpt>
      <trkpt lat="47.487220" lon="8.137494">
        <ele>578.825772</ele>
        <time>2021-11-21T15:00:17.753Z</time>
      </trkpt>
      <trkpt lat="47.486647" lon="8.137734">
        <ele>579.296931</ele>
        <time>2021-11-21T15:00:27.607Z</time>
      </trkpt>
      <trkpt lat="47.486625" lon="8.137748">
        <ele>579.315878</ele>
        <time>2021-11-21T15:00:28.376Z</time>
      </trkpt>
      <trkpt lat="47.486500" lon="8.137887">
        <ele>579.439587</ele>
        <time>2021-11-21T15:00:31.033Z</time>
      </trkpt>
      <trkpt lat="47.486480" lon="8.137926">
        <ele>579.465762</ele>
        <time>2021-11-21T15:00:32.300Z</time>
      </trkpt>
      <trkpt lat="47.486385" lon="8.138090">
        <ele>579.581252</ele>
        <time>2021-11-21T15:00:37.593Z</time>
      </trkpt>
      <trkpt lat="47.486354" lon="8.138161">
        <ele>579.626447</ele>
        <time>2021-11-21T15:00:40.107Z</time>
      </trkpt>
      <trkpt lat="47.486244" lon="8.138406">
        <ele>579.783714</ele>
        <time>2021-11-21T15:00:47.746Z</time>
      </trkpt>
      <trkpt lat="47.486150" lon="8.138614">
        <ele>579.917499</ele>
        <time>2021-11-21T15:00:54.385Z</time>
      </trkpt>
      <trkpt lat="47.485914" lon="8.138973">
        <ele>579.979788</ele>
        <time>2021-11-21T15:01:07.542Z</time>
      </trkpt>
      <trkpt lat="47.485769" lon="8.139093">
        <ele>580.002292</ele>
        <time>2021-11-21T15:01:14.079Z</time>
      </trkpt>
      <trkpt lat="47.485679" lon="8.139129">
        <ele>580.014921</ele>
        <time>2021-11-21T15:01:17.249Z</time>
      </trkpt>
      <trkpt lat="47.485614" lon="8.139130">
        <ele>580.023726</ele>
        <time>2021-11-21T15:01:18.575Z</time>
      </trkpt>
      <trkpt lat="47.485087" lon="8.139024">
        <ele>580.095767</ele>
        <time>2021-11-21T15:01:27.278Z</time>
      </trkpt>
      <trkpt lat="47.484611" lon="8.138600">
        <ele>580.171024</ele>
        <time>2021-11-21T15:01:36.228Z</time>
      </trkpt>
      <trkpt lat="47.484101" lon="8.138667">
        <ele>579.156149</ele>
        <time>2021-11-21T15:01:42.374Z</time>
      </trkpt>
      <trkpt lat="47.483932" lon="8.138672">
        <ele>578.761136</ele>
        <time>2021-11-21T15:01:44.243Z</time>
      </trkpt>
      <trkpt lat="47.483799" lon="8.138672">
        <ele>578.450329</ele>
        <time>2021-11-21T15:01:45.818Z</time>
      </trkpt>
      <trkpt lat="47.483055" lon="8.138704">
        <ele>576.710949</ele>
        <time>2021-11-21T15:01:53.316Z</time>
      </trkpt>
      <trkpt lat="47.482993" lon="8.138736">
        <ele>576.557500</ele>
        <time>2021-11-21T15:01:54.055Z</time>
      </trkpt>
      <trkpt lat="47.482938" lon="8.138763">
        <ele>576.422083</ele>
        <time>2021-11-21T15:01:54.551Z</time>
      </trkpt>
      <trkpt lat="47.482382" lon="8.139311">
        <ele>574.733391</ele>
        <time>2021-11-21T15:02:01.762Z</time>
      </trkpt>
      <trkpt lat="47.482314" lon="8.139339">
        <ele>574.549609</ele>
        <time>2021-11-21T15:02:02.368Z</time>
      </trkpt>
      <trkpt lat="47.482269" lon="8.139354">
        <ele>574.429504</ele>
        <time>2021-11-21T15:02:02.832Z</time>
      </trkpt>
      <trkpt lat="47.481930" lon="8.139364">
        <ele>573.546660</ele>
        <time>2021-11-21T15:02:06.255Z</time>
      </trkpt>
      <trkpt lat="47.481795" lon="8.139350">
        <ele>573.194293</ele>
        <time>2021-11-21T15:02:07.665Z</time>
      </trkpt>
      <trkpt lat="47.481570" lon="8.139330">
        <ele>572.607395</ele>
        <time>2021-11-21T15:02:09.921Z</time>
      </trkpt>
      <trkpt lat="47.481334" lon="8.139233">
        <ele>571.969646</ele>
        <time>2021-11-21T15:02:13.364Z</time>
      </trkpt>
      <trkpt lat="47.481211" lon="8.139188">
        <ele>571.639741</ele>
        <time>2021-11-21T15:02:14.620Z</time>
      </trkpt>
      <trkpt lat="47.481047" lon="8.139151">
        <ele>571.235530</ele>
        <time>2021-11-21T15:02:16.889Z</time>
      </trkpt>
      <trkpt lat="47.480997" lon="8.139156">
        <ele>571.146767</ele>
        <time>2021-11-21T15:02:18.203Z</time>
      </trkpt>
      <trkpt lat="47.480931" lon="8.138738">
        <ele>570.632927</ele>
        <time>2021-11-21T15:02:21.323Z</time>
      </trkpt>
      <trkpt lat="47.480926" lon="8.138706">
        <ele>570.593611</ele>
        <time>2021-11-21T15:02:22.558Z</time>
      </trkpt>
      <trkpt lat="47.480849" lon="8.138227">
        <ele>570.004227</ele>
        <time>2021-11-21T15:02:27.201Z</time>
      </trkpt>
      <trkpt lat="47.480729" lon="8.137479">
        <ele>569.083951</ele>
        <time>2021-11-21T15:02:34.398Z</time>
      </trkpt>
      <trkpt lat="47.480611" lon="8.136738">
        <ele>568.172642</ele>
        <time>2021-11-21T15:02:39.474Z</time>
      </trkpt>
      <trkpt lat="47.480497" lon="8.136071">
        <ele>565.648283</ele>
        <time>2021-11-21T15:02:43.963Z</time>
      </trkpt>
      <trkpt lat="47.480445" lon="8.135745">
        <ele>564.349650</ele>
        <time>2021-11-21T15:02:46.037Z</time>
      </trkpt>
      <trkpt lat="47.480428" lon="8.135495">
        <ele>563.375501</ele>
        <time>2021-11-21T15:02:47.634Z</time>
      </trkpt>
      <trkpt lat="47.480431" lon="8.135333">
        <ele>562.747188</ele>
        <time>2021-11-21T15:02:48.587Z</time>
      </trkpt>
      <trkpt lat="47.480460" lon="8.135036">
        <ele>561.583757</ele>
        <time>2021-11-21T15:02:50.504Z</time>
      </trkpt>
      <trkpt lat="47.480608" lon="8.134090">
        <ele>557.819116</ele>
        <time>2021-11-21T15:02:56.407Z</time>
      </trkpt>
      <trkpt lat="47.480724" lon="8.133367">
        <ele>554.893834</ele>
        <time>2021-11-21T15:03:00.929Z</time>
      </trkpt>
      <trkpt lat="47.480899" lon="8.132641">
        <ele>551.859055</ele>
        <time>2021-11-21T15:03:05.641Z</time>
      </trkpt>
      <trkpt lat="47.481323" lon="8.131382">
        <ele>546.718420</ele>
        <time>2021-11-21T15:03:14.628Z</time>
      </trkpt>
      <trkpt lat="47.481421" lon="8.131045">
        <ele>545.853197</ele>
        <time>2021-11-21T15:03:17.101Z</time>
      </trkpt>
      <trkpt lat="47.481509" lon="8.130687">
        <ele>544.954790</ele>
        <time>2021-11-21T15:03:19.839Z</time>
      </trkpt>
      <trkpt lat="47.481589" lon="8.129851">
        <ele>542.963533</ele>
        <time>2021-11-21T15:03:25.594Z</time>
      </trkpt>
      <trkpt lat="47.481607" lon="8.129456">
        <ele>542.029865</ele>
        <time>2021-11-21T15:03:28.238Z</time>
      </trkpt>
      <trkpt lat="47.481655" lon="8.128429">
        <ele>540.299898</ele>
        <time>2021-11-21T15:03:35.314Z</time>
      </trkpt>
      <trkpt lat="47.481690" lon="8.127694">
        <ele>539.407963</ele>
        <time>2021-11-21T15:03:40.807Z</time>
      </trkpt>
      <trkpt lat="47.481722" lon="8.127177">
        <ele>538.779507</ele>
        <time>2021-11-21T15:03:44.893Z</time>
      </trkpt>
      <trkpt lat="47.481779" lon="8.126701">
        <ele>538.194326</ele>
        <time>2021-11-21T15:03:49.158Z</time>
      </trkpt>
      <trkpt lat="47.481879" lon="8.126325">
        <ele>537.807536</ele>
        <time>2021-11-21T15:03:52.562Z</time>
      </trkpt>
      <trkpt lat="47.481997" lon="8.125997">
        <ele>537.780087</ele>
        <time>2021-11-21T15:03:55.332Z</time>
      </trkpt>
      <trkpt lat="47.482507" lon="8.124964">
        <ele>537.685584</ele>
        <time>2021-11-21T15:04:08.829Z</time>
      </trkpt>
      <trkpt lat="47.482747" lon="8.124448">
        <ele>537.639311</ele>
        <time>2021-11-21T15:04:15.899Z</time>
      </trkpt>
      <trkpt lat="47.482968" lon="8.123897">
        <ele>537.630697</ele>
        <time>2021-11-21T15:04:22.906Z</time>
      </trkpt>
      <trkpt lat="47.483204" lon="8.123277">
        <ele>537.657623</ele>
        <time>2021-11-21T15:04:29.664Z</time>
      </trkpt>
      <trkpt lat="47.483395" lon="8.122774">
        <ele>537.679455</ele>
        <time>2021-11-21T15:04:35.372Z</time>
      </trkpt>
      <trkpt lat="47.483715" lon="8.122061">
        <ele>537.711842</ele>
        <time>2021-11-21T15:04:43.751Z</time>
      </trkpt>
      <trkpt lat="47.483747" lon="8.122015">
        <ele>537.714340</ele>
        <time>2021-11-21T15:04:44.220Z</time>
      </trkpt>
      <trkpt lat="47.483830" lon="8.121913">
        <ele>537.725880</ele>
        <time>2021-11-21T15:04:46.420Z</time>
      </trkpt>
      <trkpt lat="47.483946" lon="8.121799">
        <ele>537.754192</ele>
        <time>2021-11-21T15:04:49.114Z</time>
      </trkpt>
      <trkpt lat="47.484027" lon="8.121739">
        <ele>537.772608</ele>
        <time>2021-11-21T15:04:50.309Z</time>
      </trkpt>
      <trkpt lat="47.484058" lon="8.121717">
        <ele>537.779598</ele>
        <time>2021-11-21T15:04:50.706Z</time>
      </trkpt>
      <trkpt lat="47.484367" lon="8.121479">
        <ele>537.850423</ele>
        <time>2021-11-21T15:04:56.294Z</time>
      </trkpt>
      <trkpt lat="47.484520" lon="8.121330">
        <ele>537.887662</ele>
        <time>2021-11-21T15:04:59.864Z</time>
      </trkpt>
      <trkpt lat="47.484688" lon="8.121120">
        <ele>537.932374</ele>
        <time>2021-11-21T15:05:03.138Z</time>
      </trkpt>
      <trkpt lat="47.484812" lon="8.120917">
        <ele>537.969971</ele>
        <time>2021-11-21T15:05:06.643Z</time>
      </trkpt>
      <trkpt lat="47.484889" lon="8.120748">
        <ele>537.997976</ele>
        <time>2021-11-21T15:05:08.309Z</time>
      </trkpt>
      <trkpt lat="47.485011" lon="8.120456">
        <ele>538.045144</ele>
        <time>2021-11-21T15:05:12.471Z</time>
      </trkpt>
      <trkpt lat="47.485363" lon="8.119586">
        <ele>536.365814</ele>
        <time>2021-11-21T15:05:21.956Z</time>
      </trkpt>
      <trkpt lat="47.485564" lon="8.119205">
        <ele>535.230294</ele>
        <time>2021-11-21T15:05:25.837Z</time>
      </trkpt>
      <trkpt lat="47.486268" lon="8.118191">
        <ele>531.781069</ele>
        <time>2021-11-21T15:05:35.107Z</time>
      </trkpt>
      <trkpt lat="47.486571" lon="8.117656">
        <ele>526.705003</ele>
        <time>2021-11-21T15:05:39.229Z</time>
      </trkpt>
      <trkpt lat="47.486845" lon="8.117095">
        <ele>521.671565</ele>
        <time>2021-11-21T15:05:43.200Z</time>
      </trkpt>
      <trkpt lat="47.487583" lon="8.115667">
        <ele>508.195986</ele>
        <time>2021-11-21T15:05:53.430Z</time>
      </trkpt>
      <trkpt lat="47.487657" lon="8.115463">
        <ele>506.337401</ele>
        <time>2021-11-21T15:05:54.737Z</time>
      </trkpt>
      <trkpt lat="47.487880" lon="8.114431">
        <ele>497.640053</ele>
        <time>2021-11-21T15:06:00.924Z</time>
      </trkpt>
      <trkpt lat="47.487946" lon="8.113698">
        <ele>491.704098</ele>
        <time>2021-11-21T15:06:05.190Z</time>
      </trkpt>
      <trkpt lat="47.487928" lon="8.112601">
        <ele>484.060545</ele>
        <time>2021-11-21T15:06:11.563Z</time>
      </trkpt>
      <trkpt lat="47.487873" lon="8.112054">
        <ele>480.250845</ele>
        <time>2021-11-21T15:06:14.780Z</time>
      </trkpt>
      <trkpt lat="47.487816" lon="8.111427">
        <ele>475.892606</ele>
        <time>2021-11-21T15:06:18.455Z</time>
      </trkpt>
      <trkpt lat="47.487784" lon="8.111079">
        <ele>473.473180</ele>
        <time>2021-11-21T15:06:20.496Z</time>
      </trkpt>
      <trkpt lat="47.487750" lon="8.110724">
        <ele>471.137306</ele>
        <time>2021-11-21T15:06:22.583Z</time>
      </trkpt>
      <trkpt lat="47.487704" lon="8.110209">
        <ele>467.829735</ele>
        <time>2021-11-21T15:06:25.604Z</time>
      </trkpt>
      <trkpt lat="47.487592" lon="8.108945">
        <ele>459.712831</ele>
        <time>2021-11-21T15:06:33.042Z</time>
      </trkpt>
      <trkpt lat="47.487522" lon="8.108181">
        <ele>455.131534</ele>
        <time>2021-11-21T15:06:37.612Z</time>
      </trkpt>
      <trkpt lat="47.487488" lon="8.107690">
        <ele>452.995842</ele>
        <time>2021-11-21T15:06:40.577Z</time>
      </trkpt>
      <trkpt lat="47.487493" lon="8.107281">
        <ele>451.225800</ele>
        <time>2021-11-21T15:06:43.054Z</time>
      </trkpt>
      <trkpt lat="47.487526" lon="8.106968">
        <ele>449.855058</ele>
        <time>2021-11-21T15:06:44.965Z</time>
      </trkpt>
      <trkpt lat="47.487723" lon="8.106230">
        <ele>446.421601</ele>
        <time>2021-11-21T15:06:49.871Z</time>
      </trkpt>
      <trkpt lat="47.488025" lon="8.105557">
        <ele>443.798690</ele>
        <time>2021-11-21T15:06:55.044Z</time>
      </trkpt>
      <trkpt lat="47.488623" lon="8.104263">
        <ele>441.294823</ele>
        <time>2021-11-21T15:07:08.242Z</time>
      </trkpt>
      <trkpt lat="47.488766" lon="8.103832">
        <ele>440.527936</ele>
        <time>2021-11-21T15:07:11.412Z</time>
      </trkpt>
      <trkpt lat="47.488863" lon="8.103453">
        <ele>439.734906</ele>
        <time>2021-11-21T15:07:14.905Z</time>
      </trkpt>
      <trkpt lat="47.488961" lon="8.102990">
        <ele>438.323351</ele>
        <time>2021-11-21T15:07:18.144Z</time>
      </trkpt>
      <trkpt lat="47.489160" lon="8.101908">
        <ele>435.060953</ele>
        <time>2021-11-21T15:07:25.874Z</time>
      </trkpt>
      <trkpt lat="47.489218" lon="8.101622">
        <ele>434.192225</ele>
        <time>2021-11-21T15:07:27.762Z</time>
      </trkpt>
      <trkpt lat="47.489406" lon="8.100900">
        <ele>431.949700</ele>
        <time>2021-11-21T15:07:32.394Z</time>
      </trkpt>
      <trkpt lat="47.489497" lon="8.100620">
        <ele>431.066498</ele>
        <time>2021-11-21T15:07:34.283Z</time>
      </trkpt>
      <trkpt lat="47.489550" lon="8.100488">
        <ele>430.630033</ele>
        <time>2021-11-21T15:07:35.239Z</time>
      </trkpt>
      <trkpt lat="47.489698" lon="8.100128">
        <ele>429.432188</ele>
        <time>2021-11-21T15:07:37.910Z</time>
      </trkpt>
      <trkpt lat="47.489912" lon="8.099621">
        <ele>427.732937</ele>
        <time>2021-11-21T15:07:41.946Z</time>
      </trkpt>
      <trkpt lat="47.489995" lon="8.099422">
        <ele>427.068185</ele>
        <time>2021-11-21T15:07:43.558Z</time>
      </trkpt>
      <trkpt lat="47.490321" lon="8.098647">
        <ele>424.626618</ele>
        <time>2021-11-21T15:07:49.963Z</time>
      </trkpt>
      <trkpt lat="47.490966" lon="8.097142">
        <ele>422.392125</ele>
        <time>2021-11-21T15:08:03.294Z</time>
      </trkpt>
      <trkpt lat="47.491531" lon="8.095826">
        <ele>420.588414</ele>
        <time>2021-11-21T15:08:15.681Z</time>
      </trkpt>
      <trkpt lat="47.492201" lon="8.094085">
        <ele>418.423735</ele>
        <time>2021-11-21T15:08:31.261Z</time>
      </trkpt>
      <trkpt lat="47.492222" lon="8.094030">
        <ele>418.333813</ele>
        <time>2021-11-21T15:08:31.677Z</time>
      </trkpt>
      <trkpt lat="47.492561" lon="8.093030">
        <ele>416.741307</ele>
        <time>2021-11-21T15:08:39.840Z</time>
      </trkpt>
      <trkpt lat="47.492785" lon="8.092387">
        <ele>415.711578</ele>
        <time>2021-11-21T15:08:45.155Z</time>
      </trkpt>
      <trkpt lat="47.492908" lon="8.092021">
        <ele>415.129736</ele>
        <time>2021-11-21T15:08:48.050Z</time>
      </trkpt>
      <trkpt lat="47.492943" lon="8.091916">
        <ele>414.963082</ele>
        <time>2021-11-21T15:08:48.943Z</time>
      </trkpt>
      <trkpt lat="47.493004" lon="8.091715">
        <ele>414.669420</ele>
        <time>2021-11-21T15:08:50.665Z</time>
      </trkpt>
      <trkpt lat="47.493013" lon="8.091685">
        <ele>414.628805</ele>
        <time>2021-11-21T15:08:50.905Z</time>
      </trkpt>
      <trkpt lat="47.493111" lon="8.091365">
        <ele>414.194075</ele>
        <time>2021-11-21T15:08:53.429Z</time>
      </trkpt>
      <trkpt lat="47.493176" lon="8.091152">
        <ele>413.904882</ele>
        <time>2021-11-21T15:08:55.165Z</time>
      </trkpt>
      <trkpt lat="47.493199" lon="8.091055">
        <ele>413.777682</ele>
        <time>2021-11-21T15:08:55.861Z</time>
      </trkpt>
      <trkpt lat="47.493278" lon="8.090706">
        <ele>413.322254</ele>
        <time>2021-11-21T15:08:58.690Z</time>
      </trkpt>
      <trkpt lat="47.493318" lon="8.090521">
        <ele>413.081907</ele>
        <time>2021-11-21T15:09:00.023Z</time>
      </trkpt>
      <trkpt lat="47.493362" lon="8.090313">
        <ele>412.812218</ele>
        <time>2021-11-21T15:09:01.807Z</time>
      </trkpt>
      <trkpt lat="47.493381" lon="8.090217">
        <ele>412.688441</ele>
        <time>2021-11-21T15:09:02.578Z</time>
      </trkpt>
      <trkpt lat="47.493453" lon="8.089837">
        <ele>412.200107</ele>
        <time>2021-11-21T15:09:05.510Z</time>
      </trkpt>
      <trkpt lat="47.493523" lon="8.089470">
        <ele>411.728251</ele>
        <time>2021-11-21T15:09:08.465Z</time>
      </trkpt>
      <trkpt lat="47.493532" lon="8.089427">
        <ele>411.672551</ele>
        <time>2021-11-21T15:09:08.844Z</time>
      </trkpt>
      <trkpt lat="47.493802" lon="8.088286">
        <ele>410.495878</ele>
        <time>2021-11-21T15:09:18.827Z</time>
      </trkpt>
      <trkpt lat="47.493891" lon="8.087911">
        <ele>410.121963</ele>
        <time>2021-11-21T15:09:21.924Z</time>
      </trkpt>
      <trkpt lat="47.494042" lon="8.087271">
        <ele>409.484228</ele>
        <time>2021-11-21T15:09:27.226Z</time>
      </trkpt>
      <trkpt lat="47.494237" lon="8.086449">
        <ele>408.551171</ele>
        <time>2021-11-21T15:09:33.879Z</time>
      </trkpt>
      <trkpt lat="47.494445" lon="8.085612">
        <ele>407.431739</ele>
        <time>2021-11-21T15:09:40.706Z</time>
      </trkpt>
      <trkpt lat="47.494640" lon="8.084828">
        <ele>406.383084</ele>
        <time>2021-11-21T15:09:47.031Z</time>
      </trkpt>
      <trkpt lat="47.494652" lon="8.084779">
        <ele>406.317663</ele>
        <time>2021-11-21T15:09:47.419Z</time>
      </trkpt>
      <trkpt lat="47.494666" lon="8.084717">
        <ele>406.235608</ele>
        <time>2021-11-21T15:09:47.891Z</time>
      </trkpt>
      <trkpt lat="47.494749" lon="8.084368">
        <ele>405.771192</ele>
        <time>2021-11-21T15:09:50.591Z</time>
      </trkpt>
      <trkpt lat="47.494822" lon="8.084015">
        <ele>405.319728</ele>
        <time>2021-11-21T15:09:53.226Z</time>
      </trkpt>
      <trkpt lat="47.494898" lon="8.083514">
        <ele>404.696856</ele>
        <time>2021-11-21T15:09:56.907Z</time>
      </trkpt>
      <trkpt lat="47.494933" lon="8.083243">
        <ele>404.362165</ele>
        <time>2021-11-21T15:09:58.946Z</time>
      </trkpt>
      <trkpt lat="47.494963" lon="8.083009">
        <ele>404.073245</ele>
        <time>2021-11-21T15:10:00.663Z</time>
      </trkpt>
      <trkpt lat="47.494982" lon="8.082826">
        <ele>403.848649</ele>
        <time>2021-11-21T15:10:02.062Z</time>
      </trkpt>
      <trkpt lat="47.495018" lon="8.082502">
        <ele>403.450340</ele>
        <time>2021-11-21T15:10:04.578Z</time>
      </trkpt>
      <trkpt lat="47.495034" lon="8.082354">
        <ele>403.268524</ele>
        <time>2021-11-21T15:10:05.768Z</time>
      </trkpt>
      <trkpt lat="47.495088" lon="8.082021">
        <ele>402.853105</ele>
        <time>2021-11-21T15:10:08.483Z</time>
      </trkpt>
      <trkpt lat="47.495132" lon="8.081754">
        <ele>402.519725</ele>
        <time>2021-11-21T15:10:10.745Z</time>
      </trkpt>
      <trkpt lat="47.495162" lon="8.081632">
        <ele>402.408694</ele>
        <time>2021-11-21T15:10:11.793Z</time>
      </trkpt>
      <trkpt lat="47.495207" lon="8.081445">
        <ele>402.325079</ele>
        <time>2021-11-21T15:10:13.366Z</time>
      </trkpt>
      <trkpt lat="47.495281" lon="8.081177">
        <ele>402.203129</ele>
        <time>2021-11-21T15:10:15.890Z</time>
      </trkpt>
      <trkpt lat="47.495292" lon="8.081144">
        <ele>402.187629</ele>
        <time>2021-11-21T15:10:16.175Z</time>
      </trkpt>
      <trkpt lat="47.495384" lon="8.080873">
        <ele>402.059879</ele>
        <time>2021-11-21T15:10:18.726Z</time>
      </trkpt>
      <trkpt lat="47.495515" lon="8.080558">
        <ele>401.904074</ele>
        <time>2021-11-21T15:10:22.166Z</time>
      </trkpt>
      <trkpt lat="47.495562" lon="8.080466">
        <ele>401.855492</ele>
        <time>2021-11-21T15:10:23.185Z</time>
      </trkpt>
      <trkpt lat="47.495681" lon="8.080229">
        <ele>401.731114</ele>
        <time>2021-11-21T15:10:25.849Z</time>
      </trkpt>
      <trkpt lat="47.495859" lon="8.079943">
        <ele>401.567325</ele>
        <time>2021-11-21T15:10:29.380Z</time>
      </trkpt>
      <trkpt lat="47.496040" lon="8.079701">
        <ele>401.415260</ele>
        <time>2021-11-21T15:10:32.736Z</time>
      </trkpt>
      <trkpt lat="47.496380" lon="8.079285">
        <ele>401.073130</ele>
        <time>2021-11-21T15:10:38.620Z</time>
      </trkpt>
      <trkpt lat="47.496536" lon="8.079094">
        <ele>400.897613</ele>
        <time>2021-11-21T15:10:41.368Z</time>
      </trkpt>
      <trkpt lat="47.496713" lon="8.078885">
        <ele>400.701319</ele>
        <time>2021-11-21T15:10:44.295Z</time>
      </trkpt>
      <trkpt lat="47.497084" lon="8.078448">
        <ele>400.290268</ele>
        <time>2021-11-21T15:10:50.216Z</time>
      </trkpt>
      <trkpt lat="47.497208" lon="8.078293">
        <ele>400.149562</ele>
        <time>2021-11-21T15:10:52.142Z</time>
      </trkpt>
      <trkpt lat="47.497325" lon="8.078131">
        <ele>400.010668</ele>
        <time>2021-11-21T15:10:54.060Z</time>
      </trkpt>
      <trkpt lat="47.497745" lon="8.077494">
        <ele>399.490493</ele>
        <time>2021-11-21T15:11:01.125Z</time>
      </trkpt>
      <trkpt lat="47.498061" lon="8.076857">
        <ele>399.029644</ele>
        <time>2021-11-21T15:11:07.188Z</time>
      </trkpt>
      <trkpt lat="47.498538" lon="8.075655">
        <ele>398.216728</ele>
        <time>2021-11-21T15:11:19.267Z</time>
      </trkpt>
      <trkpt lat="47.498775" lon="8.075058">
        <ele>398.523342</ele>
        <time>2021-11-21T15:11:27.484Z</time>
      </trkpt>
      <trkpt lat="47.498880" lon="8.074711">
        <ele>398.708241</ele>
        <time>2021-11-21T15:11:32.085Z</time>
      </trkpt>
      <trkpt lat="47.498960" lon="8.074378">
        <ele>398.880113</ele>
        <time>2021-11-21T15:11:36.965Z</time>
      </trkpt>
      <trkpt lat="47.499013" lon="8.074135">
        <ele>399.004290</ele>
        <time>2021-11-21T15:11:39.916Z</time>
      </trkpt>
      <trkpt lat="47.499051" lon="8.073942">
        <ele>399.102050</ele>
        <time>2021-11-21T15:11:43.023Z</time>
      </trkpt>
      <trkpt lat="47.499138" lon="8.073263">
        <ele>399.438134</ele>
        <time>2021-11-21T15:11:51.725Z</time>
      </trkpt>
      <trkpt lat="47.499170" lon="8.072504">
        <ele>399.080907</ele>
        <time>2021-11-21T15:12:01.982Z</time>
      </trkpt>
      <trkpt lat="47.499016" lon="8.069840">
        <ele>396.137347</ele>
        <time>2021-11-21T15:12:22.452Z</time>
      </trkpt>
      <trkpt lat="47.499026" lon="8.069468">
        <ele>395.202522</ele>
        <time>2021-11-21T15:12:24.883Z</time>
      </trkpt>
      <trkpt lat="47.499075" lon="8.068991">
        <ele>393.991017</ele>
        <time>2021-11-21T15:12:28.074Z</time>
      </trkpt>
      <trkpt lat="47.499075" lon="8.068991">
        <ele>393.991017</ele>
        <time>2021-11-21T15:12:28.085Z</time>
      </trkpt>
      <trkpt lat="47.499104" lon="8.068766">
        <ele>393.415857</ele>
        <time>2021-11-21T15:12:29.540Z</time>
      </trkpt>
      <trkpt lat="47.499148" lon="8.068524">
        <ele>392.786579</ele>
        <time>2021-11-21T15:12:31.379Z</time>
      </trkpt>
      <trkpt lat="47.499201" lon="8.068229">
        <ele>392.020097</ele>
        <time>2021-11-21T15:12:33.226Z</time>
      </trkpt>
      <trkpt lat="47.499519" lon="8.066520">
        <ele>387.927101</ele>
        <time>2021-11-21T15:12:44.730Z</time>
      </trkpt>
      <trkpt lat="47.499531" lon="8.066460">
        <ele>387.785925</ele>
        <time>2021-11-21T15:12:46.560Z</time>
      </trkpt>
      <trkpt lat="47.499591" lon="8.066154">
        <ele>387.067055</ele>
        <time>2021-11-21T15:12:48.571Z</time>
      </trkpt>
      <trkpt lat="47.499610" lon="8.066051">
        <ele>386.826165</ele>
        <time>2021-11-21T15:12:49.349Z</time>
      </trkpt>
      <trkpt lat="47.499668" lon="8.065730">
        <ele>386.076489</ele>
        <time>2021-11-21T15:12:52.497Z</time>
      </trkpt>
      <trkpt lat="47.499682" lon="8.065635">
        <ele>385.857116</ele>
        <time>2021-11-21T15:12:53.071Z</time>
      </trkpt>
      <trkpt lat="47.499770" lon="8.065082">
        <ele>384.959256</ele>
        <time>2021-11-21T15:12:57.462Z</time>
      </trkpt>
      <trkpt lat="47.499809" lon="8.064788">
        <ele>384.786891</ele>
        <time>2021-11-21T15:13:01.273Z</time>
      </trkpt>
      <trkpt lat="47.499832" lon="8.064625">
        <ele>384.691096</ele>
        <time>2021-11-21T15:13:02.367Z</time>
      </trkpt>
      <trkpt lat="47.499921" lon="8.063941">
        <ele>384.290368</ele>
        <time>2021-11-21T15:13:08.218Z</time>
      </trkpt>
      <trkpt lat="47.499972" lon="8.063575">
        <ele>384.075382</ele>
        <time>2021-11-21T15:13:12.358Z</time>
      </trkpt>
      <trkpt lat="47.500065" lon="8.063116">
        <ele>383.799706</ele>
        <time>2021-11-21T15:13:16.433Z</time>
      </trkpt>
      <trkpt lat="47.500111" lon="8.062899">
        <ele>383.668869</ele>
        <time>2021-11-21T15:13:18.850Z</time>
      </trkpt>
      <trkpt lat="47.500321" lon="8.061955">
        <ele>383.012807</ele>
        <time>2021-11-21T15:13:27.398Z</time>
      </trkpt>
      <trkpt lat="47.500357" lon="8.061762">
        <ele>382.876601</ele>
        <time>2021-11-21T15:13:28.861Z</time>
      </trkpt>
      <trkpt lat="47.500421" lon="8.061418">
        <ele>382.633874</ele>
        <time>2021-11-21T15:13:32.384Z</time>
      </trkpt>
      <trkpt lat="47.500438" lon="8.061324">
        <ele>382.567677</ele>
        <time>2021-11-21T15:13:32.982Z</time>
      </trkpt>
      <trkpt lat="47.500538" lon="8.060723">
        <ele>382.146613</ele>
        <time>2021-11-21T15:13:38.259Z</time>
      </trkpt>
      <trkpt lat="47.500573" lon="8.060533">
        <ele>382.012642</ele>
        <time>2021-11-21T15:13:40.095Z</time>
      </trkpt>
      <trkpt lat="47.500588" lon="8.060437">
        <ele>381.945612</ele>
        <time>2021-11-21T15:13:40.841Z</time>
      </trkpt>
      <trkpt lat="47.500604" lon="8.060344">
        <ele>381.880327</ele>
        <time>2021-11-21T15:13:41.538Z</time>
      </trkpt>
      <trkpt lat="47.500708" lon="8.059752">
        <ele>381.758682</ele>
        <time>2021-11-21T15:13:46.297Z</time>
      </trkpt>
      <trkpt lat="47.500919" lon="8.058927">
        <ele>381.781436</ele>
        <time>2021-11-21T15:13:54.289Z</time>
      </trkpt>
      <trkpt lat="47.501139" lon="8.058076">
        <ele>381.804939</ele>
        <time>2021-11-21T15:14:04.258Z</time>
      </trkpt>
      <trkpt lat="47.501265" lon="8.057592">
        <ele>381.876602</ele>
        <time>2021-11-21T15:14:11.384Z</time>
      </trkpt>
      <trkpt lat="47.501287" lon="8.057595">
        <ele>381.906026</ele>
        <time>2021-11-21T15:14:11.844Z</time>
      </trkpt>
      <trkpt lat="47.501352" lon="8.057560">
        <ele>381.998141</ele>
        <time>2021-11-21T15:14:13.204Z</time>
      </trkpt>
      <trkpt lat="47.501377" lon="8.057505">
        <ele>382.057784</ele>
        <time>2021-11-21T15:14:14.113Z</time>
      </trkpt>
      <trkpt lat="47.501386" lon="8.057452">
        <ele>382.106952</ele>
        <time>2021-11-21T15:14:15.095Z</time>
      </trkpt>
      <trkpt lat="47.501371" lon="8.057371">
        <ele>382.182517</ele>
        <time>2021-11-21T15:14:16.195Z</time>
      </trkpt>
      <trkpt lat="47.501356" lon="8.057344">
        <ele>382.213969</ele>
        <time>2021-11-21T15:14:16.930Z</time>
      </trkpt>
      <trkpt lat="47.501459" lon="8.056906">
        <ele>382.631236</ele>
        <time>2021-11-21T15:14:23.830Z</time>
      </trkpt>
      <trkpt lat="47.501717" lon="8.055892">
        <ele>383.606104</ele>
        <time>2021-11-21T15:14:40.087Z</time>
      </trkpt>
      <trkpt lat="47.501751" lon="8.055654">
        <ele>383.824970</ele>
        <time>2021-11-21T15:14:43.716Z</time>
      </trkpt>
      <trkpt lat="47.501784" lon="8.055340">
        <ele>384.110877</ele>
        <time>2021-11-21T15:14:47.562Z</time>
      </trkpt>
      <trkpt lat="47.501806" lon="8.054996">
        <ele>383.953964</ele>
        <time>2021-11-21T15:14:51.625Z</time>
      </trkpt>
      <trkpt lat="47.501851" lon="8.054393">
        <ele>383.282518</ele>
        <time>2021-11-21T15:14:56.923Z</time>
      </trkpt>
      <trkpt lat="47.501857" lon="8.054265">
        <ele>383.140510</ele>
        <time>2021-11-21T15:14:57.864Z</time>
      </trkpt>
      <trkpt lat="47.501923" lon="8.053252">
        <ele>382.014143</ele>
        <time>2021-11-21T15:15:05.520Z</time>
      </trkpt>
      <trkpt lat="47.502020" lon="8.051188">
        <ele>377.996253</ele>
        <time>2021-11-21T15:15:19.446Z</time>
      </trkpt>
      <trkpt lat="47.502094" lon="8.049547">
        <ele>374.363059</ele>
        <time>2021-11-21T15:15:30.478Z</time>
      </trkpt>
      <trkpt lat="47.502090" lon="8.048236">
        <ele>372.083423</ele>
        <time>2021-11-21T15:15:39.720Z</time>
      </trkpt>
      <trkpt lat="47.502044" lon="8.047705">
        <ele>371.152541</ele>
        <time>2021-11-21T15:15:43.656Z</time>
      </trkpt>
      <trkpt lat="47.502029" lon="8.047540">
        <ele>370.863047</ele>
        <time>2021-11-21T15:15:44.855Z</time>
      </trkpt>
      <trkpt lat="47.501759" lon="8.046002">
        <ele>369.223904</ele>
        <time>2021-11-21T15:15:57.163Z</time>
      </trkpt>
      <trkpt lat="47.501515" lon="8.044851">
        <ele>368.158113</ele>
        <time>2021-11-21T15:16:07.192Z</time>
      </trkpt>
      <trkpt lat="47.501358" lon="8.044092">
        <ele>367.284707</ele>
        <time>2021-11-21T15:16:13.745Z</time>
      </trkpt>
      <trkpt lat="47.501234" lon="8.043345">
        <ele>366.401996</ele>
        <time>2021-11-21T15:16:19.803Z</time>
      </trkpt>
      <trkpt lat="47.501123" lon="8.042252">
        <ele>365.133638</ele>
        <time>2021-11-21T15:16:28.015Z</time>
      </trkpt>
      <trkpt lat="47.501065" lon="8.041677">
        <ele>364.337011</ele>
        <time>2021-11-21T15:16:32.039Z</time>
      </trkpt>
      <trkpt lat="47.501009" lon="8.040934">
        <ele>363.261711</ele>
        <time>2021-11-21T15:16:37.359Z</time>
      </trkpt>
      <trkpt lat="47.501026" lon="8.040085">
        <ele>362.040042</ele>
        <time>2021-11-21T15:16:43.529Z</time>
      </trkpt>
      <trkpt lat="47.501026" lon="8.040085">
        <ele>362.040042</ele>
        <time>2021-11-21T15:16:43.539Z</time>
      </trkpt>
      <trkpt lat="47.501083" lon="8.039040">
        <ele>361.080936</ele>
        <time>2021-11-21T15:16:51.985Z</time>
      </trkpt>
      <trkpt lat="47.501120" lon="8.039033">
        <ele>361.072275</ele>
        <time>2021-11-21T15:16:52.358Z</time>
      </trkpt>
      <trkpt lat="47.501198" lon="8.038918">
        <ele>361.046715</ele>
        <time>2021-11-21T15:16:53.952Z</time>
      </trkpt>
      <trkpt lat="47.501143" lon="8.038725">
        <ele>361.013858</ele>
        <time>2021-11-21T15:16:55.842Z</time>
      </trkpt>
      <trkpt lat="47.501107" lon="8.038707">
        <ele>361.005036</ele>
        <time>2021-11-21T15:16:56.313Z</time>
      </trkpt>
      <trkpt lat="47.501117" lon="8.038538">
        <ele>360.978426</ele>
        <time>2021-11-21T15:16:57.682Z</time>
      </trkpt>
      <trkpt lat="47.501141" lon="8.038290">
        <ele>360.939129</ele>
        <time>2021-11-21T15:17:00.248Z</time>
      </trkpt>
      <trkpt lat="47.501181" lon="8.037704">
        <ele>360.846744</ele>
        <time>2021-11-21T15:17:06.311Z</time>
      </trkpt>
      <trkpt lat="47.501269" lon="8.036713">
        <ele>360.725760</ele>
        <time>2021-11-21T15:17:18.501Z</time>
      </trkpt>
      <trkpt lat="47.501306" lon="8.036370">
        <ele>360.719384</ele>
        <time>2021-11-21T15:17:22.834Z</time>
      </trkpt>
      <trkpt lat="47.501430" lon="8.035235">
        <ele>360.698278</ele>
        <time>2021-11-21T15:17:34.846Z</time>
      </trkpt>
      <trkpt lat="47.501641" lon="8.034168">
        <ele>360.511056</ele>
        <time>2021-11-21T15:17:44.377Z</time>
      </trkpt>
      <trkpt lat="47.501669" lon="8.033986">
        <ele>360.355688</ele>
        <time>2021-11-21T15:17:45.885Z</time>
      </trkpt>
      <trkpt lat="47.501698" lon="8.034000">
        <ele>360.318105</ele>
        <time>2021-11-21T15:17:46.215Z</time>
      </trkpt>
      <trkpt lat="47.501807" lon="8.033950">
        <ele>360.177507</ele>
        <time>2021-11-21T15:17:47.661Z</time>
      </trkpt>
      <trkpt lat="47.501827" lon="8.033911">
        <ele>360.136752</ele>
        <time>2021-11-21T15:17:48.030Z</time>
      </trkpt>
      <trkpt lat="47.501840" lon="8.033865">
        <ele>360.095249</ele>
        <time>2021-11-21T15:17:48.486Z</time>
      </trkpt>
      <trkpt lat="47.501821" lon="8.033715">
        <ele>359.968220</ele>
        <time>2021-11-21T15:17:49.696Z</time>
      </trkpt>
      <trkpt lat="47.501785" lon="8.033665">
        <ele>359.907397</ele>
        <time>2021-11-21T15:17:50.300Z</time>
      </trkpt>
      <trkpt lat="47.501831" lon="8.033540">
        <ele>359.788917</ele>
        <time>2021-11-21T15:17:51.439Z</time>
      </trkpt>
      <trkpt lat="47.501831" lon="8.033540">
        <ele>359.788917</ele>
        <time>2021-11-21T15:17:51.452Z</time>
      </trkpt>
      <trkpt lat="47.501831" lon="8.033540">
        <ele>359.788917</ele>
        <time>2021-11-21T15:17:51.522Z</time>
      </trkpt>
      <trkpt lat="47.501972" lon="8.033162">
        <ele>359.429513</ele>
        <time>2021-11-21T15:17:54.938Z</time>
      </trkpt>
      <trkpt lat="47.502050" lon="8.032952">
        <ele>359.230042</ele>
        <time>2021-11-21T15:17:56.856Z</time>
      </trkpt>
      <trkpt lat="47.502278" lon="8.032378">
        <ele>358.675807</ele>
        <time>2021-11-21T15:18:01.992Z</time>
      </trkpt>
      <trkpt lat="47.502589" lon="8.031477">
        <ele>357.826743</ele>
        <time>2021-11-21T15:18:09.875Z</time>
      </trkpt>
      <trkpt lat="47.503055" lon="8.030264">
        <ele>356.652598</ele>
        <time>2021-11-21T15:18:21.058Z</time>
      </trkpt>
      <trkpt lat="47.503408" lon="8.029412">
        <ele>355.996161</ele>
        <time>2021-11-21T15:18:29.424Z</time>
      </trkpt>
      <trkpt lat="47.503617" lon="8.028907">
        <ele>355.720156</ele>
        <time>2021-11-21T15:18:34.422Z</time>
      </trkpt>
      <trkpt lat="47.503672" lon="8.028775">
        <ele>355.647879</ele>
        <time>2021-11-21T15:18:35.764Z</time>
      </trkpt>
      <trkpt lat="47.504063" lon="8.027828">
        <ele>355.130638</ele>
        <time>2021-11-21T15:18:45.560Z</time>
      </trkpt>
      <trkpt lat="47.504221" lon="8.027444">
        <ele>354.931804</ele>
        <time>2021-11-21T15:18:49.679Z</time>
      </trkpt>
      <trkpt lat="47.504606" lon="8.026545">
        <ele>354.519585</ele>
        <time>2021-11-21T15:18:59.586Z</time>
      </trkpt>
      <trkpt lat="47.504614" lon="8.026525">
        <ele>354.510584</ele>
        <time>2021-11-21T15:18:59.748Z</time>
      </trkpt>
      <trkpt lat="47.504641" lon="8.026538">
        <ele>354.494307</ele>
        <time>2021-11-21T15:19:00.175Z</time>
      </trkpt>
      <trkpt lat="47.504663" lon="8.026539">
        <ele>354.481689</ele>
        <time>2021-11-21T15:19:00.494Z</time>
      </trkpt>
      <trkpt lat="47.504689" lon="8.026530">
        <ele>354.466382</ele>
        <time>2021-11-21T15:19:00.881Z</time>
      </trkpt>
      <trkpt lat="47.504716" lon="8.026506">
        <ele>354.448327</ele>
        <time>2021-11-21T15:19:01.290Z</time>
      </trkpt>
      <trkpt lat="47.504737" lon="8.026462">
        <ele>354.427464</ele>
        <time>2021-11-21T15:19:01.775Z</time>
      </trkpt>
      <trkpt lat="47.504744" lon="8.026435">
        <ele>354.416264</ele>
        <time>2021-11-21T15:19:02.029Z</time>
      </trkpt>
      <trkpt lat="47.504745" lon="8.026393">
        <ele>354.399988</ele>
        <time>2021-11-21T15:19:02.400Z</time>
      </trkpt>
      <trkpt lat="47.504733" lon="8.026338">
        <ele>354.377605</ele>
        <time>2021-11-21T15:19:02.904Z</time>
      </trkpt>
      <trkpt lat="47.504704" lon="8.026294">
        <ele>354.353799</ele>
        <time>2021-11-21T15:19:03.433Z</time>
      </trkpt>
      <trkpt lat="47.504725" lon="8.026244">
        <ele>354.330998</ele>
        <time>2021-11-21T15:19:03.983Z</time>
      </trkpt>
      <trkpt lat="47.504760" lon="8.026163">
        <ele>354.293762</ele>
        <time>2021-11-21T15:19:04.768Z</time>
      </trkpt>
      <trkpt lat="47.504823" lon="8.026024">
        <ele>354.228939</ele>
        <time>2021-11-21T15:19:06.273Z</time>
      </trkpt>
      <trkpt lat="47.505192" lon="8.025207">
        <ele>353.672943</ele>
        <time>2021-11-21T15:19:14.624Z</time>
      </trkpt>
      <trkpt lat="47.505559" lon="8.024486">
        <ele>352.739202</ele>
        <time>2021-11-21T15:19:21.887Z</time>
      </trkpt>
      <trkpt lat="47.505612" lon="8.024383">
        <ele>352.605283</ele>
        <time>2021-11-21T15:19:22.915Z</time>
      </trkpt>
      <trkpt lat="47.505697" lon="8.024216">
        <ele>352.389013</ele>
        <time>2021-11-21T15:19:24.486Z</time>
      </trkpt>
      <trkpt lat="47.505883" lon="8.023827">
        <ele>351.896080</ele>
        <time>2021-11-21T15:19:28.093Z</time>
      </trkpt>
      <trkpt lat="47.506199" lon="8.023103">
        <ele>350.877736</ele>
        <time>2021-11-21T15:19:34.466Z</time>
      </trkpt>
      <trkpt lat="47.506232" lon="8.023038">
        <ele>350.738902</ele>
        <time>2021-11-21T15:19:35.058Z</time>
      </trkpt>
      <trkpt lat="47.506258" lon="8.022985">
        <ele>350.627062</ele>
        <time>2021-11-21T15:19:35.533Z</time>
      </trkpt>
      <trkpt lat="47.506468" lon="8.022553">
        <ele>349.718310</ele>
        <time>2021-11-21T15:19:39.380Z</time>
      </trkpt>
      <trkpt lat="47.506535" lon="8.022414">
        <ele>349.426750</ele>
        <time>2021-11-21T15:19:40.583Z</time>
      </trkpt>
      <trkpt lat="47.506621" lon="8.022234">
        <ele>349.050306</ele>
        <time>2021-11-21T15:19:42.174Z</time>
      </trkpt>
      <trkpt lat="47.506655" lon="8.022123">
        <ele>348.842207</ele>
        <time>2021-11-21T15:19:43.037Z</time>
      </trkpt>
      <trkpt lat="47.506678" lon="8.022015">
        <ele>348.648857</ele>
        <time>2021-11-21T15:19:43.819Z</time>
      </trkpt>
      <trkpt lat="47.506735" lon="8.021861">
        <ele>348.349028</ele>
        <time>2021-11-21T15:19:45.060Z</time>
      </trkpt>
      <trkpt lat="47.506867" lon="8.021604">
        <ele>347.797779</ele>
        <time>2021-11-21T15:19:47.288Z</time>
      </trkpt>
      <trkpt lat="47.506910" lon="8.021529">
        <ele>347.629816</ele>
        <time>2021-11-21T15:19:47.959Z</time>
      </trkpt>
      <trkpt lat="47.506949" lon="8.021459">
        <ele>347.474888</ele>
        <time>2021-11-21T15:19:48.615Z</time>
      </trkpt>
      <trkpt lat="47.507007" lon="8.021362">
        <ele>347.253704</ele>
        <time>2021-11-21T15:19:49.516Z</time>
      </trkpt>
      <trkpt lat="47.507213" lon="8.021061">
        <ele>346.565741</ele>
        <time>2021-11-21T15:19:52.518Z</time>
      </trkpt>
      <trkpt lat="47.507466" lon="8.020697">
        <ele>345.971182</ele>
        <time>2021-11-21T15:19:56.236Z</time>
      </trkpt>
      <trkpt lat="47.507609" lon="8.020484">
        <ele>345.629315</ele>
        <time>2021-11-21T15:19:58.432Z</time>
      </trkpt>
      <trkpt lat="47.507666" lon="8.020400">
        <ele>345.493773</ele>
        <time>2021-11-21T15:19:59.321Z</time>
      </trkpt>
      <trkpt lat="47.507863" lon="8.020075">
        <ele>344.996678</ele>
        <time>2021-11-21T15:20:02.661Z</time>
      </trkpt>
      <trkpt lat="47.507951" lon="8.019911">
        <ele>344.758248</ele>
        <time>2021-11-21T15:20:04.326Z</time>
      </trkpt>
      <trkpt lat="47.508029" lon="8.019761">
        <ele>344.542755</ele>
        <time>2021-11-21T15:20:05.761Z</time>
      </trkpt>
      <trkpt lat="47.508075" lon="8.019669">
        <ele>344.412455</ele>
        <time>2021-11-21T15:20:06.690Z</time>
      </trkpt>
      <trkpt lat="47.508117" lon="8.019584">
        <ele>344.292568</ele>
        <time>2021-11-21T15:20:07.522Z</time>
      </trkpt>
      <trkpt lat="47.508273" lon="8.019268">
        <ele>343.847012</ele>
        <time>2021-11-21T15:20:10.726Z</time>
      </trkpt>
      <trkpt lat="47.508403" lon="8.018982">
        <ele>343.634494</ele>
        <time>2021-11-21T15:20:13.674Z</time>
      </trkpt>
      <trkpt lat="47.508436" lon="8.018909">
        <ele>343.642048</ele>
        <time>2021-11-21T15:20:14.420Z</time>
      </trkpt>
      <trkpt lat="47.508505" lon="8.018716">
        <ele>343.660824</ele>
        <time>2021-11-21T15:20:16.371Z</time>
      </trkpt>
      <trkpt lat="47.508517" lon="8.018677">
        <ele>343.664509</ele>
        <time>2021-11-21T15:20:16.783Z</time>
      </trkpt>
      <trkpt lat="47.508544" lon="8.018690">
        <ele>343.668124</ele>
        <time>2021-11-21T15:20:17.238Z</time>
      </trkpt>
      <trkpt lat="47.508639" lon="8.018617">
        <ele>343.681749</ele>
        <time>2021-11-21T15:20:18.685Z</time>
      </trkpt>
      <trkpt lat="47.508635" lon="8.018495">
        <ele>343.692252</ele>
        <time>2021-11-21T15:20:19.777Z</time>
      </trkpt>
      <trkpt lat="47.508617" lon="8.018463">
        <ele>343.695833</ele>
        <time>2021-11-21T15:20:20.213Z</time>
      </trkpt>
      <trkpt lat="47.508636" lon="8.018423">
        <ele>343.700038</ele>
        <time>2021-11-21T15:20:20.712Z</time>
      </trkpt>
      <trkpt lat="47.508699" lon="8.018304">
        <ele>343.713038</ele>
        <time>2021-11-21T15:20:22.377Z</time>
      </trkpt>
      <trkpt lat="47.508805" lon="8.018141">
        <ele>343.732494</ele>
        <time>2021-11-21T15:20:24.755Z</time>
      </trkpt>
      <trkpt lat="47.508896" lon="8.018035">
        <ele>343.747234</ele>
        <time>2021-11-21T15:20:26.633Z</time>
      </trkpt>
      <trkpt lat="47.508988" lon="8.017959">
        <ele>343.760646</ele>
        <time>2021-11-21T15:20:28.534Z</time>
      </trkpt>
      <trkpt lat="47.509105" lon="8.017861">
        <ele>343.777758</ele>
        <time>2021-11-21T15:20:30.736Z</time>
      </trkpt>
      <trkpt lat="47.509253" lon="8.017765">
        <ele>343.798328</ele>
        <time>2021-11-21T15:20:33.520Z</time>
      </trkpt>
      <trkpt lat="47.509437" lon="8.017668">
        <ele>343.823191</ele>
        <time>2021-11-21T15:20:36.940Z</time>
      </trkpt>
      <trkpt lat="47.509596" lon="8.017609">
        <ele>343.844058</ele>
        <time>2021-11-21T15:20:39.790Z</time>
      </trkpt>
      <trkpt lat="47.509728" lon="8.017576">
        <ele>343.893265</ele>
        <time>2021-11-21T15:20:42.214Z</time>
      </trkpt>
      <trkpt lat="47.509872" lon="8.017541">
        <ele>343.969997</ele>
        <time>2021-11-21T15:20:44.771Z</time>
      </trkpt>
      <trkpt lat="47.510117" lon="8.017458">
        <ele>344.102154</ele>
        <time>2021-11-21T15:20:49.310Z</time>
      </trkpt>
      <trkpt lat="47.510624" lon="8.017217">
        <ele>344.382151</ele>
        <time>2021-11-21T15:20:58.803Z</time>
      </trkpt>
      <trkpt lat="47.511079" lon="8.016999">
        <ele>344.633617</ele>
        <time>2021-11-21T15:21:06.824Z</time>
      </trkpt>
      <trkpt lat="47.511835" lon="8.016624">
        <ele>344.624806</ele>
        <time>2021-11-21T15:21:18.881Z</time>
      </trkpt>
      <trkpt lat="47.511937" lon="8.016578">
        <ele>344.587222</ele>
        <time>2021-11-21T15:21:20.553Z</time>
      </trkpt>
      <trkpt lat="47.512292" lon="8.016407">
        <ele>344.455633</ele>
        <time>2021-11-21T15:21:25.715Z</time>
      </trkpt>
      <trkpt lat="47.512572" lon="8.016270">
        <ele>344.351687</ele>
        <time>2021-11-21T15:21:29.619Z</time>
      </trkpt>
      <trkpt lat="47.512748" lon="8.016153">
        <ele>344.283683</ele>
        <time>2021-11-21T15:21:32.231Z</time>
      </trkpt>
      <trkpt lat="47.512943" lon="8.015998">
        <ele>344.205668</ele>
        <time>2021-11-21T15:21:35.089Z</time>
      </trkpt>
      <trkpt lat="47.513615" lon="8.015346">
        <ele>343.267462</ele>
        <time>2021-11-21T15:21:44.648Z</time>
      </trkpt>
      <trkpt lat="47.513872" lon="8.015092">
        <ele>342.861446</ele>
        <time>2021-11-21T15:21:48.155Z</time>
      </trkpt>
      <trkpt lat="47.513919" lon="8.015052">
        <ele>342.790214</ele>
        <time>2021-11-21T15:21:48.800Z</time>
      </trkpt>
      <trkpt lat="47.514036" lon="8.014936">
        <ele>342.605194</ele>
        <time>2021-11-21T15:21:50.426Z</time>
      </trkpt>
      <trkpt lat="47.514162" lon="8.014813">
        <ele>342.406886</ele>
        <time>2021-11-21T15:21:52.128Z</time>
      </trkpt>
      <trkpt lat="47.514464" lon="8.014550">
        <ele>341.946514</ele>
        <time>2021-11-21T15:21:56.208Z</time>
      </trkpt>
      <trkpt lat="47.514628" lon="8.014407">
        <ele>341.713584</ele>
        <time>2021-11-21T15:21:58.422Z</time>
      </trkpt>
      <trkpt lat="47.514746" lon="8.014292">
        <ele>341.558934</ele>
        <time>2021-11-21T15:22:00.066Z</time>
      </trkpt>
      <trkpt lat="47.515054" lon="8.014017">
        <ele>341.165198</ele>
        <time>2021-11-21T15:22:04.294Z</time>
      </trkpt>
      <trkpt lat="47.515263" lon="8.013836">
        <ele>340.900138</ele>
        <time>2021-11-21T15:22:07.183Z</time>
      </trkpt>
      <trkpt lat="47.515468" lon="8.013643">
        <ele>340.634195</ele>
        <time>2021-11-21T15:22:10.083Z</time>
      </trkpt>
      <trkpt lat="47.515487" lon="8.013682">
        <ele>340.598641</ele>
        <time>2021-11-21T15:22:10.452Z</time>
      </trkpt>
      <trkpt lat="47.515592" lon="8.013719">
        <ele>340.480485</ele>
        <time>2021-11-21T15:22:11.779Z</time>
      </trkpt>
      <trkpt lat="47.515625" lon="8.013694">
        <ele>340.439905</ele>
        <time>2021-11-21T15:22:12.204Z</time>
      </trkpt>
      <trkpt lat="47.515640" lon="8.013674">
        <ele>340.417807</ele>
        <time>2021-11-21T15:22:12.462Z</time>
      </trkpt>
      <trkpt lat="47.515666" lon="8.013522">
        <ele>340.301876</ele>
        <time>2021-11-21T15:22:13.771Z</time>
      </trkpt>
      <trkpt lat="47.515654" lon="8.013483">
        <ele>340.270189</ele>
        <time>2021-11-21T15:22:14.150Z</time>
      </trkpt>
      <trkpt lat="47.515686" lon="8.013458">
        <ele>340.230581</ele>
        <time>2021-11-21T15:22:14.550Z</time>
      </trkpt>
      <trkpt lat="47.516968" lon="8.012240">
        <ele>338.936384</ele>
        <time>2021-11-21T15:22:34.317Z</time>
      </trkpt>
      <trkpt lat="47.517220" lon="8.011958">
        <ele>338.692463</ele>
        <time>2021-11-21T15:22:38.443Z</time>
      </trkpt>
      <trkpt lat="47.517559" lon="8.011519">
        <ele>338.255709</ele>
        <time>2021-11-21T15:22:43.971Z</time>
      </trkpt>
      <trkpt lat="47.517842" lon="8.011140">
        <ele>337.689629</ele>
        <time>2021-11-21T15:22:48.371Z</time>
      </trkpt>
      <trkpt lat="47.518005" lon="8.011373">
        <ele>337.353523</ele>
        <time>2021-11-21T15:22:50.899Z</time>
      </trkpt>
      <trkpt lat="47.518031" lon="8.011413">
        <ele>337.297901</ele>
        <time>2021-11-21T15:22:51.312Z</time>
      </trkpt>
      <trkpt lat="47.518672" lon="8.012356">
        <ele>335.957428</ele>
        <time>2021-11-21T15:23:02.007Z</time>
      </trkpt>
      <trkpt lat="47.518762" lon="8.012505">
        <ele>335.762135</ele>
        <time>2021-11-21T15:23:03.317Z</time>
      </trkpt>
      <trkpt lat="47.519066" lon="8.012986">
        <ele>335.309617</ele>
        <time>2021-11-21T15:23:08.162Z</time>
      </trkpt>
      <trkpt lat="47.519283" lon="8.013313">
        <ele>334.994708</ele>
        <time>2021-11-21T15:23:11.728Z</time>
      </trkpt>
      <trkpt lat="47.519407" lon="8.013567">
        <ele>334.779423</ele>
        <time>2021-11-21T15:23:15.214Z</time>
      </trkpt>
      <trkpt lat="47.519407" lon="8.013567">
        <ele>334.779423</ele>
        <time>2021-11-21T15:23:15.217Z</time>
      </trkpt>
      <trkpt lat="47.519506" lon="8.013880">
        <ele>334.542011</ele>
        <time>2021-11-21T15:23:17.651Z</time>
      </trkpt>
      <trkpt lat="47.519542" lon="8.014115">
        <ele>334.376489</ele>
        <time>2021-11-21T15:23:21.767Z</time>
      </trkpt>
      <trkpt lat="47.519550" lon="8.014167">
        <ele>334.339855</ele>
        <time>2021-11-21T15:23:22.068Z</time>
      </trkpt>
      <trkpt lat="47.519560" lon="8.014397">
        <ele>334.181542</ele>
        <time>2021-11-21T15:23:23.892Z</time>
      </trkpt>
      <trkpt lat="47.519567" lon="8.014689">
        <ele>333.980841</ele>
        <time>2021-11-21T15:23:27.653Z</time>
      </trkpt>
      <trkpt lat="47.519570" lon="8.014933">
        <ele>333.967819</ele>
        <time>2021-11-21T15:23:29.699Z</time>
      </trkpt>
      <trkpt lat="47.519564" lon="8.015041">
        <ele>333.981663</ele>
        <time>2021-11-21T15:23:31.924Z</time>
      </trkpt>
      <trkpt lat="47.519666" lon="8.015011">
        <ele>334.001335</ele>
        <time>2021-11-21T15:23:34.469Z</time>
      </trkpt>
      <trkpt lat="47.520115" lon="8.014648">
        <ele>334.098108</ele>
        <time>2021-11-21T15:23:42.437Z</time>
      </trkpt>
      <trkpt lat="47.520539" lon="8.014558">
        <ele>334.179137</ele>
        <time>2021-11-21T15:23:48.792Z</time>
      </trkpt>
      <trkpt lat="47.520848" lon="8.014542">
        <ele>334.237627</ele>
        <time>2021-11-21T15:23:54.070Z</time>
      </trkpt>
      <trkpt lat="47.520953" lon="8.014530">
        <ele>334.257549</ele>
        <time>2021-11-21T15:23:55.530Z</time>
      </trkpt>
      <trkpt lat="47.521150" lon="8.014447">
        <ele>334.280346</ele>
        <time>2021-11-21T15:23:58.741Z</time>
      </trkpt>
      <trkpt lat="47.521292" lon="8.014319">
        <ele>334.271574</ele>
        <time>2021-11-21T15:24:00.942Z</time>
      </trkpt>
      <trkpt lat="47.521454" lon="8.014134">
        <ele>334.260779</ele>
        <time>2021-11-21T15:24:04.138Z</time>
      </trkpt>
      <trkpt lat="47.521508" lon="8.014076">
        <ele>334.257259</ele>
        <time>2021-11-21T15:24:05.078Z</time>
      </trkpt>
      <trkpt lat="47.521532" lon="8.014046">
        <ele>334.255602</ele>
        <time>2021-11-21T15:24:05.530Z</time>
      </trkpt>
      <trkpt lat="47.521611" lon="8.013949">
        <ele>334.250186</ele>
        <time>2021-11-21T15:24:06.793Z</time>
      </trkpt>
      <trkpt lat="47.521782" lon="8.013652">
        <ele>334.236279</ele>
        <time>2021-11-21T15:24:11.028Z</time>
      </trkpt>
      <trkpt lat="47.521857" lon="8.013314">
        <ele>334.223601</ele>
        <time>2021-11-21T15:24:14.680Z</time>
      </trkpt>
      <trkpt lat="47.521867" lon="8.013168">
        <ele>334.218371</ele>
        <time>2021-11-21T15:24:16.106Z</time>
      </trkpt>
      <trkpt lat="47.521884" lon="8.013019">
        <ele>334.212987</ele>
        <time>2021-11-21T15:24:17.846Z</time>
      </trkpt>
      <trkpt lat="47.521999" lon="8.011997">
        <ele>334.308215</ele>
        <time>2021-11-21T15:24:31.482Z</time>
      </trkpt>
      <trkpt lat="47.522135" lon="8.011541">
        <ele>334.473150</ele>
        <time>2021-11-21T15:24:38.527Z</time>
      </trkpt>
      <trkpt lat="47.522752" lon="8.010942">
        <ele>334.834624</ele>
        <time>2021-11-21T15:24:55.583Z</time>
      </trkpt>
      <trkpt lat="47.523475" lon="8.009886">
        <ele>335.322046</ele>
        <time>2021-11-21T15:25:19.648Z</time>
      </trkpt>
      <trkpt lat="47.523750" lon="8.009595">
        <ele>335.481247</ele>
        <time>2021-11-21T15:25:27.289Z</time>
      </trkpt>
      <trkpt lat="47.525125" lon="8.008474">
        <ele>335.538025</ele>
        <time>2021-11-21T15:26:00.370Z</time>
      </trkpt>
      <trkpt lat="47.525704" lon="8.008036">
        <ele>335.154900</ele>
        <time>2021-11-21T15:26:12.079Z</time>
      </trkpt>
      <trkpt lat="47.526398" lon="8.007517">
        <ele>334.376150</ele>
        <time>2021-11-21T15:26:25.055Z</time>
      </trkpt>
      <trkpt lat="47.527466" lon="8.006442">
        <ele>332.097084</ele>
        <time>2021-11-21T15:26:45.611Z</time>
      </trkpt>
      <trkpt lat="47.528852" lon="8.005150">
        <ele>329.146124</ele>
        <time>2021-11-21T15:27:11.702Z</time>
      </trkpt>
      <trkpt lat="47.529337" lon="8.004498">
        <ele>327.847512</ele>
        <time>2021-11-21T15:27:22.456Z</time>
      </trkpt>
      <trkpt lat="47.529391" lon="8.004422">
        <ele>327.680004</ele>
        <time>2021-11-21T15:27:23.643Z</time>
      </trkpt>
      <trkpt lat="47.530077" lon="8.003471">
        <ele>325.567126</ele>
        <time>2021-11-21T15:27:37.943Z</time>
      </trkpt>
      <trkpt lat="47.531127" lon="8.002157">
        <ele>322.650243</ele>
        <time>2021-11-21T15:27:59.004Z</time>
      </trkpt>
      <trkpt lat="47.531407" lon="8.001793">
        <ele>321.888865</ele>
        <time>2021-11-21T15:28:04.742Z</time>
      </trkpt>
      <trkpt lat="47.531789" lon="8.001140">
        <ele>320.708696</ele>
        <time>2021-11-21T15:28:13.986Z</time>
      </trkpt>
      <trkpt lat="47.532176" lon="8.000088">
        <ele>320.467727</ele>
        <time>2021-11-21T15:28:28.726Z</time>
      </trkpt>
      <trkpt lat="47.532283" lon="7.999633">
        <ele>320.370816</ele>
        <time>2021-11-21T15:28:35.655Z</time>
      </trkpt>
      <trkpt lat="47.532321" lon="7.999312">
        <ele>320.305266</ele>
        <time>2021-11-21T15:28:40.414Z</time>
      </trkpt>
      <trkpt lat="47.532314" lon="7.998991">
        <ele>320.240667</ele>
        <time>2021-11-21T15:28:44.859Z</time>
      </trkpt>
      <trkpt lat="47.532616" lon="7.998942">
        <ele>320.191174</ele>
        <time>2021-11-21T15:28:51.437Z</time>
      </trkpt>
      <trkpt lat="47.532745" lon="7.998891">
        <ele>320.217292</ele>
        <time>2021-11-21T15:28:54.473Z</time>
      </trkpt>
      <trkpt lat="47.532880" lon="7.998728">
        <ele>320.251362</ele>
        <time>2021-11-21T15:28:58.214Z</time>
      </trkpt>
      <trkpt lat="47.534115" lon="7.996823">
        <ele>320.283108</ele>
        <time>2021-11-21T15:29:35.748Z</time>
      </trkpt>
      <trkpt lat="47.535091" lon="7.993681">
        <ele>318.577425</ele>
        <time>2021-11-21T15:30:16.542Z</time>
      </trkpt>
      <trkpt lat="47.535517" lon="7.992853">
        <ele>317.974939</ele>
        <time>2021-11-21T15:30:28.333Z</time>
      </trkpt>
      <trkpt lat="47.535530" lon="7.992828">
        <ele>317.956676</ele>
        <time>2021-11-21T15:30:28.700Z</time>
      </trkpt>
      <trkpt lat="47.535601" lon="7.992617">
        <ele>317.820235</ele>
        <time>2021-11-21T15:30:32.319Z</time>
      </trkpt>
      <trkpt lat="47.535603" lon="7.992576">
        <ele>317.830756</ele>
        <time>2021-11-21T15:30:33.339Z</time>
      </trkpt>
      <trkpt lat="47.535497" lon="7.992318">
        <ele>317.946394</ele>
        <time>2021-11-21T15:30:37.021Z</time>
      </trkpt>
      <trkpt lat="47.535110" lon="7.991631">
        <ele>318.288977</ele>
        <time>2021-11-21T15:30:50.836Z</time>
      </trkpt>
      <trkpt lat="47.534860" lon="7.991148">
        <ele>318.522009</ele>
        <time>2021-11-21T15:31:00.302Z</time>
      </trkpt>
      <trkpt lat="47.534644" lon="7.990797">
        <ele>318.703855</ele>
        <time>2021-11-21T15:31:08.063Z</time>
      </trkpt>
      <trkpt lat="47.534606" lon="7.990590">
        <ele>318.785992</ele>
        <time>2021-11-21T15:31:11.410Z</time>
      </trkpt>
      <trkpt lat="47.534609" lon="7.990394">
        <ele>318.861385</ele>
        <time>2021-11-21T15:31:15.020Z</time>
      </trkpt>
      <trkpt lat="47.534723" lon="7.989575">
        <ele>319.185942</ele>
        <time>2021-11-21T15:31:29.605Z</time>
      </trkpt>
      <trkpt lat="47.534771" lon="7.988562">
        <ele>319.580076</ele>
        <time>2021-11-21T15:31:46.386Z</time>
      </trkpt>
      <trkpt lat="47.534795" lon="7.988078">
        <ele>319.768433</ele>
        <time>2021-11-21T15:31:52.659Z</time>
      </trkpt>
      <trkpt lat="47.534985" lon="7.988144">
        <ele>319.844314</ele>
        <time>2021-11-21T15:31:54.894Z</time>
      </trkpt>
      <trkpt lat="47.535196" lon="7.988134">
        <ele>319.500669</ele>
        <time>2021-11-21T15:31:57.629Z</time>
      </trkpt>
      <trkpt lat="47.535393" lon="7.988043">
        <ele>319.164757</ele>
        <time>2021-11-21T15:32:00.056Z</time>
      </trkpt>
      <trkpt lat="47.535735" lon="7.987639">
        <ele>318.452677</ele>
        <time>2021-11-21T15:32:05.058Z</time>
      </trkpt>
      <trkpt lat="47.535862" lon="7.987408">
        <ele>318.125284</ele>
        <time>2021-11-21T15:32:07.198Z</time>
      </trkpt>
      <trkpt lat="47.535935" lon="7.987272">
        <ele>317.934340</ele>
        <time>2021-11-21T15:32:08.504Z</time>
      </trkpt>
      <trkpt lat="47.536140" lon="7.986963">
        <ele>317.458236</ele>
        <time>2021-11-21T15:32:11.531Z</time>
      </trkpt>
      <trkpt lat="47.536465" lon="7.986660">
        <ele>316.926484</ele>
        <time>2021-11-21T15:32:15.671Z</time>
      </trkpt>
      <trkpt lat="47.536685" lon="7.986543">
        <ele>316.868447</ele>
        <time>2021-11-21T15:32:18.574Z</time>
      </trkpt>
      <trkpt lat="47.536796" lon="7.986519">
        <ele>316.840595</ele>
        <time>2021-11-21T15:32:19.814Z</time>
      </trkpt>
      <trkpt lat="47.537073" lon="7.986483">
        <ele>316.771554</ele>
        <time>2021-11-21T15:32:23.649Z</time>
      </trkpt>
      <trkpt lat="47.537167" lon="7.986470">
        <ele>316.748113</ele>
        <time>2021-11-21T15:32:24.863Z</time>
      </trkpt>
      <trkpt lat="47.537409" lon="7.986449">
        <ele>316.687924</ele>
        <time>2021-11-21T15:32:28.946Z</time>
      </trkpt>
      <trkpt lat="47.537821" lon="7.986433">
        <ele>316.585594</ele>
        <time>2021-11-21T15:32:35.425Z</time>
      </trkpt>
      <trkpt lat="47.537815" lon="7.986191">
        <ele>316.545002</ele>
        <time>2021-11-21T15:32:38.157Z</time>
      </trkpt>
      <trkpt lat="47.537812" lon="7.986127">
        <ele>316.534249</ele>
        <time>2021-11-21T15:32:39.525Z</time>
      </trkpt>
      <trkpt lat="47.537884" lon="7.985939">
        <ele>316.498019</ele>
        <time>2021-11-21T15:32:41.475Z</time>
      </trkpt>
      <trkpt lat="47.538208" lon="7.985592">
        <ele>316.792351</ele>
        <time>2021-11-21T15:32:49.124Z</time>
      </trkpt>
      <trkpt lat="47.538891" lon="7.984830">
        <ele>317.433114</ele>
        <time>2021-11-21T15:33:06.344Z</time>
      </trkpt>
      <trkpt lat="47.538988" lon="7.984674">
        <ele>317.540409</ele>
        <time>2021-11-21T15:33:09.715Z</time>
      </trkpt>
      <trkpt lat="47.539141" lon="7.984006">
        <ele>317.727205</ele>
        <time>2021-11-21T15:33:17.003Z</time>
      </trkpt>
      <trkpt lat="47.539266" lon="7.983513">
        <ele>317.133799</ele>
        <time>2021-11-21T15:33:21.202Z</time>
      </trkpt>
      <trkpt lat="47.539359" lon="7.983508">
        <ele>316.978466</ele>
        <time>2021-11-21T15:33:22.632Z</time>
      </trkpt>
      <trkpt lat="47.539746" lon="7.983424">
        <ele>316.325612</ele>
        <time>2021-11-21T15:33:28.938Z</time>
      </trkpt>
      <trkpt lat="47.540009" lon="7.983581">
        <ele>315.852323</ele>
        <time>2021-11-21T15:33:33.501Z</time>
      </trkpt>
      <trkpt lat="47.540197" lon="7.983795">
        <ele>315.456578</ele>
        <time>2021-11-21T15:33:37.185Z</time>
      </trkpt>
      <trkpt lat="47.540570" lon="7.984220">
        <ele>314.586404</ele>
        <time>2021-11-21T15:33:44.348Z</time>
      </trkpt>
      <trkpt lat="47.540609" lon="7.984254">
        <ele>314.473511</ele>
        <time>2021-11-21T15:33:44.982Z</time>
      </trkpt>
      <trkpt lat="47.540750" lon="7.984343">
        <ele>314.091153</ele>
        <time>2021-11-21T15:33:47.213Z</time>
      </trkpt>
      <trkpt lat="47.541183" lon="7.984395">
        <ele>313.007394</ele>
        <time>2021-11-21T15:33:53.668Z</time>
      </trkpt>
      <trkpt lat="47.541734" lon="7.984406">
        <ele>311.632676</ele>
        <time>2021-11-21T15:34:01.921Z</time>
      </trkpt>
      <trkpt lat="47.542126" lon="7.984398">
        <ele>310.654652</ele>
        <time>2021-11-21T15:34:07.987Z</time>
      </trkpt>
      <trkpt lat="47.542208" lon="7.984399">
        <ele>310.450078</ele>
        <time>2021-11-21T15:34:08.874Z</time>
      </trkpt>
      <trkpt lat="47.542145" lon="7.983983">
        <ele>310.131009</ele>
        <time>2021-11-21T15:34:12.168Z</time>
      </trkpt>
      <trkpt lat="47.542131" lon="7.983868">
        <ele>310.060190</ele>
        <time>2021-11-21T15:34:13.050Z</time>
      </trkpt>
      <trkpt lat="47.542068" lon="7.983338">
        <ele>309.734042</ele>
        <time>2021-11-21T15:34:17.239Z</time>
      </trkpt>
      <trkpt lat="47.542087" lon="7.982565">
        <ele>309.265256</ele>
        <time>2021-11-21T15:34:23.559Z</time>
      </trkpt>
      <trkpt lat="47.542122" lon="7.980765">
        <ele>309.285657</ele>
        <time>2021-11-21T15:34:42.384Z</time>
      </trkpt>
      <trkpt lat="47.542138" lon="7.980233">
        <ele>309.596213</ele>
        <time>2021-11-21T15:34:49.169Z</time>
      </trkpt>
      <trkpt lat="47.542153" lon="7.979253">
        <ele>310.167870</ele>
        <time>2021-11-21T15:35:02.644Z</time>
      </trkpt>
      <trkpt lat="47.542119" lon="7.977479">
        <ele>311.975761</ele>
        <time>2021-11-21T15:35:28.337Z</time>
      </trkpt>
      <trkpt lat="47.542030" lon="7.976464">
        <ele>313.080469</ele>
        <time>2021-11-21T15:35:43.274Z</time>
      </trkpt>
      <trkpt lat="47.541613" lon="7.974143">
        <ele>314.843055</ele>
        <time>2021-11-21T15:36:15.301Z</time>
      </trkpt>
      <trkpt lat="47.541444" lon="7.973570">
        <ele>315.010188</ele>
        <time>2021-11-21T15:36:22.397Z</time>
      </trkpt>
      <trkpt lat="47.541111" lon="7.971844">
        <ele>314.481781</ele>
        <time>2021-11-21T15:36:38.575Z</time>
      </trkpt>
      <trkpt lat="47.541050" lon="7.971427">
        <ele>314.356183</ele>
        <time>2021-11-21T15:36:42.076Z</time>
      </trkpt>
      <trkpt lat="47.541007" lon="7.971034">
        <ele>314.104053</ele>
        <time>2021-11-21T15:36:45.247Z</time>
      </trkpt>
      <trkpt lat="47.540930" lon="7.969589">
        <ele>312.845354</ele>
        <time>2021-11-21T15:36:56.597Z</time>
      </trkpt>
      <trkpt lat="47.540988" lon="7.968696">
        <ele>312.066317</ele>
        <time>2021-11-21T15:37:03.671Z</time>
      </trkpt>
      <trkpt lat="47.541122" lon="7.967754">
        <ele>310.902202</ele>
        <time>2021-11-21T15:37:11.703Z</time>
      </trkpt>
      <trkpt lat="47.541502" lon="7.965586">
        <ele>308.013825</ele>
        <time>2021-11-21T15:37:27.964Z</time>
      </trkpt>
      <trkpt lat="47.541593" lon="7.965571">
        <ele>307.813280</ele>
        <time>2021-11-21T15:37:28.935Z</time>
      </trkpt>
      <trkpt lat="47.541714" lon="7.965522">
        <ele>307.538532</ele>
        <time>2021-11-21T15:37:30.294Z</time>
      </trkpt>
      <trkpt lat="47.542210" lon="7.965313">
        <ele>306.409059</ele>
        <time>2021-11-21T15:37:35.932Z</time>
      </trkpt>
      <trkpt lat="47.542271" lon="7.965269">
        <ele>306.260456</ele>
        <time>2021-11-21T15:37:36.979Z</time>
      </trkpt>
      <trkpt lat="47.542253" lon="7.965169">
        <ele>306.107436</ele>
        <time>2021-11-21T15:37:38.086Z</time>
      </trkpt>
      <trkpt lat="47.542511" lon="7.963476">
        <ele>303.893246</ele>
        <time>2021-11-21T15:37:56.262Z</time>
      </trkpt>
      <trkpt lat="47.542514" lon="7.963062">
        <ele>303.459689</ele>
        <time>2021-11-21T15:38:00.910Z</time>
      </trkpt>
      <trkpt lat="47.542516" lon="7.962915">
        <ele>303.305723</ele>
        <time>2021-11-21T15:38:02.744Z</time>
      </trkpt>
      <trkpt lat="47.542513" lon="7.962471">
        <ele>302.840752</ele>
        <time>2021-11-21T15:38:07.813Z</time>
      </trkpt>
      <trkpt lat="47.542619" lon="7.961728">
        <ele>302.045513</ele>
        <time>2021-11-21T15:38:16.624Z</time>
      </trkpt>
      <trkpt lat="47.542689" lon="7.961423">
        <ele>301.757022</ele>
        <time>2021-11-21T15:38:20.133Z</time>
      </trkpt>
      <trkpt lat="47.542731" lon="7.961265">
        <ele>301.614043</ele>
        <time>2021-11-21T15:38:22.038Z</time>
      </trkpt>
      <trkpt lat="47.542800" lon="7.960973">
        <ele>301.353552</ele>
        <time>2021-11-21T15:38:25.402Z</time>
      </trkpt>
      <trkpt lat="47.542861" lon="7.960776">
        <ele>301.171061</ele>
        <time>2021-11-21T15:38:27.802Z</time>
      </trkpt>
      <trkpt lat="47.542960" lon="7.960501">
        <ele>300.908643</ele>
        <time>2021-11-21T15:38:31.157Z</time>
      </trkpt>
      <trkpt lat="47.543357" lon="7.959668">
        <ele>300.050073</ele>
        <time>2021-11-21T15:38:42.642Z</time>
      </trkpt>
      <trkpt lat="47.543374" lon="7.959437">
        <ele>299.854422</ele>
        <time>2021-11-21T15:38:45.320Z</time>
      </trkpt>
      <trkpt lat="47.543322" lon="7.959242">
        <ele>299.716778</ele>
        <time>2021-11-21T15:38:47.886Z</time>
      </trkpt>
      <trkpt lat="47.543305" lon="7.959219">
        <ele>299.718984</ele>
        <time>2021-11-21T15:38:48.338Z</time>
      </trkpt>
      <trkpt lat="47.543178" lon="7.959043">
        <ele>299.735647</ele>
        <time>2021-11-21T15:38:51.576Z</time>
      </trkpt>
      <trkpt lat="47.542693" lon="7.958608">
        <ele>299.789971</ele>
        <time>2021-11-21T15:39:03.865Z</time>
      </trkpt>
      <trkpt lat="47.542441" lon="7.958428">
        <ele>299.816777</ele>
        <time>2021-11-21T15:39:09.629Z</time>
      </trkpt>
      <trkpt lat="47.542259" lon="7.958287">
        <ele>299.836457</ele>
        <time>2021-11-21T15:39:14.354Z</time>
      </trkpt>
      <trkpt lat="47.541830" lon="7.958033">
        <ele>299.880723</ele>
        <time>2021-11-21T15:39:24.047Z</time>
      </trkpt>
      <trkpt lat="47.541700" lon="7.957963">
        <ele>299.901497</ele>
        <time>2021-11-21T15:39:27.412Z</time>
      </trkpt>
      <trkpt lat="47.541539" lon="7.957892">
        <ele>299.933447</ele>
        <time>2021-11-21T15:39:30.887Z</time>
      </trkpt>
      <trkpt lat="47.541305" lon="7.957787">
        <ele>299.979950</ele>
        <time>2021-11-21T15:39:36.493Z</time>
      </trkpt>
      <trkpt lat="47.541355" lon="7.957559">
        <ele>300.010731</ele>
        <time>2021-11-21T15:39:38.782Z</time>
      </trkpt>
      <trkpt lat="47.541450" lon="7.956897">
        <ele>300.097628</ele>
        <time>2021-11-21T15:39:46.476Z</time>
      </trkpt>
      <trkpt lat="47.541464" lon="7.956698">
        <ele>300.123317</ele>
        <time>2021-11-21T15:39:48.456Z</time>
      </trkpt>
      <trkpt lat="47.541533" lon="7.955526">
        <ele>300.236142</ele>
        <time>2021-11-21T15:39:59.772Z</time>
      </trkpt>
      <trkpt lat="47.541554" lon="7.955311">
        <ele>300.240819</ele>
        <time>2021-11-21T15:40:01.809Z</time>
      </trkpt>
      <trkpt lat="47.541735" lon="7.953892">
        <ele>300.271904</ele>
        <time>2021-11-21T15:40:16.018Z</time>
      </trkpt>
      <trkpt lat="47.541773" lon="7.953695">
        <ele>300.276314</ele>
        <time>2021-11-21T15:40:18.266Z</time>
      </trkpt>
      <trkpt lat="47.541791" lon="7.953601">
        <ele>300.278417</ele>
        <time>2021-11-21T15:40:19.300Z</time>
      </trkpt>
      <trkpt lat="47.541991" lon="7.952667">
        <ele>300.401381</ele>
        <time>2021-11-21T15:40:30.157Z</time>
      </trkpt>
      <trkpt lat="47.542169" lon="7.951815">
        <ele>300.563200</ele>
        <time>2021-11-21T15:40:39.894Z</time>
      </trkpt>
      <trkpt lat="47.542192" lon="7.951713">
        <ele>300.582712</ele>
        <time>2021-11-21T15:40:41.157Z</time>
      </trkpt>
      <trkpt lat="47.542357" lon="7.951037">
        <ele>300.713135</ele>
        <time>2021-11-21T15:40:48.621Z</time>
      </trkpt>
      <trkpt lat="47.542444" lon="7.950687">
        <ele>300.787893</ele>
        <time>2021-11-21T15:40:52.452Z</time>
      </trkpt>
      <trkpt lat="47.542546" lon="7.950274">
        <ele>300.916535</ele>
        <time>2021-11-21T15:40:56.799Z</time>
      </trkpt>
      <trkpt lat="47.542554" lon="7.950231">
        <ele>300.929583</ele>
        <time>2021-11-21T15:40:57.286Z</time>
      </trkpt>
      <trkpt lat="47.542560" lon="7.950202">
        <ele>300.938455</ele>
        <time>2021-11-21T15:40:57.619Z</time>
      </trkpt>
      <trkpt lat="47.542609" lon="7.949914">
        <ele>301.025336</ele>
        <time>2021-11-21T15:41:00.618Z</time>
      </trkpt>
      <trkpt lat="47.542719" lon="7.949175">
        <ele>301.246700</ele>
        <time>2021-11-21T15:41:08.521Z</time>
      </trkpt>
      <trkpt lat="47.542826" lon="7.948298">
        <ele>301.507395</ele>
        <time>2021-11-21T15:41:19.464Z</time>
      </trkpt>
      <trkpt lat="47.542838" lon="7.948225">
        <ele>301.529373</ele>
        <time>2021-11-21T15:41:20.292Z</time>
      </trkpt>
      <trkpt lat="47.542875" lon="7.948001">
        <ele>301.738158</ele>
        <time>2021-11-21T15:41:23.175Z</time>
      </trkpt>
      <trkpt lat="47.542928" lon="7.947798">
        <ele>301.988575</ele>
        <time>2021-11-21T15:41:26.098Z</time>
      </trkpt>
      <trkpt lat="47.542957" lon="7.947651">
        <ele>302.164776</ele>
        <time>2021-11-21T15:41:27.806Z</time>
      </trkpt>
      <trkpt lat="47.543050" lon="7.947411">
        <ele>302.483162</ele>
        <time>2021-11-21T15:41:32.170Z</time>
      </trkpt>
      <trkpt lat="47.543087" lon="7.947317">
        <ele>302.608354</ele>
        <time>2021-11-21T15:41:33.449Z</time>
      </trkpt>
      <trkpt lat="47.543092" lon="7.947257">
        <ele>302.677909</ele>
        <time>2021-11-21T15:41:34.239Z</time>
      </trkpt>
      <trkpt lat="47.543097" lon="7.947186">
        <ele>302.760039</ele>
        <time>2021-11-21T15:41:35.088Z</time>
      </trkpt>
      <trkpt lat="47.543086" lon="7.947052">
        <ele>302.915344</ele>
        <time>2021-11-21T15:41:36.918Z</time>
      </trkpt>
      <trkpt lat="47.543056" lon="7.946935">
        <ele>303.059339</ele>
        <time>2021-11-21T15:41:39.285Z</time>
      </trkpt>
      <trkpt lat="47.543045" lon="7.946881">
        <ele>303.124234</ele>
        <time>2021-11-21T15:41:40.397Z</time>
      </trkpt>
      <trkpt lat="47.542982" lon="7.946547">
        <ele>303.523228</ele>
        <time>2021-11-21T15:41:44.996Z</time>
      </trkpt>
      <trkpt lat="47.542974" lon="7.946495">
        <ele>303.584589</ele>
        <time>2021-11-21T15:41:46.210Z</time>
      </trkpt>
      <trkpt lat="47.542960" lon="7.946400">
        <ele>303.696463</ele>
        <time>2021-11-21T15:41:48.046Z</time>
      </trkpt>
      <trkpt lat="47.542916" lon="7.945730">
        <ele>304.470952</ele>
        <time>2021-11-21T15:41:58.623Z</time>
      </trkpt>
      <trkpt lat="47.542913" lon="7.945267">
        <ele>304.914468</ele>
        <time>2021-11-21T15:42:06.109Z</time>
      </trkpt>
      <trkpt lat="47.543007" lon="7.943867">
        <ele>306.162396</ele>
        <time>2021-11-21T15:42:26.848Z</time>
      </trkpt>
      <trkpt lat="47.543161" lon="7.942213">
        <ele>306.587512</ele>
        <time>2021-11-21T15:42:45.254Z</time>
      </trkpt>
      <trkpt lat="47.543435" lon="7.940670">
        <ele>305.758183</ele>
        <time>2021-11-21T15:42:58.203Z</time>
      </trkpt>
      <trkpt lat="47.543826" lon="7.939433">
        <ele>304.358351</ele>
        <time>2021-11-21T15:43:08.604Z</time>
      </trkpt>
      <trkpt lat="47.544472" lon="7.937932">
        <ele>302.265227</ele>
        <time>2021-11-21T15:43:21.928Z</time>
      </trkpt>
      <trkpt lat="47.544705" lon="7.937395">
        <ele>301.530900</ele>
        <time>2021-11-21T15:43:26.767Z</time>
      </trkpt>
      <trkpt lat="47.544903" lon="7.936917">
        <ele>300.885777</ele>
        <time>2021-11-21T15:43:31.028Z</time>
      </trkpt>
      <trkpt lat="47.545074" lon="7.936484">
        <ele>300.308712</ele>
        <time>2021-11-21T15:43:34.859Z</time>
      </trkpt>
      <trkpt lat="47.545457" lon="7.935110">
        <ele>299.069590</ele>
        <time>2021-11-21T15:43:46.227Z</time>
      </trkpt>
      <trkpt lat="47.545674" lon="7.933625">
        <ele>298.365030</ele>
        <time>2021-11-21T15:43:59.307Z</time>
      </trkpt>
      <trkpt lat="47.545702" lon="7.933290">
        <ele>298.208502</ele>
        <time>2021-11-21T15:44:02.887Z</time>
      </trkpt>
      <trkpt lat="47.545724" lon="7.932758">
        <ele>298.573832</ele>
        <time>2021-11-21T15:44:09.154Z</time>
      </trkpt>
      <trkpt lat="47.545721" lon="7.931992">
        <ele>299.359882</ele>
        <time>2021-11-21T15:44:19.193Z</time>
      </trkpt>
      <trkpt lat="47.545696" lon="7.931497">
        <ele>299.869249</ele>
        <time>2021-11-21T15:44:26.399Z</time>
      </trkpt>
      <trkpt lat="47.545661" lon="7.930955">
        <ele>300.427966</ele>
        <time>2021-11-21T15:44:35.094Z</time>
      </trkpt>
      <trkpt lat="47.545563" lon="7.929641">
        <ele>301.480405</ele>
        <time>2021-11-21T15:44:57.434Z</time>
      </trkpt>
      <trkpt lat="47.545475" lon="7.928419">
        <ele>302.314483</ele>
        <time>2021-11-21T15:45:13.736Z</time>
      </trkpt>
      <trkpt lat="47.545421" lon="7.927686">
        <ele>302.364485</ele>
        <time>2021-11-21T15:45:19.840Z</time>
      </trkpt>
      <trkpt lat="47.545406" lon="7.927306">
        <ele>301.653954</ele>
        <time>2021-11-21T15:45:22.744Z</time>
      </trkpt>
      <trkpt lat="47.545407" lon="7.927001">
        <ele>301.084624</ele>
        <time>2021-11-21T15:45:25.030Z</time>
      </trkpt>
      <trkpt lat="47.545409" lon="7.926773">
        <ele>300.658997</ele>
        <time>2021-11-21T15:45:26.660Z</time>
      </trkpt>
      <trkpt lat="47.545417" lon="7.925848">
        <ele>298.932221</ele>
        <time>2021-11-21T15:45:32.995Z</time>
      </trkpt>
      <trkpt lat="47.545446" lon="7.925350">
        <ele>297.999187</ele>
        <time>2021-11-21T15:45:36.286Z</time>
      </trkpt>
      <trkpt lat="47.545466" lon="7.924880">
        <ele>297.004205</ele>
        <time>2021-11-21T15:45:39.348Z</time>
      </trkpt>
      <trkpt lat="47.545481" lon="7.924396">
        <ele>295.925302</ele>
        <time>2021-11-21T15:45:42.429Z</time>
      </trkpt>
      <trkpt lat="47.545521" lon="7.923709">
        <ele>294.389815</ele>
        <time>2021-11-21T15:45:46.965Z</time>
      </trkpt>
      <trkpt lat="47.545536" lon="7.923407">
        <ele>293.715505</ele>
        <time>2021-11-21T15:45:49.305Z</time>
      </trkpt>
      <trkpt lat="47.545553" lon="7.923142">
        <ele>293.122747</ele>
        <time>2021-11-21T15:45:51.030Z</time>
      </trkpt>
      <trkpt lat="47.545568" lon="7.923029">
        <ele>292.866300</ele>
        <time>2021-11-21T15:45:52.049Z</time>
      </trkpt>
      <trkpt lat="47.545587" lon="7.922895">
        <ele>292.561398</ele>
        <time>2021-11-21T15:45:53.392Z</time>
      </trkpt>
      <trkpt lat="47.545634" lon="7.922649">
        <ele>291.992088</ele>
        <time>2021-11-21T15:45:55.113Z</time>
      </trkpt>
      <trkpt lat="47.545641" lon="7.922610">
        <ele>291.902226</ele>
        <time>2021-11-21T15:45:55.391Z</time>
      </trkpt>
      <trkpt lat="47.545690" lon="7.922369">
        <ele>291.650715</ele>
        <time>2021-11-21T15:45:58.094Z</time>
      </trkpt>
      <trkpt lat="47.545699" lon="7.922325">
        <ele>291.619325</ele>
        <time>2021-11-21T15:45:58.356Z</time>
      </trkpt>
      <trkpt lat="47.545714" lon="7.922249">
        <ele>291.565264</ele>
        <time>2021-11-21T15:45:58.960Z</time>
      </trkpt>
      <trkpt lat="47.545778" lon="7.921947">
        <ele>291.349153</ele>
        <time>2021-11-21T15:46:02.019Z</time>
      </trkpt>
      <trkpt lat="47.545810" lon="7.921755">
        <ele>291.214130</ele>
        <time>2021-11-21T15:46:03.390Z</time>
      </trkpt>
      <trkpt lat="47.545881" lon="7.921096">
        <ele>290.758510</ele>
        <time>2021-11-21T15:46:08.772Z</time>
      </trkpt>
      <trkpt lat="47.545913" lon="7.920765">
        <ele>290.530217</ele>
        <time>2021-11-21T15:46:11.578Z</time>
      </trkpt>
      <trkpt lat="47.545973" lon="7.920313">
        <ele>290.215709</ele>
        <time>2021-11-21T15:46:16.707Z</time>
      </trkpt>
      <trkpt lat="47.546128" lon="7.919617">
        <ele>289.867000</ele>
        <time>2021-11-21T15:46:23.201Z</time>
      </trkpt>
      <trkpt lat="47.546262" lon="7.919081">
        <ele>289.710950</ele>
        <time>2021-11-21T15:46:29.221Z</time>
      </trkpt>
      <trkpt lat="47.546671" lon="7.917460">
        <ele>289.238660</ele>
        <time>2021-11-21T15:46:44.799Z</time>
      </trkpt>
      <trkpt lat="47.546821" lon="7.916867">
        <ele>289.079887</ele>
        <time>2021-11-21T15:46:50.042Z</time>
      </trkpt>
      <trkpt lat="47.547032" lon="7.916218">
        <ele>288.899280</ele>
        <time>2021-11-21T15:46:56.526Z</time>
      </trkpt>
      <trkpt lat="47.547091" lon="7.916039">
        <ele>288.849336</ele>
        <time>2021-11-21T15:46:58.341Z</time>
      </trkpt>
      <trkpt lat="47.547113" lon="7.915971">
        <ele>288.830430</ele>
        <time>2021-11-21T15:46:58.938Z</time>
      </trkpt>
      <trkpt lat="47.547423" lon="7.915080">
        <ele>288.579111</ele>
        <time>2021-11-21T15:47:08.519Z</time>
      </trkpt>
      <trkpt lat="47.547994" lon="7.913433">
        <ele>289.096597</ele>
        <time>2021-11-21T15:47:28.229Z</time>
      </trkpt>
      <trkpt lat="47.548027" lon="7.913334">
        <ele>289.128305</ele>
        <time>2021-11-21T15:47:29.588Z</time>
      </trkpt>
      <trkpt lat="47.548412" lon="7.912168">
        <ele>289.763926</ele>
        <time>2021-11-21T15:47:45.991Z</time>
      </trkpt>
      <trkpt lat="47.549012" lon="7.910340">
        <ele>291.287013</ele>
        <time>2021-11-21T15:48:12.910Z</time>
      </trkpt>
      <trkpt lat="47.549102" lon="7.910058">
        <ele>291.564896</ele>
        <time>2021-11-21T15:48:17.003Z</time>
      </trkpt>
      <trkpt lat="47.549195" lon="7.909756">
        <ele>291.872571</ele>
        <time>2021-11-21T15:48:21.235Z</time>
      </trkpt>
      <trkpt lat="47.549270" lon="7.909506">
        <ele>292.126148</ele>
        <time>2021-11-21T15:48:24.742Z</time>
      </trkpt>
      <trkpt lat="47.549302" lon="7.909402">
        <ele>292.232086</ele>
        <time>2021-11-21T15:48:26.138Z</time>
      </trkpt>
      <trkpt lat="47.549379" lon="7.909144">
        <ele>292.493555</ele>
        <time>2021-11-21T15:48:29.751Z</time>
      </trkpt>
      <trkpt lat="47.549520" lon="7.908678">
        <ele>292.966892</ele>
        <time>2021-11-21T15:48:36.159Z</time>
      </trkpt>
      <trkpt lat="47.549539" lon="7.908625">
        <ele>293.022515</ele>
        <time>2021-11-21T15:48:36.881Z</time>
      </trkpt>
      <trkpt lat="47.550357" lon="7.906006">
        <ele>297.241433</ele>
        <time>2021-11-21T15:49:21.679Z</time>
      </trkpt>
      <trkpt lat="47.550497" lon="7.905558">
        <ele>298.072293</ele>
        <time>2021-11-21T15:49:31.512Z</time>
      </trkpt>
      <trkpt lat="47.550283" lon="7.905413">
        <ele>298.872345</ele>
        <time>2021-11-21T15:49:39.747Z</time>
      </trkpt>
      <trkpt lat="47.550067" lon="7.905245">
        <ele>299.831560</ele>
        <time>2021-11-21T15:49:48.522Z</time>
      </trkpt>
      <trkpt lat="47.549867" lon="7.905155">
        <ele>300.653424</ele>
        <time>2021-11-21T15:49:56.263Z</time>
      </trkpt>
      <trkpt lat="47.549868" lon="7.905010">
        <ele>301.038254</ele>
        <time>2021-11-21T15:49:59.705Z</time>
      </trkpt>
      <trkpt lat="47.550025" lon="7.904774">
        <ele>301.917655</ele>
        <time>2021-11-21T15:50:08.009Z</time>
      </trkpt>
      <trkpt lat="47.550302" lon="7.904164">
        <ele>303.868789</ele>
        <time>2021-11-21T15:50:26.626Z</time>
      </trkpt>
      <trkpt lat="47.550498" lon="7.903445">
        <ele>305.893662</ele>
        <time>2021-11-21T15:50:46.198Z</time>
      </trkpt>
      <trkpt lat="47.550688" lon="7.902451">
        <ele>308.475265</ele>
        <time>2021-11-21T15:51:08.746Z</time>
      </trkpt>
      <trkpt lat="47.550757" lon="7.901591">
        <ele>310.639449</ele>
        <time>2021-11-21T15:51:28.542Z</time>
      </trkpt>
      <trkpt lat="47.550769" lon="7.901362">
        <ele>311.213419</ele>
        <time>2021-11-21T15:51:34.450Z</time>
      </trkpt>
      <trkpt lat="47.550801" lon="7.900244">
        <ele>314.291975</ele>
        <time>2021-11-21T15:51:58.848Z</time>
      </trkpt>
      <trkpt lat="47.550819" lon="7.898109">
        <ele>320.056009</ele>
        <time>2021-11-21T15:52:45.888Z</time>
      </trkpt>
      <trkpt lat="47.550648" lon="7.896481">
        <ele>322.722125</ele>
        <time>2021-11-21T15:53:13.543Z</time>
      </trkpt>
      <trkpt lat="47.550639" lon="7.896345">
        <ele>322.943254</ele>
        <time>2021-11-21T15:53:15.918Z</time>
      </trkpt>
      <trkpt lat="47.550660" lon="7.896255">
        <ele>323.097348</ele>
        <time>2021-11-21T15:53:16.719Z</time>
      </trkpt>
      <trkpt lat="47.550838" lon="7.895509">
        <ele>324.191740</ele>
        <time>2021-11-21T15:53:26.887Z</time>
      </trkpt>
      <trkpt lat="47.550878" lon="7.895158">
        <ele>324.524329</ele>
        <time>2021-11-21T15:53:30.949Z</time>
      </trkpt>
      <trkpt lat="47.550908" lon="7.894308">
        <ele>325.319588</ele>
        <time>2021-11-21T15:53:41.421Z</time>
      </trkpt>
      <trkpt lat="47.550892" lon="7.893176">
        <ele>326.377473</ele>
        <time>2021-11-21T15:53:56.139Z</time>
      </trkpt>
      <trkpt lat="47.550904" lon="7.891725">
        <ele>330.749152</ele>
        <time>2021-11-21T15:54:25.901Z</time>
      </trkpt>
      <trkpt lat="47.550915" lon="7.890600">
        <ele>334.228362</ele>
        <time>2021-11-21T15:54:54.741Z</time>
      </trkpt>
      <trkpt lat="47.550833" lon="7.889069">
        <ele>340.532725</ele>
        <time>2021-11-21T15:55:37.198Z</time>
      </trkpt>
      <trkpt lat="47.550831" lon="7.888611">
        <ele>342.460153</ele>
        <time>2021-11-21T15:55:49.750Z</time>
      </trkpt>
      <trkpt lat="47.550789" lon="7.887816">
        <ele>345.815963</ele>
        <time>2021-11-21T15:56:10.266Z</time>
      </trkpt>
      <trkpt lat="47.550758" lon="7.887295">
        <ele>347.781428</ele>
        <time>2021-11-21T15:56:24.098Z</time>
      </trkpt>
      <trkpt lat="47.550687" lon="7.886581">
        <ele>350.483346</ele>
        <time>2021-11-21T15:56:42.773Z</time>
      </trkpt>
      <trkpt lat="47.550677" lon="7.886476">
        <ele>350.880337</ele>
        <time>2021-11-21T15:56:45.709Z</time>
      </trkpt>
      <trkpt lat="47.550609" lon="7.886120">
        <ele>352.265472</ele>
        <time>2021-11-21T15:56:54.623Z</time>
      </trkpt>
      <trkpt lat="47.550548" lon="7.885799">
        <ele>353.513954</ele>
        <time>2021-11-21T15:57:02.828Z</time>
      </trkpt>
      <trkpt lat="47.550391" lon="7.885109">
        <ele>356.143596</ele>
        <time>2021-11-21T15:57:20.292Z</time>
      </trkpt>
      <trkpt lat="47.550332" lon="7.884727">
        <ele>357.238695</ele>
        <time>2021-11-21T15:57:29.125Z</time>
      </trkpt>
      <trkpt lat="47.550234" lon="7.883221">
        <ele>361.466762</ele>
        <time>2021-11-21T15:58:02.229Z</time>
      </trkpt>
      <trkpt lat="47.549927" lon="7.881490">
        <ele>366.146562</ele>
        <time>2021-11-21T15:58:34.493Z</time>
      </trkpt>
      <trkpt lat="47.549726" lon="7.880786">
        <ele>368.065303</ele>
        <time>2021-11-21T15:58:50.469Z</time>
      </trkpt>
      <trkpt lat="47.549327" lon="7.879547">
        <ele>371.621003</ele>
        <time>2021-11-21T15:59:20.253Z</time>
      </trkpt>
      <trkpt lat="47.549318" lon="7.879398">
        <ele>372.023712</ele>
        <time>2021-11-21T15:59:23.442Z</time>
      </trkpt>
      <trkpt lat="47.549140" lon="7.879391">
        <ele>372.733895</ele>
        <time>2021-11-21T15:59:30.312Z</time>
      </trkpt>
      <trkpt lat="47.548718" lon="7.879258">
        <ele>374.454657</ele>
        <time>2021-11-21T15:59:43.983Z</time>
      </trkpt>
      <trkpt lat="47.548422" lon="7.878959">
        <ele>375.883509</ele>
        <time>2021-11-21T15:59:54.629Z</time>
      </trkpt>
      <trkpt lat="47.548234" lon="7.878638">
        <ele>377.027612</ele>
        <time>2021-11-21T16:00:03.061Z</time>
      </trkpt>
      <trkpt lat="47.547992" lon="7.877974">
        <ele>377.302202</ele>
        <time>2021-11-21T16:00:16.159Z</time>
      </trkpt>
      <trkpt lat="47.547574" lon="7.876801">
        <ele>377.552667</ele>
        <time>2021-11-21T16:00:29.922Z</time>
      </trkpt>
      <trkpt lat="47.547126" lon="7.875801">
        <ele>376.069269</ele>
        <time>2021-11-21T16:00:38.705Z</time>
      </trkpt>
      <trkpt lat="47.546309" lon="7.874154">
        <ele>370.255221</ele>
        <time>2021-11-21T16:00:51.893Z</time>
      </trkpt>
      <trkpt lat="47.546135" lon="7.873859">
        <ele>368.635956</ele>
        <time>2021-11-21T16:00:54.263Z</time>
      </trkpt>
      <trkpt lat="47.546077" lon="7.873763">
        <ele>368.075136</ele>
        <time>2021-11-21T16:00:55.088Z</time>
      </trkpt>
      <trkpt lat="47.545934" lon="7.873549">
        <ele>366.764359</ele>
        <time>2021-11-21T16:00:56.880Z</time>
      </trkpt>
      <trkpt lat="47.545746" lon="7.873302">
        <ele>365.143919</ele>
        <time>2021-11-21T16:00:59.192Z</time>
      </trkpt>
      <trkpt lat="47.545515" lon="7.873015">
        <ele>363.199740</ele>
        <time>2021-11-21T16:01:01.891Z</time>
      </trkpt>
      <trkpt lat="47.545478" lon="7.872968">
        <ele>362.885434</ele>
        <time>2021-11-21T16:01:02.333Z</time>
      </trkpt>
      <trkpt lat="47.545375" lon="7.872836">
        <ele>362.007171</ele>
        <time>2021-11-21T16:01:03.516Z</time>
      </trkpt>
      <trkpt lat="47.545131" lon="7.872664">
        <ele>360.264625</ele>
        <time>2021-11-21T16:01:06.010Z</time>
      </trkpt>
      <trkpt lat="47.545110" lon="7.872655">
        <ele>360.123648</ele>
        <time>2021-11-21T16:01:06.189Z</time>
      </trkpt>
      <trkpt lat="47.544883" lon="7.872555">
        <ele>358.596429</ele>
        <time>2021-11-21T16:01:08.383Z</time>
      </trkpt>
      <trkpt lat="47.544883" lon="7.872555">
        <ele>358.596429</ele>
        <time>2021-11-21T16:01:08.529Z</time>
      </trkpt>
      <trkpt lat="47.544883" lon="7.872555">
        <ele>358.596429</ele>
        <time>2021-11-21T16:01:08.540Z</time>
      </trkpt>
      <trkpt lat="47.544390" lon="7.872423">
        <ele>358.493969</ele>
        <time>2021-11-21T16:01:13.137Z</time>
      </trkpt>
      <trkpt lat="47.543839" lon="7.872326">
        <ele>358.493969</ele>
        <time>2021-11-21T16:01:18.508Z</time>
      </trkpt>
    </trkseg>
  </trk>
</gpx>